GFSMW_2pvu_pres_000.txt.gz
Presure
157 160 157 156 151 142 139 144 145 90 143 141 145 144 135 149 151 153 153 176 165 143 169 172 150 137 156 153 158 178 183 163 181 159 172 146 167 179 151 146 172 133 132
158 153 148 143 142 142 147 128 89 134 98 154 127 156 156 156 159 161 161 154 143 138 152 176 166 170 171 177 174 158 153 168 182 167 114 163 177 141 158 180 160 173 174
116 152 148 149 149 156 89 88 93 134 128 149 147 150 159 155 153 173 137 177 165 173 169 159 172 172 171 175 167 152 177 162 154 186 184 166 140 167 147 177 159 159 153
118 159 145 145 157 157 146 138 151 151 152 157 175 142 144 141 144 163 166 174 171 160 171 181 183 159 179 151 149 191 149 183 185 151 154 126 183 171 173 178 181 188 190
152 152 153 155 153 150 152 151 183 180 135 174 168 172 175 156 170 161 189 183 182 178 181 165 179 128 177 173 156 135 127 138 169 148 178 168 191 181 177 178 182 186 183
114 155 151 153 143 170 150 156 161 175 138 169 169 185 177 159 175 166 167 165 178 179 159 116 179 153 134 85 182 181 181 180 110 102 183 182 184 184 194 191 182 189 188
156 161 133 168 152 140 156 167 173 115 122 162 180 181 169 180 186 196 190 153 156 187 175 194 192 184 179 176 209 186 97 152 194 100 153 212 176 168 192 191 180 175 185
155 161 157 162 164 129 177 177 179 140 157 180 162 175 183 140 160 180 174 150 146 179 219 106 203 223 163 69 160 218 200 205 205 197 184 229 177 221 216 205 210 208 202
170 157 113 163 167 154 164 163 167 160 118 180 178 189 180 182 144 180 154 168 170 166 189 148 171 218 194 220 208 193 193 176 195 222 213 245 134 238 188 229 211 201 199
139 132 155 166 172 153 179 177 160 175 172 134 176 142 153 197 170 183 189 88 207 160 186 220 121 108 144 211 150 188 210 214 205 195 272 252 236 226 207 211 215 200 227
168 167 160 164 178 165 132 147 179 140 186 145 152 207 210 154 138 187 214 203 162 158 183 77 156 152 167 155 155 131 190 214 208 276 256 271 254 215 222 233 192 203 190
155 150 169 90 170 79 153 171 95 124 105 191 179 183 220 220 171 196 209 200 193 158 134 114 76 158 190 128 181 181 200 225 211 161 287 253 235 250 221 230 256 220 213
170 169 159 110 164 171 187 185 167 175 99 187 201 198 201 184 196 187 156 190 206 193 192 75 133 182 186 193 202 200 209 225 213 318 296 268 262 248 232 236 268 259 248
159 95 164 88 184 190 158 158 119 154 80 180 198 191 189 128 220 212 130 210 142 200 203 178 90 196 193 191 172 194 219 218 219 238 298 272 253 249 236 235 240 241 237
91 174 189 187 171 207 180 172 173 107 197 202 173 100 94 199 111 173 207 120 194 183 189 189 189 190 210 215 186 223 227 236 236 270 294 271 253 241 241 234 235 228 233
192 105 170 71 160 177 189 183 193 248 184 162 183 210 196 191 190 199 85 171 186 191 180 188 187 202 218 201 201 244 166 267 239 309 287 262 259 239 247 223 239 224 228
182 170 190 187 226 221 199 221 184 177 201 170 209 194 157 162 163 170 195 197 192 188 188 186 197 188 201 211 226 220 274 264 329 310 281 263 258 242 231 232 245 230 228
187 181 234 208 173 163 174 170 208 205 176 171 192 195 185 186 189 192 184 191 179 192 216 210 213 222 180 210 228 176 242 233 332 305 281 264 261 235 246 236 240 234 227
238 183 185 199 203 210 203 189 166 164 187 197 183 193 178 189 193 190 140 180 192 198 190 188 208 142 125 223 216 280 266 360 348 247 288 266 261 255 225 248 228 236 226
211 178 192 192 171 183 163 189 182 185 205 195 171 193 194 190 180 194 175 176 200 204 175 207 213 216 209 220 256 349 414 325 313 301 270 261 272 239 232 246 261 238 241
174 184 183 152 174 193 187 178 179 184 181 199 196 187 202 191 219 227 203 203 199 201 207 204 227 211 216 220 368 396 242 266 323 291 272 262 247 248 240 237 240 240 223
179 181 198 199 189 189 208 199 193 201 198 192 196 190 187 204 200 192 220 191 190 212 226 204 228 246 230 341 398 262 318 349 322 316 302 262 253 250 253 251 242 218 230
195 202 199 208 193 191 190 190 190 200 148 204 218 229 232 234 207 237 226 233 236 229 247 333 286 384 236 364 270 250 354 339 333 334 303 289 275 266 259 260 245 225 225
194 187 192 195 200 183 196 208 214 174 226 216 210 240 233 206 240 246 251 267 238 264 389 414 422 392 398 266 268 376 355 330 314 326 309 289 275 271 265 259 246 229 240
181 199 202 239 230 241 251 263 269 238 242 232 201 242 230 228 228 298 367 278 425 366 460 451 442 363 260 314 365 342 337 317 300 318 303 288 282 278 260 250 250 231 231
322 261 195 294 212 212 227 246 215 233 332 246 237 238 318 383 391 389 387 446 457 318 319 307 278 257 366 380 404 361 323 311 292 288 294 291 283 270 269 261 256 240 251

GFSMW_2pvu_pres_003.txt.gz
Presure
153 153 151 155 160 163 164 161 154 150 151 150 90 94 97 96 124 158 148 149 150 153 142 147 156 162 174 178 180 173 156 162 171 167 86 162 176 141 188 154 126 184 189
163 164 161 164 164 158 157 156 153 146 102 91 92 93 83 151 149 148 153 155 149 143 175 153 168 163 169 157 161 178 191 125 183 88 164 169 169 203 157 142 198 199 185
151 150 154 158 159 158 151 152 154 155 156 116 155 148 146 151 154 158 168 172 165 173 167 159 168 159 161 186 181 166 174 82 147 115 180 166 152 198 147 111 181 198 218
159 158 109 94 141 155 157 155 154 110 155 148 142 147 146 174 154 173 160 157 181 158 173 177 192 194 107 142 167 185 137 77 180 172 136 222 136 231 200 199 125 204 241
88 94 95 157 108 167 166 163 151 132 131 141 176 152 141 166 176 153 145 149 181 167 191 182 172 178 175 159 190 99 208 135 180 201 229 148 189 196 198 172 196 200 186
159 159 161 95 140 148 169 148 137 160 177 169 157 176 145 178 132 141 174 182 160 204 187 194 179 182 176 199 202 208 208 180 171 191 171 206 189 179 168 177 213 182 224
166 165 147 165 152 155 160 163 158 175 160 165 178 160 178 169 162 172 164 177 147 132 147 152 150 163 211 191 134 108 109 74 178 139 131 207 181 173 179 172 206 193 196
161 148 132 140 149 150 158 166 165 154 175 164 171 175 168 172 148 132 182 196 191 194 189 191 192 180 233 228 75 197 184 145 96 191 187 184 188 200 195 202 220 226 202
142 152 133 139 154 158 165 102 171 164 177 171 163 144 177 156 182 193 178 183 78 220 181 211 204 199 152 129 94 189 203 138 129 173 168 184 205 214 208 208 209 239 219
160 157 160 160 163 145 167 169 167 172 170 169 106 169 146 148 187 159 199 198 189 135 182 155 160 214 193 157 133 67 133 118 193 182 181 189 191 187 204 216 230 246 253
145 166 172 169 152 156 167 148 170 113 152 162 180 183 172 181 177 182 111 180 192 222 199 214 179 139 199 161 71 102 70 182 182 178 201 190 196 198 191 201 221 251 247
111 115 159 124 163 158 158 171 180 134 159 185 177 168 182 171 160 89 178 196 181 105 218 157 177 197 198 148 67 175 150 189 190 186 180 189 189 193 204 197 205 281 300
168 171 163 146 149 174 165 156 155 120 75 180 180 167 178 180 102 165 163 200 195 189 71 195 69 144 156 145 167 161 161 192 196 200 194 203 203 195 197 206 204 320 298
166 171 164 169 154 167 167 84 66 180 181 181 195 192 174 186 146 205 229 234 223 175 213 185 135 190 198 187 181 172 193 206 193 183 198 194 200 187 206 216 203 314 270
126 165 174 149 181 182 117 179 108 182 189 191 67 100 190 236 203 196 182 176 182 214 186 177 194 199 180 174 134 189 202 190 181 211 189 203 196 198 205 141 213 312 291
143 176 180 64 180 182 167 185 181 178 64 204 204 190 244 186 171 215 79 205 183 172 192 199 196 176 183 127 192 193 186 203 198 195 188 194 197 126 194 199 205 307 260
173 187 162 164 170 192 187 191 202 203 172 180 233 241 182 182 184 216 181 187 166 181 193 205 180 186 188 188 193 199 198 192 196 190 206 143 211 201 241 213 319 306 283
180 188 189 188 171 188 196 217 194 177 237 179 184 209 175 204 186 172 177 186 191 184 175 168 204 193 151 200 195 160 192 203 183 196 200 187 211 193 337 216 332 230 280
160 210 214 214 213 199 156 146 212 146 192 167 186 199 168 188 206 193 197 200 193 187 205 202 162 182 185 202 200 201 217 226 210 206 215 222 211 238 380 213 240 302 272
170 161 168 193 214 211 137 147 192 202 200 192 202 203 200 188 185 215 206 198 189 231 211 208 203 196 206 222 201 215 254 224 230 233 319 218 361 381 364 245 316 300 272
200 201 221 150 158 152 159 189 158 201 160 181 176 198 190 206 177 196 229 222 149 226 214 220 221 230 229 218 223 231 215 211 221 345 269 393 355 357 250 296 301 288 264
183 185 144 184 200 172 197 191 208 204 187 200 195 222 218 206 160 231 227 223 223 237 237 218 218 227 220 213 224 234 242 362 364 371 361 370 375 259 341 309 289 283 268
178 201 189 172 135 203 179 199 192 204 211 211 185 229 278 328 374 320 375 262 250 208 240 274 236 222 208 381 334 384 293 385 373 367 372 331 253 321 326 306 299 281 269
206 193 226 192 204 207 213 265 275 234 223 199 285 200 253 289 267 255 249 254 378 393 306 412 410 400 385 364 286 290 278 252 242 423 263 259 343 321 324 302 290 280 274
189 196 274 234 385 374 264 287 271 301 353 241 372 369 370 366 356 357 374 305 346 371 332 288 287 279 303 343 343 359 438 378 277 264 402 347 342 301 302 307 288 278 282
256 264 344 248 207 247 310 242 213 214 345 364 360 370 378 376 368 393 395 378 375 438 338 362 361 320 293 281 352 443 295 284 264 347 375 328 303 298 303 289 277 279 273

GFSMW_2pvu_pres_006.txt.gz
Presure
155 170 162 158 157 152 161 161 166 168 165 162 156 152 87 152 96 131 144 142 141 149 144 187 174 163 150 159 176 196 186 188 177 181 115 82 120 186 195 146 225 184 205
157 165 158 161 166 168 164 162 152 163 158 147 156 157 150 150 154 153 144 152 145 144 150 163 158 174 176 179 191 174 172 132 169 196 194 187 158 145 209 153 193 176 195
163 161 151 151 152 136 123 96 148 153 154 148 149 156 157 137 135 141 142 173 131 149 176 180 172 183 165 186 182 202 194 132 116 141 200 186 165 223 209 175 183 159 133
152 151 90 108 148 159 91 147 153 157 153 152 152 128 155 156 155 166 178 161 181 184 173 166 167 159 187 167 166 167 174 138 202 170 144 208 126 227 185 142 177 186 195
132 89 90 90 94 135 160 161 151 144 145 153 155 163 154 157 154 179 156 166 164 164 179 145 148 173 146 164 84 175 181 178 229 242 171 129 161 203 185 180 136 183 166
122 138 153 137 130 152 153 140 142 146 143 147 150 143 124 140 173 152 175 174 181 163 160 189 187 191 149 194 168 180 197 185 77 109 100 189 203 177 183 170 182 183 185
155 162 140 152 137 139 140 127 128 143 158 150 168 160 164 159 171 177 173 168 161 163 97 172 160 170 175 186 190 186 185 232 79 142 137 191 135 183 178 182 189 185 196
127 90 139 159 155 159 163 127 143 156 156 127 166 170 166 158 178 119 184 172 140 186 125 172 161 183 186 195 182 195 169 204 170 68 73 123 167 190 185 153 191 170 188
162 165 153 149 148 149 161 161 166 124 170 159 170 170 160 170 155 159 149 143 158 143 185 192 176 185 185 185 194 173 241 175 181 192 115 138 198 185 157 185 193 185 202
177 154 162 164 165 157 156 99 146 171 169 160 142 161 175 175 116 173 171 188 172 142 108 196 156 164 157 175 198 217 212 189 191 202 174 193 143 192 176 187 181 193 195
137 162 160 160 146 99 166 169 165 161 169 175 166 165 172 148 81 161 173 169 187 184 171 178 187 186 196 177 167 182 74 73 154 183 192 193 185 194 183 185 190 191 191
157 172 169 169 168 165 163 175 179 170 169 173 181 115 78 180 157 188 188 181 178 177 176 204 187 74 211 173 163 248 213 171 199 193 174 170 180 182 186 192 192 186 189
168 166 135 158 179 174 170 172 179 170 151 180 184 176 171 184 183 181 165 200 211 203 201 178 185 207 144 180 209 224 149 190 185 172 195 201 197 192 192 181 190 175 179
157 152 154 126 170 172 172 152 141 163 183 170 169 184 193 183 171 170 186 194 188 183 192 173 253 173 175 206 217 189 195 180 164 195 185 197 193 193 202 184 173 174 202
146 151 169 177 173 59 176 180 183 180 164 191 194 180 168 195 205 205 202 186 205 203 210 277 196 208 210 161 205 210 193 202 201 204 201 181 178 200 169 191 205 198 211
176 149 158 172 180 123 182 182 182 178 163 190 182 178 189 175 153 153 203 219 193 261 215 157 207 211 174 202 203 204 212 194 201 214 197 209 214 215 201 187 209 212 213
170 177 183 185 186 185 165 151 191 177 194 198 168 169 212 179 219 197 207 187 181 183 172 211 207 199 192 168 183 212 199 210 219 220 216 214 183 212 214 222 229 222 210
185 179 144 125 148 185 187 184 180 182 195 163 160 179 220 180 184 221 175 231 226 184 186 189 202 203 177 193 201 213 189 208 201 194 204 183 218 212 264 206 221 214 208
169 153 191 187 189 176 128 225 148 191 151 149 204 169 215 216 198 193 172 212 154 194 186 195 200 219 224 212 235 233 267 174 244 232 238 253 254 240 256 252 218 224 333
120 102 160 118 148 186 141 204 166 193 185 212 141 199 207 163 172 186 185 166 212 172 216 197 218 269 188 253 302 227 259 366 293 302 367 284 371 362 358 351 345 335 322
120 99 147 146 218 129 180 203 182 191 177 190 180 201 221 178 174 197 242 295 305 278 258 358 238 207 305 326 235 345 329 268 302 290 349 309 257 361 355 346 337 324 382
123 177 153 130 162 198 172 248 231 251 266 180 303 189 198 276 245 253 267 289 203 207 233 296 302 375 370 362 352 342 337 324 354 351 400 398 386 370 364 365 292 378 364
143 135 155 167 218 196 180 220 183 181 181 275 292 314 253 268 334 224 298 325 273 382 379 384 390 400 391 391 384 383 374 367 366 308 276 275 274 355 297 259 245 355 349
167 151 186 187 196 243 202 355 339 338 329 324 307 249 277 334 322 319 317 301 315 319 389 408 322 308 303 306 337 379 314 316 320 316 324 346 353 455 437 353 359 262 279
241 191 229 250 254 298 353 232 286 324 332 357 346 366 374 343 312 314 317 319 365 388 419 371 361 374 369 370 369 365 440 424 391 341 296 340 313 379 334 283 261 334 307
208 342 239 273 356 321 339 332 365 374 376 377 380 321 313 316 317 319 336 337 414 395 361 374 367 362 358 350 330 340 343 391 406 417 408 289 425 286 276 260 304 316 312

GFSMW_2pvu_pres_009.txt.gz
Presure
168 166 160 152 166 166 162 164 162 170 164 165 95 158 157 160 153 154 159 144 158 154 147 148 171 172 167 181 168 162 157 157 133 146 184 171 143 134 187 203 240 241 161
161 160 144 160 147 162 152 153 124 153 157 113 154 149 138 139 151 106 160 160 134 148 148 156 174 146 159 167 166 162 187 174 140 151 134 164 175 180 191 246 172 222 194
140 165 161 160 162 161 111 159 150 158 159 158 159 148 125 151 149 135 149 143 150 148 149 167 168 161 182 149 174 171 170 175 196 182 191 172 182 176 133 180 188 199 163
162 160 165 167 161 90 146 91 147 146 159 158 148 147 144 139 151 169 146 149 169 156 155 171 171 136 168 167 154 156 133 178 71 193 170 192 200 96 157 70 174 166 203
153 164 168 134 89 90 133 133 141 150 150 94 127 162 133 157 161 152 154 176 170 149 159 170 180 160 167 185 170 134 138 82 174 169 188 187 105 78 183 134 85 150 190
168 164 163 151 140 162 159 157 134 143 141 121 153 129 132 163 157 174 138 172 126 159 145 170 162 160 181 176 165 178 154 173 179 183 189 206 183 106 74 236 183 190 181
161 108 115 142 124 94 90 160 152 150 157 154 160 116 138 140 151 169 164 152 158 167 171 180 157 180 117 74 171 187 188 183 206 188 192 149 203 173 217 243 189 183 171
103 97 117 96 165 168 163 150 169 165 163 170 174 104 153 154 173 180 178 167 171 172 176 155 178 156 178 86 178 179 179 150 149 210 170 145 65 80 233 175 219 162 191
174 164 164 170 148 155 144 174 172 174 104 165 101 167 171 169 169 171 168 154 172 180 180 164 180 191 189 164 167 198 191 185 198 88 194 187 205 241 195 173 191 189 176
145 158 170 150 166 144 140 170 171 116 152 154 168 172 161 171 171 157 168 173 182 173 171 190 194 186 170 191 207 194 210 211 157 189 202 181 200 222 202 148 184 126 201
149 158 151 153 163 176 177 170 171 169 154 166 159 178 164 158 153 179 174 183 169 108 173 193 154 172 191 184 189 179 214 193 165 201 169 201 259 202 161 217 190 181 187
167 171 169 155 154 160 166 155 155 172 177 138 148 108 161 180 178 184 189 175 191 194 194 184 199 197 192 193 209 212 203 176 172 197 166 201 187 215 174 173 199 179 184
154 145 145 174 169 157 169 166 87 148 176 155 144 179 181 186 196 187 175 187 191 179 181 182 156 186 187 213 164 179 192 176 252 183 209 201 189 192 191 192 177 195 169
170 165 166 166 161 170 176 174 179 159 115 177 180 185 187 180 170 187 193 184 179 188 196 144 167 158 186 206 169 206 193 192 199 199 196 184 161 191 181 203 177 191 172
169 87 136 166 172 175 175 169 165 176 189 191 139 173 180 191 192 185 185 190 157 208 218 159 224 161 179 167 178 166 205 187 198 230 201 195 177 191 187 194 202 193 202
175 176 178 179 161 155 172 178 189 186 163 185 196 193 194 202 203 192 187 171 132 184 153 144 177 152 211 157 206 183 206 227 223 202 206 221 214 174 228 191 186 241 173
179 178 171 173 179 182 191 187 178 165 195 184 193 147 202 198 148 156 148 161 192 206 151 230 230 165 251 198 298 268 274 218 227 400 377 289 275 259 193 263 382 376 372
174 180 181 154 191 191 144 104 193 146 127 112 126 131 166 157 142 200 160 210 218 205 302 239 227 265 333 214 204 252 226 271 212 223 272 182 239 211 239 344 375 356 365
182 141 190 182 164 155 137 100 114 132 140 141 133 147 157 217 241 196 223 219 199 264 260 318 277 300 321 249 335 238 264 255 320 193 382 306 362 386 374 382 321 386 293
183 141 193 162 131 197 148 124 139 142 210 165 214 230 216 183 258 275 328 323 339 249 263 250 328 318 321 332 339 280 288 391 361 377 313 294 368 367 364 365 368 376 372
183 200 133 133 205 133 147 134 177 214 152 202 212 258 353 389 233 238 284 352 357 372 385 385 389 387 387 334 328 323 323 324 325 388 319 357 378 379 378 381 392 396 401
168 142 134 147 139 134 152 255 168 78 198 294 256 259 366 323 377 369 382 381 384 388 392 397 340 319 321 323 325 326 322 408 328 327 319 308 304 303 331 354 356 375 348
159 140 129 134 141 168 207 147 198 136 294 407 397 232 328 373 387 384 384 387 389 390 338 324 325 319 312 318 435 423 403 334 426 397 323 435 449 448 373 363 317 348 363
214 145 222 141 218 187 265 165 289 358 347 273 386 314 315 379 379 377 375 371 363 328 326 334 361 376 368 362 370 366 365 370 359 353 344 350 363 434 393 340 300 300 360
225 221 233 201 253 252 289 313 412 392 392 385 376 331 378 378 377 373 371 371 374 371 364 355 358 362 356 356 353 347 342 341 341 340 343 344 326 426 477 356 311 312 370
220 236 203 246 281 198 312 387 395 394 387 383 376 374 373 366 347 315 317 321 347 350 350 351 356 355 354 354 350 343 339 323 327 329 329 334 361 413 455 432 291 286 390

GFSMW_2pvu_pres_012.txt.gz
Presure
132 170 176 167 169 164 159 161 163 161 159 158 112 153 96 95 118 154 160 142 145 141 146 156 150 137 152 167 162 166 163 168 153 175 179 160 144 145 175 176 194 152 162
152 124 147 167 161 161 157 166 164 155 107 150 158 154 161 140 159 135 141 148 151 147 163 162 147 152 177 168 153 169 164 166 174 177 178 151 140 81 172 185 191 92 179
166 152 162 154 160 168 170 164 152 122 91 170 169 159 142 153 90 147 151 140 139 145 160 151 167 178 163 151 159 159 163 156 150 173 161 188 172 169 175 169 198 192 178
168 146 164 157 160 160 168 172 168 170 141 154 133 104 129 161 160 124 125 127 143 169 168 162 163 153 161 164 163 172 165 176 167 152 181 183 166 194 200 186 183 201 184
173 133 161 115 172 176 160 167 127 126 168 96 158 159 169 170 135 132 169 155 171 109 133 150 171 168 166 168 144 162 149 160 169 145 186 168 180 195 185 196 163 199 179
147 150 166 114 105 169 157 163 164 97 155 132 169 145 166 166 163 169 161 148 158 149 175 168 176 169 163 170 181 157 131 161 128 189 171 164 195 138 149 193 206 203 166
164 163 104 102 116 159 150 93 144 134 162 155 151 150 146 175 157 151 156 160 163 158 164 174 160 168 175 170 178 175 155 191 145 175 170 171 180 179 186 194 210 202 162
111 162 102 103 107 176 141 170 150 171 153 148 166 168 171 165 154 159 171 176 164 171 165 173 166 168 170 186 178 166 187 188 172 173 177 195 203 202 208 183 178 206 165
164 158 161 147 104 165 170 154 144 159 168 143 158 175 174 155 169 169 90 168 177 160 164 167 174 177 180 178 180 168 192 171 175 183 202 198 213 211 190 203 203 170 169
162 130 96 122 168 162 135 134 175 160 152 171 169 153 169 163 166 180 180 171 154 173 174 177 181 178 172 191 194 187 182 192 198 204 168 191 185 169 165 187 164 168 179
157 139 135 167 147 150 166 163 148 153 169 165 160 167 163 176 180 168 160 155 171 179 185 155 181 180 198 201 185 189 174 197 168 154 172 195 152 172 206 153 155 155 184
167 169 171 137 176 161 141 169 171 168 157 162 164 179 182 169 165 169 172 179 188 139 189 172 200 197 195 187 206 220 179 169 210 202 174 149 164 218 159 234 207 166 221
173 144 151 148 173 173 132 178 177 160 168 183 182 148 162 163 163 144 180 194 184 186 186 125 186 203 216 194 172 162 208 204 150 211 147 233 156 176 181 161 176 166 240
141 169 156 173 61 156 112 180 174 174 181 170 160 172 171 149 183 192 185 184 190 130 157 149 174 143 233 206 156 191 216 209 188 239 186 177 245 301 290 300 271 174 191
134 174 177 82 160 146 166 178 179 168 166 161 179 182 188 194 167 140 137 149 121 192 152 223 141 213 225 181 228 313 185 163 172 273 305 245 254 178 242 252 244 196 239
184 159 161 180 179 175 170 175 185 184 187 194 199 103 152 197 132 123 132 111 133 169 144 153 146 166 154 269 161 162 247 357 266 339 230 244 350 337 335 272 322 258 361
189 185 170 168 162 170 176 184 193 176 190 140 136 139 134 155 135 143 162 136 191 145 143 169 231 234 238 386 337 222 197 352 340 341 331 335 323 360 358 328 355 349 319
145 147 186 191 195 196 171 188 177 175 131 129 134 139 154 180 206 140 185 152 207 288 289 400 237 411 333 340 311 394 382 379 379 380 348 361 384 359 342 349 328 318 306
193 191 190 194 197 120 184 195 170 127 127 140 134 163 171 88 147 222 241 210 213 280 389 363 402 348 306 283 405 407 410 413 418 418 403 379 347 350 322 321 321 331 324
191 190 189 196 146 151 135 210 164 150 133 140 150 160 233 240 306 131 153 338 412 404 403 400 357 319 394 396 397 396 395 393 335 329 320 320 321 326 324 328 327 425 403
132 139 162 154 208 147 170 172 167 132 130 141 143 153 184 229 344 422 402 403 393 392 389 391 390 384 383 384 384 392 397 394 393 390 397 391 403 419 432 361 425 343 320
88 172 186 183 204 164 169 135 131 150 222 170 210 262 291 338 415 404 399 391 387 387 386 390 390 344 375 330 293 307 337 368 374 373 370 378 380 357 386 393 317 436 399
192 137 132 107 142 220 189 144 237 156 212 220 217 291 346 419 409 402 389 381 148 388 350 333 330 314 303 314 364 368 366 366 369 369 368 362 362 355 358 359 347 350 374
197 125 165 137 135 203 244 138 230 235 251 196 292 335 420 413 397 383 386 387 377 337 371 363 362 361 363 392 394 392 364 359 360 357 357 354 337 338 343 345 348 327 386
134 97 237 226 221 179 191 245 258 197 276 289 353 415 403 392 383 379 374 339 353 352 355 364 498 534 528 516 506 494 478 467 466 462 396 380 347 329 326 329 338 378 397
182 209 227 167 197 224 237 259 268 276 293 399 408 399 385 379 372 348 366 346 344 355 515 506 504 500 487 477 468 461 446 443 445 441 445 463 355 347 322 325 356 436 434

GFSMW_2pvu_pres_015.txt.gz
Presure
168 155 171 165 136 163 165 175 161 172 160 187 162 186 90 146 156 161 160 160 154 150 156 160 157 147 139 127 162 161 158 163 153 169 149 167 165 160 174 161 166 188 143
160 136 172 171 164 122 136 159 166 169 171 173 168 166 149 169 165 157 150 139 160 153 147 144 125 154 131 159 157 142 148 157 158 167 157 168 150 177 168 166 188 179 176
161 149 172 154 171 160 156 164 169 158 159 168 170 149 136 120 153 153 140 157 159 151 139 153 140 156 156 156 147 151 141 160 167 155 167 161 177 177 156 181 180 167 118
153 151 131 130 178 154 165 163 147 142 122 176 107 172 127 90 161 164 166 163 158 143 174 160 150 153 166 167 147 108 171 162 159 169 157 180 179 166 188 172 181 171 83
116 132 122 153 162 155 126 159 102 110 112 103 108 106 95 164 153 133 176 143 143 165 164 167 173 173 163 165 178 164 165 163 162 167 166 185 168 185 189 174 175 148 178
104 141 157 173 159 178 143 102 100 104 105 130 169 136 124 132 128 142 146 159 177 177 159 157 152 149 162 157 169 156 162 167 178 185 168 166 177 182 192 180 182 174 191
166 133 154 160 156 164 140 179 102 99 122 157 165 143 146 158 151 152 168 152 151 160 159 157 165 181 169 168 164 154 171 177 183 181 172 171 188 183 181 196 202 201 173
162 156 144 171 146 165 162 161 135 163 155 162 150 172 152 148 159 167 152 158 165 153 154 181 176 167 168 164 158 172 186 191 172 169 103 172 180 192 183 199 216 215 222
111 160 160 176 168 178 174 159 167 159 155 160 173 83 147 164 174 177 166 154 156 178 174 173 176 175 167 163 181 183 140 179 158 185 191 189 195 195 217 194 186 193 209
152 135 157 161 162 162 144 170 170 171 171 140 158 154 135 178 162 160 154 178 181 181 176 166 164 166 185 156 164 187 198 188 158 135 128 192 218 185 154 223 222 171 220
169 118 165 165 167 167 175 174 169 152 177 148 141 165 175 164 158 158 180 174 170 167 162 168 164 190 194 177 196 143 140 143 225 212 151 233 176 222 162 184 191 148 160
172 164 162 161 154 172 155 151 155 156 172 179 163 175 151 179 179 173 171 171 188 192 192 170 161 114 142 145 183 205 150 141 131 238 235 237 156 159 145 163 258 182 273
195 164 170 163 159 160 180 179 163 138 150 163 172 178 187 172 175 184 180 183 182 176 143 149 185 158 141 154 228 142 139 163 190 228 153 230 251 280 264 372 225 334 360
198 174 157 183 162 141 180 60 142 179 182 188 186 173 170 167 165 191 193 176 131 117 135 176 164 136 134 149 135 188 146 207 211 216 199 227 416 419 424 349 331 353 343
190 199 195 160 135 161 165 183 172 193 175 173 172 185 190 183 175 204 170 155 176 171 139 134 171 140 138 141 138 230 212 149 288 352 411 403 399 351 318 307 367 374 369
161 152 172 157 189 166 179 180 170 173 171 190 122 132 201 148 186 141 137 135 132 143 143 133 204 139 125 165 161 239 422 413 410 411 407 404 400 399 402 401 402 403 404
146 195 196 184 163 139 168 171 176 187 185 194 194 199 211 143 183 217 132 129 190 146 139 138 267 292 249 322 412 411 406 406 403 400 402 402 398 398 401 402 405 409 412
157 184 200 196 186 179 177 195 185 193 162 162 178 221 176 202 160 121 178 153 210 147 285 196 235 338 424 412 406 407 404 405 404 405 406 392 391 395 386 401 377 355 321
132 196 146 193 192 200 186 125 147 205 173 182 199 171 128 182 189 162 211 151 219 258 258 311 432 429 418 408 405 403 395 393 386 348 341 372 329 304 292 303 391 392 397
207 196 195 198 181 169 206 158 161 175 201 147 202 138 202 125 201 210 176 230 215 316 350 434 420 400 391 387 378 368 375 376 374 370 364 359 362 366 368 370 371 369 381
191 159 103 205 144 161 134 134 132 160 196 217 135 194 180 203 188 233 263 299 277 367 427 411 399 390 373 371 369 369 310 444 553 547 546 537 427 365 365 369 372 372 377
213 209 140 96 220 159 192 153 162 201 194 187 201 206 203 252 251 285 297 324 412 421 409 401 383 370 363 365 197 524 535 526 518 516 508 499 492 488 374 361 362 359 356
232 126 197 139 146 157 166 172 168 179 149 211 224 197 253 278 282 300 337 421 417 411 393 372 368 365 202 191 412 402 478 475 474 471 465 464 465 466 470 358 350 346 338
138 187 158 151 132 129 191 178 149 223 152 246 227 231 277 285 294 338 418 417 401 385 369 367 368 345 188 408 387 385 442 440 441 442 439 439 440 446 456 466 343 336 329
206 189 134 177 188 189 201 220 206 212 237 215 192 277 288 285 331 408 409 399 380 370 367 369 234 187 405 391 378 372 410 420 420 417 416 420 425 436 452 522 343 332 325
170 193 185 210 166 221 226 218 184 232 247 269 276 293 292 346 406 408 403 374 365 352 361 431 360 408 388 380 385 354 370 385 391 397 410 417 424 438 535 377 343 321 327

GFSMW_2pvu_pres_018.txt.gz
Presure
184 134 175 168 171 159 177 172 134 135 151 159 161 166 178 177 171 168 93 161 161 157 159 167 143 139 166 169 153 165 141 166 162 174 155 153 154 177 166 169 159 162 155
123 136 175 161 171 158 162 173 169 134 167 162 117 150 142 154 98 93 103 131 162 150 135 150 152 177 131 143 177 172 159 170 156 163 163 149 150 168 154 163 162 161 182
191 129 152 165 165 161 158 154 150 174 164 161 159 103 100 130 92 157 171 165 131 125 165 166 159 132 160 148 167 175 155 147 151 155 170 177 170 157 147 152 166 184 177
136 201 150 160 168 158 133 127 132 144 131 173 105 102 145 101 121 159 169 174 160 136 129 133 141 159 177 156 154 165 156 154 152 173 175 172 178 167 151 177 182 168 180
91 196 190 99 120 131 149 120 128 171 168 179 180 178 90 102 167 175 160 156 161 142 175 144 153 166 162 175 140 159 173 169 180 176 171 169 170 163 184 182 189 190 178
95 171 187 104 100 109 109 155 158 163 166 175 159 143 167 155 162 165 159 179 157 179 157 146 138 161 152 150 154 179 180 176 169 164 167 178 163 183 196 159 176 120 186
158 97 182 164 170 120 107 140 158 143 135 174 161 159 163 165 156 168 175 157 149 144 144 156 170 178 154 163 176 172 169 183 172 192 185 180 154 195 189 176 207 159 200
190 192 185 174 166 166 167 148 162 161 161 163 170 171 157 169 170 163 171 164 143 175 174 174 150 159 164 168 172 185 195 181 179 118 194 162 192 189 139 150 147 160 231
186 191 192 126 174 171 167 115 162 133 164 157 156 170 169 173 140 154 142 166 154 156 154 166 154 160 187 189 180 182 188 144 165 210 155 201 149 146 148 146 215 231 218
180 180 188 123 169 165 144 90 156 164 168 170 169 150 173 181 164 147 152 143 155 167 156 165 179 186 179 191 153 151 206 201 121 147 154 187 130 176 162 157 208 196 163
187 177 182 179 187 193 159 189 169 170 163 160 145 178 181 171 166 172 184 177 177 172 166 189 191 177 180 206 200 210 165 129 149 136 150 145 153 157 157 215 166 233 244
185 187 172 182 183 183 165 202 189 149 173 144 144 163 165 159 187 171 158 163 177 189 192 184 190 203 204 223 203 134 153 142 135 145 140 136 231 252 246 257 290 305 423
172 197 188 182 170 185 191 153 162 160 161 195 182 142 142 189 165 176 174 184 193 178 136 131 160 150 143 207 134 130 134 142 142 160 225 253 185 326 331 416 411 411 410
176 183 180 176 177 151 158 146 180 189 173 152 201 170 176 181 181 193 181 188 160 185 186 161 128 141 182 170 167 254 219 182 254 238 244 373 419 412 407 405 403 400 400
182 173 173 186 144 171 153 144 198 200 163 162 182 195 193 191 183 147 195 177 208 196 199 213 144 142 170 190 197 207 218 287 299 447 437 427 415 408 403 403 400 400 403
176 171 194 190 142 142 192 197 152 199 202 175 200 197 184 140 191 192 148 143 223 211 143 144 232 198 219 227 215 245 327 445 432 423 413 403 395 387 385 385 385 396 391
175 191 186 212 178 188 191 184 187 194 193 198 177 175 149 172 197 219 118 190 203 145 207 144 203 207 240 207 237 389 437 430 421 407 393 381 376 374 374 325 249 374 368
195 149 200 144 194 200 200 197 203 177 209 148 193 210 199 173 137 142 212 226 215 204 219 175 236 259 264 321 429 433 420 401 382 374 372 377 209 201 521 554 554 545 439
195 192 165 214 212 192 199 208 173 105 162 198 186 224 145 195 219 229 213 224 125 210 202 222 230 286 325 436 426 414 396 384 379 381 440 190 200 417 521 523 525 527 524
238 223 225 221 193 199 195 212 164 199 236 138 183 173 176 146 176 193 129 202 168 259 218 276 330 354 430 421 404 390 385 384 453 395 348 314 447 481 487 489 492 496 496
216 217 217 213 208 214 199 202 176 184 143 163 133 199 195 230 190 195 188 246 241 265 290 338 371 430 418 403 386 378 383 438 409 394 394 394 445 453 455 457 464 470 474
206 201 184 202 202 217 236 212 206 166 134 175 193 198 204 205 214 212 201 254 270 289 343 341 436 420 402 383 375 371 435 406 382 380 379 388 415 428 434 438 445 447 457
206 202 203 169 165 168 185 211 135 163 195 202 203 193 184 195 193 240 201 270 290 335 357 436 425 406 384 373 370 447 412 388 371 378 372 379 394 415 423 429 432 446 477
217 157 161 134 208 215 135 200 199 148 207 190 187 184 199 198 209 215 266 290 338 375 431 423 411 390 374 373 408 428 405 375 374 371 366 370 385 414 426 427 446 531 469
168 143 211 209 162 168 165 197 186 184 186 200 212 211 198 224 252 268 289 349 418 425 415 411 398 379 372 394 414 421 406 389 368 374 372 367 394 420 422 450 497 383 333
134 198 184 151 139 175 200 202 179 185 200 198 205 211 231 247 267 287 362 443 428 403 398 389 374 372 370 424 396 371 412 391 356 368 364 373 418 426 517 398 339 337 323

GFSMW_2pvu_pres_021.txt.gz
Presure
245 117 186 125 128 150 191 185 178 163 166 184 175 133 126 166 146 103 101 157 92 103 173 166 163 165 167 157 160 163 152 154 143 143 172 176 135 162 154 148 148 151 182
133 216 122 136 173 125 137 184 170 170 161 178 179 171 176 164 163 98 104 91 96 171 168 169 165 163 172 160 157 178 167 157 132 148 168 151 159 159 170 156 160 174 169
206 231 177 212 118 145 141 181 167 165 169 141 130 128 132 153 158 157 128 135 178 172 158 176 172 157 158 152 179 160 128 142 168 156 174 150 146 146 146 153 169 117 153
201 104 213 210 92 152 91 144 154 169 163 114 119 127 169 176 154 81 179 172 172 173 162 155 158 167 172 169 179 150 145 149 155 160 184 165 161 164 191 178 174 176 123
195 160 89 95 100 143 176 187 98 165 159 111 151 125 166 167 165 152 157 160 154 165 158 156 161 161 175 176 140 159 151 154 177 166 165 163 188 184 198 197 180 189 201
194 195 209 207 91 95 120 149 167 148 104 128 148 157 164 157 152 162 172 171 168 174 178 150 174 184 171 170 165 171 186 181 170 172 185 192 180 172 182 158 205 114 155
155 190 126 196 203 194 189 179 176 168 170 161 161 153 124 166 163 164 162 162 158 171 182 187 183 169 161 183 191 179 184 168 168 186 163 174 153 189 122 122 178 154 134
185 171 191 180 195 195 200 186 178 153 132 169 174 168 170 165 165 170 135 157 180 183 177 167 158 165 193 179 186 163 175 164 183 145 191 180 121 120 198 127 154 139 139
168 183 184 185 185 184 187 192 183 128 131 169 170 166 157 162 173 131 182 181 178 163 142 183 189 190 160 192 176 132 184 155 136 113 198 149 201 222 203 197 167 167 155
163 182 192 184 181 180 180 182 184 188 191 175 191 193 185 203 164 188 162 157 142 149 179 153 198 185 193 180 171 112 198 146 169 132 173 199 190 170 219 221 235 244 208
178 182 189 185 184 173 180 180 183 183 187 194 191 178 163 160 184 190 150 187 193 206 182 188 194 201 203 158 175 191 128 165 177 207 203 203 171 183 234 227 232 260 282
171 171 161 170 182 183 181 188 192 187 137 186 173 183 183 190 153 162 191 166 160 181 171 205 138 187 149 145 195 197 134 150 153 223 172 215 236 242 228 252 318 181 429
189 196 178 179 176 178 181 179 184 183 180 172 147 178 160 160 195 202 193 199 162 201 189 136 186 190 162 152 212 200 210 219 191 211 233 237 249 287 453 443 441 433 421
169 169 180 168 172 178 186 180 171 182 174 192 158 199 156 200 216 205 183 202 141 209 171 199 149 153 141 170 209 235 215 208 193 262 275 328 457 290 438 427 412 398 391
186 183 186 165 163 194 172 170 179 192 197 181 184 195 204 201 209 162 107 206 137 183 142 157 144 182 223 212 200 197 231 220 228 273 436 455 442 424 408 399 393 393 451
183 188 193 195 188 189 193 191 137 199 192 194 217 164 216 194 108 128 201 211 206 171 212 126 200 209 203 210 211 215 214 231 308 455 447 430 413 399 391 461 443 430 271
185 165 150 188 197 200 193 198 197 197 188 215 215 201 225 174 201 212 181 234 201 142 156 203 170 225 217 201 229 228 266 400 449 439 422 404 392 406 435 423 411 395 405
188 191 152 197 165 152 192 205 206 222 227 218 222 209 195 172 166 236 134 176 164 168 192 207 221 204 203 212 220 248 462 446 434 415 396 389 451 431 416 406 399 386 424
197 138 183 198 185 199 220 215 226 205 222 221 213 208 198 236 155 149 210 211 195 205 191 207 218 200 215 216 263 456 446 434 414 393 382 450 430 410 396 397 387 388 425
188 198 198 205 208 224 229 204 221 216 205 204 139 238 197 133 147 206 142 206 214 189 213 214 196 216 227 267 420 443 431 410 328 384 435 423 414 394 384 389 383 411 425
164 207 219 233 230 219 216 202 208 209 189 248 180 176 186 169 202 159 215 203 198 222 201 198 212 224 288 441 437 425 342 366 385 381 414 419 401 390 380 379 386 426 430
246 244 212 214 206 202 208 210 162 171 175 153 135 200 175 185 206 183 192 212 198 198 235 233 267 307 442 431 428 342 371 384 389 424 392 414 397 374 378 376 418 427 440
218 215 200 204 194 202 135 128 175 211 207 195 190 194 204 192 201 191 202 196 232 236 255 281 314 447 432 431 354 401 379 383 436 400 378 408 396 368 370 412 431 518 553
202 154 194 133 115 158 176 207 132 169 185 148 187 189 191 191 188 198 223 223 243 258 285 327 364 439 433 424 405 383 388 449 421 384 412 411 369 369 413 435 533 419 395
178 141 118 154 173 207 198 155 133 186 203 181 189 204 199 192 186 201 217 209 263 287 348 333 436 434 429 410 388 380 414 429 411 375 415 357 363 399 432 434 366 339 335
159 157 182 204 196 191 128 199 186 194 181 186 193 189 187 211 154 225 239 270 291 399 432 428 423 422 408 393 371 378 429 417 444 421 365 442 398 441 367 336 340 334 315

GFSMW_2pvu_pres_024.txt.gz
Presure
197 99 131 223 218 216 126 125 126 126 135 168 177 170 164 175 155 181 176 150 135 158 97 87 157 154 172 170 169 168 166 172 164 158 134 175 148 159 152 150 151 164 166
100 122 103 240 178 188 187 124 128 144 148 136 170 177 162 165 150 123 129 127 130 132 109 178 167 177 173 171 170 164 152 149 164 168 173 185 183 179 145 143 163 167 169
144 113 193 156 216 184 218 212 95 90 125 119 143 166 164 109 159 127 120 124 159 171 153 175 154 169 164 153 161 154 163 151 159 160 179 155 157 154 151 169 166 164 159
121 190 187 180 218 202 142 206 95 92 157 91 95 103 168 172 108 153 152 162 170 170 167 136 164 173 170 166 161 174 153 163 181 152 167 168 192 170 162 169 166 169 176
175 155 198 103 181 224 213 101 204 94 95 103 128 159 163 167 166 161 155 153 165 168 167 167 123 161 178 158 167 153 145 167 161 157 164 178 175 164 199 167 197 187 172
184 173 185 188 194 167 211 213 107 200 199 190 184 170 175 175 174 171 157 157 153 170 157 162 165 173 150 164 174 152 192 181 199 198 182 189 192 138 193 192 132 136 110
144 99 166 183 128 171 189 195 195 201 195 194 189 186 179 178 124 169 174 173 173 164 120 166 154 190 187 195 204 203 194 189 177 193 210 186 210 129 140 152 135 230 201
169 142 183 83 184 182 184 186 186 190 193 195 197 198 198 183 158 135 183 171 165 181 158 201 183 160 191 198 188 180 162 172 181 204 210 176 124 195 119 207 238 195 229
169 175 167 188 151 152 165 184 183 182 183 183 187 188 190 191 191 191 148 193 154 191 195 183 192 188 198 197 183 193 176 201 213 205 195 157 163 151 218 224 121 198 231
151 141 166 125 120 165 177 188 186 186 183 182 181 183 182 186 185 182 183 185 185 179 189 168 197 209 184 154 177 193 166 208 193 214 217 142 157 191 175 227 219 221 227
168 96 168 168 178 171 166 169 165 173 178 181 183 184 175 183 185 181 182 178 195 187 215 159 160 153 149 194 134 206 127 212 192 140 152 196 209 216 210 223 227 225 230
158 178 169 175 165 176 177 167 177 177 183 168 176 178 180 173 173 182 139 143 190 185 161 191 148 123 219 212 212 208 230 165 195 206 138 206 214 214 228 233 213 236 250
177 167 169 178 187 156 182 187 177 174 173 172 170 183 191 180 186 186 196 192 203 221 157 106 225 150 212 216 224 150 122 211 213 203 212 202 231 228 221 237 237 459 444
190 188 182 160 162 156 173 178 181 181 198 188 161 192 170 180 202 190 200 217 234 226 158 211 218 207 183 157 143 222 213 205 209 216 207 242 241 238 240 300 448 400 374
188 179 188 169 175 189 169 182 186 193 191 192 151 149 199 198 202 212 227 235 219 223 221 203 222 227 143 175 207 206 205 216 204 230 228 243 242 406 385 439 418 400 466
182 174 191 184 182 180 186 165 188 188 142 136 143 193 197 211 226 229 210 224 212 214 224 230 161 127 203 168 210 212 188 218 214 228 230 266 457 445 432 410 396 444 431
185 174 194 194 181 181 190 177 164 191 189 199 195 176 211 227 230 226 217 213 225 244 182 148 204 207 204 218 214 199 216 234 228 234 383 455 439 424 409 409 444 419 413
187 173 193 162 148 165 153 168 181 174 195 202 210 220 231 226 223 184 183 225 165 170 198 155 198 215 211 206 207 216 225 237 239 456 453 440 422 403 407 449 424 424 397
201 199 127 134 140 156 195 184 189 203 205 204 227 233 212 151 134 219 180 202 210 208 198 203 199 219 201 218 221 232 242 243 447 450 437 416 396 391 445 423 431 417 376
133 218 185 182 191 195 195 201 203 223 161 233 190 149 181 218 190 189 199 198 172 191 203 190 204 199 126 214 229 242 316 456 387 434 370 389 384 439 419 402 437 374 381
184 172 177 190 195 201 200 235 228 150 207 185 191 219 205 160 141 193 207 174 198 212 194 203 162 197 225 239 258 445 445 389 441 418 389 378 443 425 413 434 373 391 431
189 193 197 223 240 229 226 220 194 176 126 212 226 193 167 133 197 188 181 204 193 191 174 197 201 229 239 368 456 443 430 433 418 392 369 443 433 453 421 380 391 435 538
243 244 236 227 221 216 148 220 133 184 219 214 198 143 131 191 192 194 202 191 194 127 216 225 233 272 416 458 441 393 376 415 395 367 444 431 466 425 381 429 444 409 388
234 220 214 214 192 157 168 164 186 230 204 203 181 186 184 190 203 194 192 198 212 143 228 236 288 424 462 441 375 434 417 395 369 448 428 441 463 407 428 442 383 345 337
213 198 187 175 231 156 231 223 201 205 200 173 179 193 188 201 195 178 205 187 221 229 285 369 444 460 417 369 435 423 397 367 447 431 417 459 452 422 420 350 334 339 324
189 161 198 196 228 206 201 206 205 174 172 181 199 200 200 194 208 212 157 219 262 354 412 450 447 373 415 429 417 395 364 451 432 403 464 437 425 395 341 356 390 391 391

GFSMW_2pvu_pres_027.txt.gz
Presure
97 206 94 100 184 201 148 226 129 219 214 127 131 194 141 132 139 168 172 168 174 185 174 120 125 134 173 134 179 142 172 159 173 169 177 164 153 148 149 149 161 159 157
120 199 128 192 192 166 184 90 128 212 214 192 173 132 172 152 95 120 104 107 108 165 163 159 175 175 174 171 161 163 151 168 153 159 150 155 152 176 175 150 173 171 165
105 152 199 168 182 139 208 102 168 214 117 214 93 90 91 180 113 111 176 173 164 174 161 156 164 132 165 169 166 171 173 169 170 168 138 144 160 159 178 166 172 164 173
190 185 183 184 177 177 186 209 160 202 104 208 95 158 169 160 173 175 180 148 167 170 173 154 161 158 153 155 153 173 161 163 166 152 175 164 170 162 181 193 168 131 188
181 202 173 195 182 191 201 186 201 221 220 208 203 134 96 202 195 189 186 181 169 175 175 179 177 172 174 173 171 173 168 160 147 202 163 178 165 192 164 195 189 163 169
180 169 184 180 145 183 174 120 172 163 199 202 197 91 202 200 198 203 190 180 184 186 183 172 161 145 180 186 191 157 149 164 192 186 150 166 207 205 199 211 181 211 212
175 169 181 175 179 159 171 128 116 146 188 189 144 193 192 193 194 200 200 198 198 195 194 195 195 192 193 197 190 163 193 190 205 185 205 192 160 210 214 220 139 188 213
193 186 179 175 165 94 169 84 174 180 158 167 188 190 188 185 188 190 187 187 187 187 186 192 192 192 190 179 181 194 142 198 222 224 185 142 207 221 206 220 212 239 228
172 159 200 98 102 171 173 167 166 163 82 179 178 190 191 187 189 190 191 191 191 187 182 187 189 185 135 193 184 186 206 197 221 174 215 219 213 219 200 194 219 218 235
185 181 165 89 100 159 124 136 178 166 187 185 179 182 175 177 177 178 188 182 180 183 190 134 159 151 195 183 233 109 148 219 216 214 221 216 226 142 200 192 173 169 213
184 178 171 170 160 175 170 156 167 174 178 165 175 177 178 177 168 178 179 176 162 135 187 181 171 197 209 237 227 178 215 199 215 207 229 175 208 216 155 214 215 212 224
166 181 175 193 162 181 168 163 171 198 162 156 171 187 197 191 190 176 197 198 191 174 177 197 210 213 237 222 227 200 205 225 226 212 123 200 189 217 213 218 224 235 244
163 177 191 180 192 190 180 175 176 178 178 177 173 180 171 180 188 190 154 178 192 183 202 204 225 239 220 170 211 224 225 197 202 155 172 170 201 205 214 216 243 252 262
190 172 188 188 174 172 181 190 186 182 179 186 173 183 188 177 163 156 146 190 198 206 211 233 241 223 216 219 233 209 214 187 200 208 203 205 205 225 239 248 252 270 460
179 172 170 171 171 178 184 175 190 179 184 192 190 185 190 193 188 200 192 192 194 208 239 238 224 214 229 199 199 210 199 206 210 204 213 224 230 247 250 257 460 463 444
191 184 171 174 170 178 175 180 190 172 200 200 189 173 195 193 200 197 185 209 220 144 216 214 217 232 193 208 195 208 204 186 211 218 226 234 249 251 267 459 452 435 414
179 162 172 165 171 175 192 191 195 192 137 134 197 200 183 194 198 206 233 205 228 217 212 221 199 158 195 199 202 204 188 213 219 226 241 250 255 451 455 402 433 407 383
178 177 180 189 192 194 196 137 129 172 204 220 174 191 171 201 141 216 182 156 225 210 226 161 188 195 201 196 204 206 220 223 234 247 252 411 449 414 441 430 412 384 444
192 196 198 147 184 129 196 133 199 234 200 180 194 185 204 165 164 191 222 173 214 230 197 186 192 203 191 204 212 223 228 241 246 251 456 424 419 435 423 406 391 446 448
201 199 205 241 229 132 227 234 222 170 189 193 197 139 232 126 186 230 206 219 217 211 184 191 202 194 206 125 224 230 241 248 405 450 378 404 425 416 395 428 442 494 413
222 180 132 160 144 228 224 189 193 194 194 218 142 234 160 227 229 220 225 169 206 185 194 193 202 207 183 225 238 243 261 464 404 373 437 417 406 387 416 430 469 490 444
121 181 201 182 202 207 194 194 198 230 191 199 208 164 228 228 225 206 210 194 188 177 191 205 215 183 229 240 241 458 397 379 417 430 412 394 375 450 424 469 469 427 405
213 187 190 190 196 194 202 232 211 142 166 157 226 236 220 206 210 204 188 184 193 197 212 216 225 232 239 295 387 387 392 434 421 408 383 366 445 417 481 447 412 393 333
202 138 197 194 234 232 220 136 153 229 234 233 217 203 181 201 192 190 188 200 203 214 222 227 239 273 400 399 455 448 433 416 402 376 379 440 412 462 428 397 364 328 332
177 236 216 227 230 229 174 237 223 202 185 205 193 201 184 194 184 201 170 202 216 219 232 344 478 441 359 455 442 429 415 393 368 473 440 409 442 405 386 329 400 407 356
231 228 232 233 196 166 230 221 190 204 195 183 196 195 201 146 196 207 199 218 219 230 312 367 441 433 453 437 422 403 378 397 470 436 412 437 388 385 340 377 349 339 322

GFSMW_2pvu_pres_030.txt.gz
Presure
92 136 95 92 98 150 114 97 99 192 201 227 135 124 207 214 91 91 91 184 94 95 98 104 106 104 105 129 175 162 156 174 178 165 169 176 159 169 169 171 164 169 151
89 125 101 96 100 169 130 209 111 187 198 181 92 173 213 185 205 93 98 111 145 117 183 172 182 167 173 174 169 162 149 155 157 147 144 153 172 169 152 158 138 156 162
190 191 152 103 167 199 172 98 123 184 193 209 159 200 222 111 208 166 159 97 163 177 176 171 171 176 177 175 169 169 162 177 142 176 160 167 169 167 145 170 167 148 202
112 201 202 196 166 195 94 172 184 186 200 183 215 220 214 214 199 198 106 176 208 182 201 198 191 190 184 181 184 186 188 171 137 182 180 199 205 132 188 183 181 184 189
201 196 188 101 195 192 192 182 180 186 183 176 179 129 199 122 100 198 195 197 197 197 187 184 191 195 195 197 202 201 200 196 198 195 190 186 138 196 196 134 189 189 201
195 173 191 188 189 198 182 183 177 182 181 176 162 179 189 189 188 121 195 194 193 193 194 192 193 192 192 191 191 190 188 194 197 196 195 174 177 191 188 187 208 240 193
173 192 189 186 180 199 176 180 178 176 179 172 80 168 166 116 180 181 176 183 178 187 190 191 189 190 195 195 193 189 186 188 187 186 185 180 188 213 242 244 233 226 224
197 188 189 176 179 175 185 186 178 165 89 165 175 167 180 174 176 169 187 178 174 182 179 176 188 180 182 180 178 179 182 168 177 176 191 239 99 230 227 235 234 227 225
173 171 188 141 112 167 170 180 184 178 154 103 169 172 180 176 172 179 171 170 170 174 181 182 188 176 185 176 160 142 191 192 193 205 243 236 226 231 225 228 243 238 195
186 187 177 175 167 183 167 134 165 159 183 125 182 173 119 173 181 170 182 177 181 193 173 189 176 189 161 164 182 207 199 211 234 239 241 222 225 219 231 218 210 136 224
185 183 171 171 171 182 190 181 166 120 161 171 183 180 181 183 178 189 177 181 179 178 181 198 200 158 189 180 211 200 213 235 240 219 228 217 226 224 203 212 211 214 211
164 169 176 170 170 179 178 173 163 163 184 184 180 181 167 180 171 180 169 189 190 194 198 180 169 186 187 204 206 213 241 242 192 221 223 227 205 205 210 203 210 216 221
168 173 186 179 168 183 175 179 165 172 163 168 166 178 178 174 193 178 175 182 202 199 149 203 192 194 206 211 173 169 220 227 216 224 171 204 211 200 206 212 217 225 241
168 174 172 178 175 169 168 163 185 176 176 186 166 175 171 174 177 186 202 155 186 216 196 193 197 206 212 210 170 217 222 216 227 217 214 203 191 211 217 222 245 260 265
172 173 172 175 175 187 194 195 187 183 162 165 172 173 176 172 200 151 197 227 239 193 195 204 211 207 149 220 234 209 223 218 209 216 190 202 215 221 238 261 264 289 409
183 179 180 180 183 191 191 190 191 187 180 171 170 190 199 206 176 226 243 221 197 220 206 223 147 224 221 185 222 227 205 219 206 180 209 215 229 259 262 352 411 399 447
171 177 179 182 183 181 176 172 172 172 175 192 202 194 208 244 162 236 220 197 211 219 144 148 215 193 224 228 212 210 217 202 203 210 225 252 261 304 469 450 455 440 412
176 178 180 174 172 180 189 190 191 196 202 208 162 129 253 235 214 186 212 208 220 171 205 235 228 227 210 211 217 203 203 206 217 247 251 264 375 463 454 451 437 407 379
183 182 184 188 189 189 191 197 186 183 195 134 228 238 232 198 241 206 157 158 200 226 232 224 211 207 212 197 200 209 206 232 247 254 332 464 456 451 438 424 404 380 441
186 188 190 192 196 198 202 206 241 130 224 228 230 225 246 203 236 144 236 226 233 231 214 204 204 202 194 204 202 218 244 251 304 313 459 447 439 424 402 384 476 437 487
192 189 195 201 140 116 144 179 243 234 235 223 205 205 183 144 151 204 233 234 215 211 207 206 195 196 204 206 235 245 263 397 361 461 447 429 405 385 484 455 434 447 415
198 203 166 202 251 207 225 235 229 223 206 203 212 158 141 217 182 235 222 209 202 204 198 193 190 203 220 236 246 414 473 442 453 442 413 388 427 470 438 441 423 399 391
202 130 128 125 235 233 227 131 159 203 244 241 235 174 223 235 222 211 201 196 202 193 199 160 200 224 237 461 478 475 461 444 431 396 374 474 452 425 445 405 391 357 323
241 152 199 224 135 207 160 209 242 240 209 226 226 269 261 206 204 205 203 193 191 196 203 212 228 259 491 480 474 454 442 419 387 392 474 442 416 448 393 392 381 379 348
178 215 208 202 205 243 240 235 231 232 181 203 256 209 203 197 199 195 193 197 189 213 217 235 319 498 489 467 446 434 408 483 502 468 435 415 431 391 391 368 351 343 327
197 198 227 237 235 231 191 145 177 265 248 210 197 196 195 192 192 193 206 203 213 221 273 340 355 489 459 443 425 399 501 481 453 431 418 426 383 382 349 342 336 315 310

GFSMW_2pvu_pres_033.txt.gz
Presure
109 147 90 113 109 106 91 91 103 103 99 175 106 103 188 198 170 228 212 206 209 206 90 104 97 166 174 170 172 188 185 182 169 166 158 160 156 159 155 134 135 160 155
91 192 108 117 88 96 91 99 195 120 100 172 200 203 190 205 190 194 163 217 200 202 202 200 184 110 196 185 186 179 177 173 170 183 180 176 186 169 169 151 190 203 181
207 179 153 87 146 172 197 149 101 140 181 167 163 177 157 191 217 220 209 214 214 129 83 195 147 196 201 202 200 201 200 200 200 200 200 198 202 199 197 199 199 199 197
83 124 118 121 105 212 185 187 201 196 186 191 194 107 184 179 185 185 108 200 202 196 195 118 194 194 196 195 194 192 191 193 196 196 198 198 191 189 187 186 191 195 192
95 97 91 186 194 200 200 201 201 193 200 180 185 194 187 180 145 91 91 184 176 177 104 178 178 185 182 183 184 179 179 182 186 180 187 188 187 182 179 174 178 184 177
195 202 194 198 199 199 199 197 182 193 167 189 183 178 182 150 150 180 171 168 184 167 181 185 168 172 173 170 173 178 180 188 189 189 183 186 182 194 200 206 213 216 183
204 205 200 195 199 199 182 173 193 193 187 176 108 181 174 134 181 150 173 107 176 183 177 177 162 179 180 172 191 183 175 174 185 192 180 181 187 200 210 217 202 202 168
204 205 196 196 198 172 196 191 98 186 174 185 183 188 184 160 182 139 180 178 173 179 179 182 186 192 179 179 183 185 188 195 202 221 224 201 193 218 202 227 256 265 262
207 201 194 198 180 194 189 185 184 167 178 171 193 89 172 157 117 169 180 183 182 176 173 191 189 167 180 173 198 205 218 222 206 196 149 201 218 221 255 243 172 238 243
204 199 196 200 199 187 161 182 179 175 166 198 177 194 146 173 170 181 187 175 176 169 197 187 175 183 175 188 205 208 230 199 156 202 211 229 247 155 206 224 247 236 215
205 202 202 201 190 190 183 181 171 168 173 178 196 198 182 179 164 178 170 191 176 178 186 181 182 179 208 225 245 186 176 207 212 235 237 149 216 225 246 236 215 215 222
199 202 191 181 192 186 179 173 172 175 179 172 177 173 170 170 180 178 176 178 197 173 197 179 201 243 233 149 236 203 214 220 215 164 234 227 241 142 236 220 222 216 212
198 191 197 191 186 177 174 177 178 178 178 173 172 171 180 183 203 202 197 178 166 187 197 229 237 236 195 205 207 215 226 140 168 229 241 251 146 219 225 216 215 219 214
205 196 187 195 176 175 175 179 178 179 180 171 172 187 189 187 190 195 196 195 197 207 246 199 248 198 206 217 223 203 184 216 239 241 222 219 220 216 217 217 214 215 269
188 186 177 178 174 179 174 174 177 173 176 185 189 193 190 181 174 187 197 205 214 143 256 194 226 212 216 247 146 209 235 242 216 221 215 174 216 210 210 227 268 492 483
194 180 177 176 176 177 184 185 173 182 181 187 172 172 171 194 196 203 211 249 135 152 233 223 209 248 249 139 228 247 225 217 213 214 213 208 213 214 264 492 482 467 450
172 173 174 174 177 171 171 174 173 180 173 175 189 193 194 182 206 223 263 246 236 225 207 223 181 143 228 247 227 214 213 212 202 212 213 218 253 495 487 475 454 425 399
172 177 178 178 178 178 184 175 181 186 189 189 194 196 205 201 169 179 237 225 209 224 198 142 174 246 231 216 191 211 210 201 212 221 246 442 494 478 461 439 411 392 484
180 181 181 182 185 178 184 187 184 185 193 194 202 199 139 232 233 231 209 206 215 142 142 236 240 207 211 208 210 208 175 212 234 363 496 478 465 447 423 406 510 468 431
174 177 184 184 187 178 183 186 192 192 193 192 225 254 237 233 234 204 247 158 142 233 240 216 210 202 204 206 202 215 221 257 507 485 470 450 433 557 516 490 453 461 423
181 181 182 181 184 186 192 192 195 189 209 251 228 174 238 199 221 243 197 236 243 250 212 197 199 195 202 195 223 234 295 496 478 464 440 537 521 495 472 436 447 405 411
184 188 186 176 191 197 180 197 127 128 133 171 231 202 227 242 228 147 214 260 213 201 184 200 197 192 223 227 242 303 492 470 453 429 509 496 479 458 431 425 396 413 375
190 185 197 197 198 199 208 192 244 229 224 199 205 240 229 240 150 262 218 202 192 199 194 193 192 213 224 257 337 495 472 444 420 498 471 458 443 433 408 397 401 362 354
198 173 124 194 128 249 241 234 228 195 205 224 141 168 179 262 227 206 205 200 196 192 192 195 217 239 270 310 502 474 444 421 501 462 549 540 440 402 393 376 356 345 329
203 202 214 131 243 231 217 194 203 232 135 134 224 257 225 208 203 198 180 192 190 202 212 217 249 300 302 505 477 444 448 497 466 519 473 444 393 377 358 348 324 318 311
236 220 197 225 206 196 203 249 217 136 135 268 225 212 204 183 195 177 187 187 203 196 228 251 297 307 455 476 442 412 444 471 464 436 398 380 374 352 350 326 323 307 316

GFSMW_2pvu_pres_036.txt.gz
Presure
194 146 103 106 113 109 111 104 108 95 110 92 102 100 198 102 105 105 90 108 205 215 207 204 216 211 199 88 196 198 103 203 202 202 204 202 204 204 205 204 203 199 198
188 160 93 87 97 100 97 93 86 133 89 102 99 169 103 182 108 99 202 180 198 218 220 215 107 211 206 204 202 116 93 198 197 193 190 189 193 195 195 195 195 192 195
199 171 141 161 101 110 100 96 108 118 170 176 148 178 186 200 191 199 191 194 166 192 189 140 191 188 181 175 184 144 188 191 184 188 179 177 179 179 186 182 190 190 192
131 146 187 170 157 180 82 204 205 126 202 198 199 170 185 195 198 197 193 184 183 179 183 88 176 159 171 161 178 185 170 173 183 168 167 180 178 176 173 173 182 180 178
118 179 102 180 179 100 180 201 202 189 195 193 184 192 201 202 192 191 192 185 188 183 183 177 174 180 162 127 171 167 181 178 180 178 181 166 178 184 172 177 177 184 186
188 181 165 184 187 198 124 97 100 106 106 188 201 202 194 196 183 190 185 179 185 182 177 189 182 175 179 178 180 183 180 194 191 170 182 174 182 192 190 195 210 206 195
191 184 183 152 150 103 104 193 196 200 199 203 202 184 142 188 188 176 186 192 184 135 184 159 190 180 182 187 172 186 181 184 187 182 182 185 195 215 242 241 253 227 197
191 179 181 182 178 190 199 198 197 198 200 196 184 192 176 189 189 190 142 180 175 194 168 182 172 184 166 181 179 171 169 176 182 188 254 240 259 251 230 208 202 225 266
182 179 188 188 188 199 204 201 196 200 181 190 192 182 184 198 177 180 185 96 185 176 85 174 184 176 184 175 185 180 191 183 253 257 259 243 195 220 223 237 152 246 145
181 186 182 183 186 202 201 194 200 184 196 191 192 183 184 181 171 182 169 179 173 172 177 176 174 200 201 204 191 211 226 269 258 246 198 216 223 254 157 190 152 202 269
190 177 182 189 199 206 199 188 198 194 194 193 191 182 178 176 181 172 172 177 172 173 184 195 191 190 196 196 213 274 264 245 153 222 220 256 258 141 205 256 246 230 218
182 187 184 198 204 203 197 197 196 194 189 192 184 181 178 176 179 182 180 179 179 193 195 182 175 196 207 236 268 246 156 223 219 248 246 155 133 259 242 226 227 195 217
179 178 185 199 201 202 201 201 195 192 195 182 180 180 181 181 179 176 179 187 186 180 182 194 199 214 266 146 196 221 215 236 252 226 188 252 236 223 220 211 215 220 217
179 182 195 201 202 198 198 196 189 191 179 181 178 178 179 179 180 185 180 173 182 192 195 204 219 237 242 230 214 235 253 232 147 248 232 218 219 212 217 222 218 236 378
181 194 202 199 199 199 199 200 188 190 177 182 174 181 174 172 173 177 182 190 193 158 188 154 158 233 220 226 254 181 143 253 243 216 208 214 214 221 229 236 413 483 474
191 196 197 198 199 200 191 195 179 184 177 185 175 172 173 185 183 184 190 196 198 201 265 243 229 208 255 247 142 257 257 222 206 212 207 214 217 219 280 490 471 456 589
194 193 200 198 193 190 192 172 173 181 181 174 173 186 181 184 185 192 190 200 166 182 228 217 226 220 160 265 262 222 205 210 202 212 218 217 261 335 482 459 529 546 518
198 197 197 200 185 173 178 180 181 180 175 185 182 183 181 191 190 158 200 185 242 187 206 205 245 245 266 173 207 205 212 201 210 219 225 283 406 471 452 526 515 489 457
195 191 183 177 179 181 180 181 181 181 183 184 184 181 189 195 146 200 245 233 222 211 246 223 273 239 193 206 211 156 201 171 224 257 297 457 463 495 511 495 474 437 429
182 174 178 180 179 180 176 182 185 182 183 173 183 125 133 144 169 245 198 206 250 246 276 247 219 205 204 204 174 204 220 217 264 314 375 453 484 500 481 456 432 417 405
181 182 178 174 182 185 182 181 185 170 165 128 162 198 196 258 222 232 213 189 141 262 222 209 197 205 202 200 206 221 252 269 314 325 450 497 492 496 551 436 408 411 400
183 182 186 186 180 162 183 181 189 191 188 196 201 193 243 227 215 192 199 167 240 213 186 194 200 197 197 208 217 249 266 311 324 446 457 491 473 479 430 398 408 379 351
183 182 183 123 182 185 183 126 195 191 203 208 248 230 209 213 150 212 243 217 207 171 199 197 189 196 206 215 251 264 308 320 447 443 490 455 443 405 393 397 368 349 330
177 182 183 189 190 195 197 190 205 213 252 231 222 209 250 241 224 265 209 164 196 199 197 188 204 207 217 253 290 305 319 452 453 494 463 421 389 390 373 359 345 321 318
186 191 194 131 201 204 223 254 247 228 217 207 236 158 135 279 231 207 201 194 195 198 189 219 210 240 251 303 302 318 394 457 492 476 419 385 394 369 355 333 326 324 311
198 204 206 235 245 243 230 227 209 209 240 211 138 232 258 211 190 186 188 139 196 139 216 216 246 254 302 307 317 403 455 472 482 451 373 387 375 351 324 320 305 312 307

GFSMW_2pvu_pres_039.txt.gz
Presure
221 90 190 190 95 96 104 76 81 96 101 103 107 95 91 86 149 97 96 109 193 162 192 202 178 148 195 165 195 195 193 181 91 180 188 181 186 179 188 188 189 182 174
239 200 167 98 90 96 99 106 97 112 105 82 95 100 91 100 150 141 190 186 188 192 204 189 195 199 191 189 179 123 182 187 160 183 119 176 188 164 172 184 172 175 174
226 225 193 190 139 194 190 202 112 97 81 87 99 110 115 100 121 119 192 187 191 204 186 186 200 190 168 185 176 180 181 173 181 84 174 167 175 179 177 182 190 187 178
223 229 212 195 187 169 175 187 100 86 125 185 84 144 177 199 150 178 124 111 204 186 195 196 192 191 188 180 180 123 154 186 138 179 181 183 172 184 174 178 181 174 180
206 225 99 201 191 179 191 78 189 136 168 180 198 108 195 199 103 109 97 132 188 197 196 191 189 182 171 189 188 180 174 186 170 173 151 178 177 183 190 161 154 179 175
80 94 223 84 161 119 96 123 191 87 183 99 108 104 108 185 200 176 190 190 198 193 189 183 186 126 187 181 174 179 176 180 184 175 164 178 190 161 186 166 192 162 170
213 168 227 202 192 187 191 184 182 174 131 202 141 202 153 157 190 192 194 201 192 192 191 191 187 188 180 170 171 178 175 176 179 190 202 203 196 183 203 261 264 253 233
214 225 184 200 188 187 183 179 174 168 196 193 197 184 184 99 195 199 200 100 91 185 188 182 170 175 181 171 164 172 176 190 196 199 194 183 284 271 253 250 238 200 234
210 222 230 196 185 184 182 183 179 182 179 190 193 198 181 199 200 194 179 194 178 182 176 179 172 182 175 176 181 182 198 194 180 200 233 272 248 245 225 256 267 270 260
211 221 165 192 189 178 188 183 179 188 179 196 201 200 152 198 182 187 193 188 182 178 177 182 185 181 179 183 185 183 181 195 211 228 213 240 224 259 264 256 236 247 249
211 224 208 192 186 183 188 178 185 183 193 206 202 194 198 188 195 193 193 191 180 176 186 182 176 181 187 178 182 193 206 201 262 243 224 251 262 249 227 275 184 153 224
210 223 209 192 183 182 179 184 184 185 209 201 197 183 195 189 199 193 192 180 184 186 181 178 173 178 181 189 195 193 149 263 238 213 261 249 222 157 152 192 220 196 215
225 213 199 185 180 179 185 180 178 201 203 197 193 187 194 200 196 194 176 184 179 178 174 178 180 184 191 199 194 191 264 228 248 258 265 150 166 232 217 221 210 227 225
221 209 196 182 184 187 182 181 196 197 200 197 198 197 200 187 192 175 187 178 175 177 179 183 187 195 191 200 170 251 184 263 263 271 196 231 216 192 213 221 222 239 293
213 202 190 185 187 186 181 181 198 199 199 194 200 191 199 188 182 182 181 175 187 182 186 189 163 191 200 232 245 206 259 240 250 229 215 216 216 208 228 218 276 327 381
202 193 190 183 181 175 179 197 195 195 196 196 199 200 178 176 184 181 174 184 185 186 191 131 197 206 244 195 246 263 206 231 200 206 213 211 214 229 231 281 337 477 509
188 187 182 179 174 182 193 202 198 198 197 195 191 188 180 181 182 181 183 189 186 192 136 203 212 252 221 261 228 242 224 214 211 206 210 187 230 248 287 336 473 502 553
186 180 179 181 182 194 197 200 198 195 196 181 177 182 183 181 181 186 189 148 143 189 203 220 248 211 138 191 238 216 209 207 205 211 224 231 259 306 337 512 499 525 484
181 173 181 182 189 197 198 198 198 198 179 182 182 179 183 183 168 125 175 190 176 211 253 227 142 215 161 224 175 162 165 203 209 221 227 274 313 363 510 499 485 444 416
176 179 186 190 197 196 192 187 178 182 178 177 185 182 186 186 189 192 195 205 222 251 209 251 250 270 217 166 206 197 203 209 215 232 273 313 371 494 498 460 422 405 408
184 188 192 194 191 186 180 181 182 178 184 184 184 185 170 155 193 203 217 258 212 212 253 253 265 211 160 202 201 195 212 214 246 273 311 430 485 499 447 404 397 401 368
188 190 191 184 178 184 183 184 186 184 169 183 127 190 169 203 211 250 236 206 170 144 269 232 207 160 200 190 177 212 217 251 282 309 364 481 500 444 395 390 388 364 342
188 186 186 188 183 182 183 181 186 182 191 188 198 205 207 259 241 208 212 224 193 276 204 208 179 191 197 181 207 213 253 294 307 449 485 495 470 395 395 383 360 351 338
174 181 180 127 180 184 182 185 137 187 195 204 211 254 241 211 229 267 272 279 219 207 201 200 191 195 194 212 212 255 298 309 473 496 488 479 387 397 381 359 351 324 325
176 148 183 185 183 189 190 189 197 204 221 245 235 218 177 292 259 173 238 207 209 207 197 192 198 177 223 217 258 306 324 471 501 521 478 388 365 346 328 320 320 313 315
183 184 189 190 188 191 201 203 233 239 225 221 207 289 268 156 235 205 210 208 206 193 200 197 214 216 237 265 308 323 463 485 557 484 404 355 339 330 325 313 310 294 279

GFSMW_2pvu_pres_042.txt.gz
Presure
283 301 233 234 96 105 119 97 170 92 121 123 199 106 218 105 225 93 84 108 92 90 109 199 117 184 198 190 193 201 182 199 191 185 187 177 85 184 168 186 177 185 167
228 287 255 229 118 132 97 103 122 117 85 104 105 105 100 104 95 102 113 94 94 111 118 151 128 187 110 189 200 193 186 192 182 186 182 136 191 181 190 186 181 179 185
221 177 282 226 227 211 195 106 104 100 96 90 97 105 91 85 95 96 100 106 155 131 206 202 97 119 107 197 197 187 197 182 190 185 81 182 183 179 184 183 180 177 182
124 265 278 277 222 183 83 181 114 101 100 119 110 84 168 99 97 84 116 124 140 102 195 176 188 183 201 194 184 200 182 191 190 98 191 182 175 177 164 175 177 173 181
122 251 265 273 217 231 240 215 200 192 184 191 193 190 200 203 199 190 211 120 102 105 195 197 193 200 190 156 132 186 188 193 192 97 184 189 187 181 171 167 176 186 197
241 247 258 88 235 229 122 230 203 192 163 188 189 158 187 202 191 120 104 198 141 203 191 191 193 187 157 197 183 195 191 190 185 174 185 181 173 171 175 187 197 180 192
250 242 233 154 159 84 224 146 217 194 193 91 137 187 98 101 118 183 209 202 195 101 189 193 192 194 199 178 194 193 184 177 181 171 184 183 187 193 193 196 211 212 247
251 239 249 241 246 104 223 80 94 191 195 164 182 189 177 185 168 204 201 194 183 189 195 194 195 98 170 194 176 182 179 186 183 188 184 191 189 197 205 219 162 237 222
255 253 198 264 243 104 135 227 217 199 192 172 190 189 183 170 186 173 191 190 193 193 195 194 192 176 192 192 183 182 176 191 184 186 186 195 198 205 222 275 221 233 284
151 158 251 267 236 221 228 225 212 196 188 182 188 175 175 178 183 176 191 195 149 193 195 179 199 195 193 191 189 189 185 182 185 190 166 201 200 226 265 212 275 278 254
246 248 251 275 231 215 224 222 208 199 185 183 179 183 178 181 177 191 197 193 194 193 198 199 198 196 192 183 181 182 183 187 192 197 194 213 228 260 164 283 262 244 237
254 247 267 255 226 212 227 216 203 193 183 172 175 180 175 182 184 189 200 198 183 200 200 204 199 185 188 175 182 189 188 193 195 198 214 212 251 255 284 213 241 225 207
283 283 302 237 220 224 223 211 194 191 184 178 185 177 179 177 194 201 199 196 199 201 201 194 189 185 181 181 185 191 193 194 205 214 241 228 253 276 191 219 218 214 213
209 282 246 225 216 225 216 209 194 183 174 175 175 180 173 198 199 201 197 200 198 200 200 182 182 183 184 187 191 191 201 209 221 252 213 149 276 238 199 213 189 169 236
278 252 228 220 219 215 208 200 188 177 175 175 180 176 184 195 198 198 196 199 203 183 178 180 186 184 190 140 141 200 208 228 255 169 167 265 229 177 202 214 230 238 256
245 229 225 221 215 211 201 187 175 175 180 182 174 182 173 195 195 200 202 198 187 180 184 184 186 141 191 189 202 215 240 165 151 275 234 200 164 214 218 227 243 278 348
227 228 225 215 211 199 191 182 176 179 180 176 175 196 195 200 199 198 200 178 185 183 187 184 168 189 191 206 228 249 208 221 284 228 171 169 159 164 234 246 284 386 505
230 226 214 207 199 190 185 182 180 177 173 178 192 201 202 200 200 188 183 182 184 187 190 191 191 202 215 251 227 234 279 250 216 189 189 198 217 240 243 300 483 510 463
218 209 200 195 189 188 182 180 180 175 180 191 198 201 201 190 182 176 182 191 143 188 192 199 211 232 252 181 273 288 231 209 184 200 214 193 232 254 321 513 517 457 407
201 197 190 186 184 180 179 174 178 180 186 200 196 191 182 187 177 174 186 133 192 198 210 227 264 212 145 293 268 226 203 163 204 205 221 230 261 339 528 513 461 401 405
196 190 187 184 180 179 174 177 181 191 193 192 183 186 183 187 187 162 192 189 208 221 258 212 272 270 272 235 216 193 202 209 212 216 235 271 455 577 503 444 396 407 379
187 183 179 176 170 177 182 188 192 192 182 189 183 184 188 191 191 191 202 211 249 236 209 206 266 251 230 210 205 200 209 211 217 237 301 449 547 505 473 389 402 362 348
182 178 178 179 182 188 190 187 176 187 184 184 186 134 192 190 200 210 244 251 211 292 267 255 234 200 209 198 202 205 206 217 233 301 476 531 504 480 387 359 343 328 331
177 180 182 181 182 184 172 185 183 148 138 191 192 186 199 211 235 253 120 210 269 283 260 216 215 202 194 204 201 205 217 231 316 486 513 505 473 388 355 340 330 323 304
179 178 174 186 153 178 183 184 184 191 193 190 198 210 231 243 176 202 199 263 276 248 210 201 203 195 201 203 205 217 243 310 491 507 515 457 385 350 338 330 323 303 301
181 179 154 182 183 184 187 192 190 191 198 207 228 238 224 201 188 258 270 276 237 215 204 201 200 204 211 205 218 260 304 483 575 539 445 381 350 334 321 312 304 297 299

GFSMW_2pvu_pres_045.txt.gz
Presure
228 202 191 106 299 297 154 240 106 216 83 105 100 200 136 83 84 99 88 128 235 125 110 95 115 83 111 144 116 114 190 201 110 125 193 203 193 195 194 192 188 186 187
231 228 191 204 208 222 290 101 106 95 214 235 128 141 104 105 124 159 108 105 91 89 88 96 94 110 111 97 111 107 191 162 194 189 190 199 188 198 192 139 197 191 194
224 231 222 222 212 256 285 291 185 201 102 114 85 116 140 182 96 95 99 84 87 104 85 110 115 117 108 102 186 108 195 197 190 149 193 190 199 193 193 168 194 193 177
221 226 234 221 212 239 274 285 275 215 204 110 102 112 110 102 103 98 86 112 203 115 189 206 206 176 106 111 193 198 195 196 199 193 192 199 188 195 188 190 187 179 183
208 227 230 232 209 76 276 276 283 232 226 230 84 162 194 103 95 95 182 170 198 207 202 193 143 200 201 191 196 201 194 191 193 193 199 190 195 192 189 178 170 176 178
228 224 224 219 198 212 259 279 277 192 223 226 148 222 208 126 189 161 191 190 192 194 102 96 181 202 207 203 145 197 192 195 195 196 174 193 192 182 184 172 172 174 179
234 224 214 210 126 219 262 262 273 211 206 223 234 231 205 195 188 190 145 188 180 172 103 181 212 204 194 100 191 193 197 197 194 188 190 194 192 181 188 180 187 181 175
229 225 212 206 89 219 252 268 266 254 225 81 236 233 208 193 189 177 179 184 177 188 186 175 201 176 189 194 196 195 199 177 192 197 199 194 193 189 183 183 137 187 196
126 174 211 215 214 217 244 261 246 151 83 217 220 93 109 181 190 190 176 184 187 180 179 185 190 184 193 195 196 196 199 191 199 199 198 191 177 183 184 190 198 202 208
225 230 232 228 219 243 249 261 273 237 221 144 232 224 212 196 193 188 172 191 182 181 178 183 178 191 196 196 194 191 199 201 207 204 192 183 185 187 192 200 205 215 238
149 230 217 215 225 255 245 256 270 231 221 223 227 217 207 197 192 185 184 176 182 178 182 178 191 190 201 201 196 197 203 209 198 185 185 191 189 197 187 206 224 279 173
421 281 85 228 229 262 247 255 256 226 219 221 223 213 202 194 187 182 180 175 180 177 184 184 199 200 200 197 202 202 206 183 183 189 191 139 200 204 215 233 257 157 292
369 284 258 239 250 241 252 270 238 223 221 228 217 209 203 191 184 180 172 186 177 177 180 182 200 202 199 201 205 197 182 188 190 191 156 196 204 222 242 217 264 260 237
291 191 258 258 250 248 250 266 227 220 215 224 214 203 195 188 182 181 185 175 179 178 183 193 199 201 203 205 186 186 187 177 194 197 201 213 239 268 200 293 236 229 212
273 258 216 244 252 245 264 236 222 213 226 217 206 196 191 183 177 175 171 181 178 183 193 198 199 205 202 184 186 185 132 194 199 206 225 267 224 298 273 230 220 185 212
264 250 241 244 245 255 258 222 212 224 214 205 196 190 184 179 175 176 180 181 180 197 200 203 203 197 184 183 193 193 194 196 217 260 213 298 289 206 224 218 173 226 233
262 262 250 258 266 291 221 210 222 211 202 200 191 186 178 175 178 180 176 180 198 201 203 201 186 180 172 193 191 197 202 244 255 236 285 252 229 213 221 200 224 230 250
279 283 286 293 230 211 212 215 210 201 200 192 185 177 175 179 178 179 182 194 201 200 191 164 188 192 161 193 203 232 262 213 284 271 234 214 217 214 220 211 232 265 512
267 277 231 210 206 218 211 209 202 200 191 186 180 180 176 179 181 183 195 200 193 185 189 126 186 193 192 222 249 221 225 291 258 218 207 214 206 231 223 235 468 517 480
213 214 220 220 209 209 203 201 198 189 185 183 180 181 175 183 186 193 194 189 184 185 191 193 197 213 236 259 213 278 289 254 197 213 210 211 225 227 240 541 522 478 399
221 214 210 209 204 200 199 190 186 181 173 175 177 183 185 188 194 191 185 166 190 192 197 206 231 257 218 248 278 286 229 206 205 207 213 218 229 245 572 514 453 387 369
210 208 203 198 199 192 185 182 180 180 181 183 183 185 192 189 184 186 188 191 198 203 225 244 147 237 276 284 277 214 210 204 207 213 221 231 248 569 503 429 384 360 342
203 199 196 195 185 185 179 177 180 179 180 186 189 186 182 184 186 188 197 201 218 227 250 206 261 281 298 235 214 206 204 203 212 221 228 389 563 488 414 380 355 340 329
202 198 188 182 181 181 180 177 182 185 183 184 181 183 184 185 195 200 211 227 249 204 220 268 272 272 224 209 204 200 204 206 214 229 268 567 475 408 376 353 342 328 319
186 183 182 181 179 180 183 181 149 186 184 181 184 186 194 198 207 229 246 224 214 260 265 271 256 212 203 201 187 204 204 216 231 311 574 466 407 370 351 340 332 319 308
181 179 179 180 178 161 138 184 182 182 183 186 195 196 204 222 245 233 162 215 226 297 272 232 206 205 196 205 208 205 218 235 311 561 463 410 365 346 334 324 315 307 305

GFSMW_2pvu_pres_048.txt.gz
Presure
194 192 237 234 238 226 215 90 83 222 224 235 231 128 96 198 87 201 92 83 162 106 97 95 127 128 98 83 94 95 103 115 109 98 107 153 195 188 197 193 194 186 198
194 201 193 237 237 232 224 226 217 216 207 95 240 224 84 87 153 178 121 123 84 172 135 175 119 90 93 96 110 105 114 195 103 106 205 202 194 192 193 152 195 197 192
197 197 219 222 236 160 233 229 233 211 193 267 269 98 215 124 217 225 100 194 113 150 97 102 96 84 94 122 196 211 205 202 203 203 174 187 189 194 197 191 194 194 200
221 222 220 229 224 227 237 234 103 221 204 215 177 116 103 107 115 221 143 100 89 137 102 95 84 112 140 181 210 210 118 138 194 193 191 195 201 192 191 194 200 201 200
212 221 226 228 230 217 220 226 225 237 225 223 220 107 113 107 159 109 103 85 147 173 96 92 95 189 197 200 141 100 120 181 78 202 202 196 195 192 193 195 199 192 194
242 238 241 233 230 130 218 211 221 206 230 210 231 294 271 240 227 134 225 209 210 154 162 154 182 189 190 184 200 194 177 209 175 175 199 196 193 197 200 197 195 189 196
242 234 232 238 230 224 229 88 207 187 185 230 219 263 178 216 226 224 226 229 210 196 194 185 186 187 191 180 194 187 172 188 203 184 195 197 200 198 195 199 197 200 202
248 245 218 224 233 220 135 229 204 222 226 218 200 281 102 87 153 147 226 226 212 202 193 190 190 183 184 188 186 181 181 186 185 184 195 198 198 198 196 199 204 208 194
290 261 251 241 236 229 223 231 227 197 190 115 209 279 265 244 229 135 220 219 201 207 195 191 189 185 181 190 183 174 184 191 182 191 198 203 201 199 201 205 212 180 188
272 269 294 288 240 243 237 227 224 222 214 198 213 277 240 219 112 155 93 219 211 204 192 189 188 174 186 183 186 177 187 181 184 197 202 201 202 204 210 191 186 190 154
315 244 278 281 288 264 237 228 223 220 218 209 229 266 250 235 225 214 226 217 213 205 192 190 191 180 183 182 179 181 182 183 198 200 203 205 207 210 186 190 192 197 201
284 322 274 141 236 266 242 227 213 230 219 196 245 267 242 230 219 226 223 217 209 203 192 195 186 182 173 185 180 183 184 191 201 203 203 211 192 189 147 198 197 201 240
347 273 149 133 266 191 85 118 97 222 199 228 243 262 236 225 214 218 223 212 211 198 193 188 181 185 182 187 181 188 189 201 203 207 208 188 178 198 195 200 210 250 225
330 328 170 333 250 249 212 215 204 221 206 230 241 259 228 218 216 218 210 212 204 196 191 185 182 180 186 182 183 190 202 207 211 197 183 194 197 196 204 259 236 262 275
304 82 342 190 265 234 224 217 214 215 233 245 247 239 222 211 212 209 212 207 200 194 187 180 178 183 184 182 191 203 204 203 186 193 196 194 200 236 232 223 297 254 241
338 235 364 352 247 240 225 218 214 219 238 246 260 227 208 210 206 209 208 200 193 188 179 181 183 183 182 191 201 205 186 191 190 192 195 211 270 219 284 280 241 230 224
279 283 281 272 266 252 230 223 214 238 247 255 230 207 207 212 208 205 201 190 188 183 180 182 181 185 193 204 194 189 191 190 192 204 272 214 291 290 250 232 216 225 218
256 258 254 249 248 242 228 242 244 241 254 230 204 210 208 206 201 199 191 189 182 179 182 182 187 195 198 193 193 190 190 199 241 239 237 311 278 236 224 218 220 222 227
238 240 242 241 244 230 235 240 239 278 209 201 210 207 197 200 197 192 186 180 182 181 184 189 195 196 192 191 186 197 220 142 206 280 316 246 225 224 226 217 220 232 247
268 273 258 241 241 246 255 282 204 202 210 208 203 198 199 194 190 184 182 182 183 183 193 196 189 190 186 196 204 255 226 238 306 274 232 217 224 218 217 221 235 249 440
253 256 259 259 259 238 204 204 211 206 206 200 199 197 190 184 186 183 182 182 190 193 186 192 187 192 203 226 244 211 263 304 268 223 217 217 212 216 221 238 250 422 389
220 210 205 203 203 207 208 207 205 200 199 196 188 183 184 182 180 182 189 191 184 188 188 192 202 218 245 208 239 283 291 253 218 214 216 211 217 224 244 390 417 381 364
204 209 210 207 200 204 203 198 196 194 187 182 183 181 178 180 189 187 185 183 188 191 197 206 229 162 215 255 301 279 229 217 213 209 213 218 226 244 359 412 374 358 347
206 204 205 207 201 196 198 192 183 182 182 180 179 180 186 182 187 183 186 192 194 203 211 231 155 239 250 302 268 238 207 206 211 205 216 227 251 460 406 375 356 345 334
207 208 202 197 197 193 187 184 183 180 180 183 183 182 186 183 185 191 194 202 183 228 176 184 227 260 288 262 240 204 210 207 206 218 229 290 462 401 372 354 343 331 320
205 202 202 196 185 180 179 176 181 160 177 184 185 183 188 191 193 202 215 126 159 206 132 242 289 260 256 239 207 211 195 219 230 229 318 435 398 369 348 337 327 315 306

GFSMW_2pvu_pres_051.txt.gz
Presure
203 210 208 183 209 199 208 89 226 219 234 217 193 226 222 223 95 93 96 190 196 127 199 199 84 94 100 98 88 191 192 82 89 104 108 115 108 212 197 203 198 203 162
172 213 206 206 191 149 182 183 195 219 217 251 122 214 219 218 220 92 246 248 105 91 239 217 87 201 123 100 199 173 115 86 85 127 143 221 219 212 165 202 203 194 198
181 202 195 222 212 202 179 219 194 173 221 246 216 238 162 213 209 212 202 84 122 94 220 130 212 215 102 122 100 102 88 93 105 192 200 217 211 103 151 183 197 201 198
197 222 213 214 217 200 223 218 226 191 216 195 241 234 228 229 215 168 273 233 209 234 223 221 103 147 90 219 188 92 92 98 182 192 195 192 202 188 188 187 210 209 206
214 211 214 223 215 198 213 215 217 209 91 231 226 235 234 231 227 183 200 265 172 217 103 103 182 88 99 100 98 192 180 183 181 187 191 178 201 189 180 195 181 198 193
225 223 220 223 224 225 215 205 208 207 223 225 232 215 230 157 193 136 211 270 250 168 109 132 143 104 91 221 208 193 193 181 181 186 191 180 189 187 179 188 191 184 196
218 215 216 214 218 219 220 219 183 229 238 225 228 223 212 226 228 230 212 289 223 240 229 220 226 231 223 223 210 198 195 186 183 182 183 192 188 183 184 191 183 193 197
222 220 219 227 224 223 222 217 221 227 230 234 224 225 225 205 148 228 220 202 256 242 173 134 226 225 223 219 209 199 192 191 187 185 180 192 185 187 181 186 188 202 202
253 151 237 233 232 223 230 229 225 229 229 222 120 216 119 222 202 220 253 213 250 238 231 223 141 221 222 218 207 203 194 192 187 185 182 188 186 178 185 187 198 203 208
282 302 276 277 268 263 254 247 237 233 233 219 217 213 220 225 221 215 206 123 256 238 230 220 218 147 218 216 209 204 194 191 191 185 187 183 186 184 189 194 203 206 212
334 342 316 307 263 272 279 280 258 246 237 220 216 219 205 222 224 221 204 276 255 236 227 218 216 219 219 213 208 205 200 192 191 183 184 183 187 190 186 200 212 213 196
322 334 315 357 298 309 261 278 270 246 238 229 218 220 217 223 218 230 209 266 249 234 221 216 212 221 213 211 206 204 194 195 185 187 180 183 188 191 199 208 211 195 158
298 299 295 168 265 297 340 260 134 259 216 237 225 223 214 212 217 222 206 269 244 226 218 211 212 213 211 210 207 202 196 191 185 181 181 185 192 203 212 191 197 194 203
357 382 378 357 132 241 246 193 280 173 252 174 93 224 219 210 207 219 249 258 235 223 213 214 209 208 211 211 203 202 194 183 183 183 186 192 201 205 126 195 196 203 221
325 327 344 342 287 159 323 257 253 267 125 240 232 214 219 214 221 230 251 249 226 215 211 211 207 209 211 205 203 195 183 183 186 191 191 199 200 196 193 201 210 254 226
323 311 321 320 320 313 360 138 264 260 240 231 220 214 207 206 226 243 257 232 216 209 211 206 207 209 206 201 195 186 183 184 191 193 202 196 188 196 203 130 218 302 281
349 345 332 325 334 320 310 259 144 237 229 222 218 211 215 217 236 254 240 214 207 208 207 206 207 203 200 192 185 180 191 187 195 199 192 194 193 237 239 230 290 273 260
274 317 365 366 360 336 257 248 244 234 226 224 228 216 218 247 252 240 209 205 208 207 205 203 203 196 188 180 187 186 193 194 193 191 197 229 254 217 290 281 268 249 228
239 255 261 279 286 267 228 233 226 215 216 220 218 227 251 247 228 205 202 207 204 204 203 201 192 182 183 187 192 192 190 192 194 210 233 218 253 197 274 263 233 224 217
235 236 239 250 252 248 229 224 220 220 222 226 237 245 249 205 203 209 207 203 202 201 194 186 184 188 190 190 192 191 193 202 227 225 222 259 287 264 255 248 223 222 239
255 241 238 233 234 238 238 238 232 227 235 243 245 206 203 206 207 203 201 199 195 186 184 182 188 188 190 190 193 197 210 242 208 250 265 272 254 251 239 228 236 243 315
250 257 253 237 234 236 235 237 239 248 229 202 203 204 205 205 201 198 194 186 182 178 187 188 188 189 192 191 203 229 190 206 255 288 257 249 243 223 235 244 239 423 395
234 235 236 237 243 242 217 207 202 204 203 203 207 201 198 198 190 186 179 175 188 186 188 190 191 192 201 166 132 210 246 288 274 243 246 230 227 240 238 294 418 387 367
208 208 205 203 203 203 203 197 201 208 205 198 198 192 184 182 178 186 188 187 189 190 190 193 193 142 238 126 129 241 187 254 241 235 221 235 237 235 352 417 387 365 353
207 206 205 206 204 203 206 205 199 198 194 183 174 181 185 187 186 189 190 187 189 195 198 201 159 127 185 133 248 219 238 208 218 231 233 231 325 348 415 384 362 349 334
206 205 203 203 206 201 197 198 185 173 176 183 187 185 184 188 190 184 191 196 199 212 132 138 131 237 142 165 149 235 228 229 232 226 281 339 412 419 381 358 345 328 313

GFSMW_2pvu_pres_054.txt.gz
Presure
214 220 224 217 218 222 212 222 199 151 222 193 123 200 193 188 96 215 219 124 100 216 194 193 103 106 114 119 105 106 105 201 90 97 189 142 192 87 99 102 188 108 208
206 213 218 223 223 220 223 213 212 211 173 177 216 189 197 189 164 125 231 130 166 215 218 100 98 133 146 163 92 89 193 124 205 100 112 139 86 90 99 106 172 194 196
204 206 209 209 215 219 219 218 224 216 217 200 179 209 180 144 188 243 170 249 125 224 214 116 97 163 149 89 90 228 232 172 249 246 166 152 129 111 119 152 179 192 154
203 203 209 210 223 215 216 214 185 219 206 191 198 206 202 186 196 190 103 205 244 237 226 211 204 202 217 95 221 252 237 236 213 86 96 104 104 191 128 187 184 189 196
209 210 214 211 203 209 216 215 215 212 219 179 227 185 218 193 208 190 231 217 231 237 237 222 210 182 135 238 220 209 78 95 136 209 105 218 223 105 196 197 185 187 189
215 207 210 217 210 197 214 215 212 206 213 219 226 207 211 211 189 219 219 227 225 225 231 235 219 183 219 217 210 93 104 136 230 231 223 103 226 214 200 198 187 186 184
214 223 229 231 215 209 226 224 221 221 223 223 227 225 224 220 221 213 244 230 221 221 229 229 232 222 262 250 191 231 228 221 225 226 110 196 220 212 206 200 193 185 181
198 173 219 222 245 249 242 244 238 210 220 223 219 221 221 226 226 228 237 233 162 215 115 225 173 251 265 205 245 237 91 137 220 215 225 222 219 211 208 204 192 191 187
262 263 265 262 257 253 251 249 218 227 225 213 224 221 215 218 223 230 227 231 229 233 225 230 221 281 116 249 242 235 230 222 218 221 223 219 216 209 209 202 195 198 187
170 250 256 258 257 256 250 256 263 255 243 234 210 214 175 217 218 221 170 217 225 222 237 222 217 133 278 250 239 232 226 218 217 221 219 221 213 210 211 207 200 196 195
230 248 269 271 265 296 304 264 270 263 262 251 231 222 220 221 220 171 221 219 217 215 132 225 218 219 273 254 233 227 223 216 215 216 221 219 218 213 213 204 202 195 189
234 265 274 286 295 285 286 334 341 284 279 265 251 244 238 229 219 218 226 114 215 221 129 220 213 218 194 251 231 224 217 215 213 219 218 216 213 211 211 206 193 191 192
274 108 251 98 350 339 324 315 320 223 292 79 257 250 241 239 235 233 232 219 217 223 224 225 210 248 261 240 227 217 214 211 213 213 212 213 213 209 208 195 189 188 196
262 311 308 339 99 318 376 320 320 90 208 299 253 258 256 244 238 183 229 224 218 227 209 206 219 248 243 230 219 215 208 214 209 212 212 212 209 202 194 185 193 200 200
278 345 321 347 365 381 343 318 307 205 166 300 191 260 246 242 235 230 224 229 223 219 220 216 237 246 238 222 215 207 213 213 209 211 211 209 198 186 190 193 201 194 202
286 333 311 323 325 337 283 306 289 93 327 282 235 257 261 239 233 230 235 225 214 209 215 225 248 239 223 213 207 210 210 207 210 208 210 191 188 189 202 193 200 205 213
272 338 307 308 315 306 284 266 295 312 288 253 222 264 255 243 237 234 227 212 203 206 228 246 239 220 211 207 210 208 207 209 211 193 186 190 198 194 200 202 207 227 230
258 356 326 315 318 285 259 291 319 290 245 227 257 246 244 240 235 228 224 211 206 231 247 236 215 207 208 208 208 208 209 198 191 190 198 194 198 198 204 172 178 263 280
247 263 327 386 309 295 272 329 239 229 253 250 249 244 235 227 218 214 206 216 238 246 225 210 206 204 207 208 209 196 188 188 196 189 195 198 202 215 228 242 281 275 264
234 246 252 251 256 244 234 237 242 238 232 233 229 223 219 219 204 213 236 255 236 210 205 204 207 207 208 193 186 189 192 189 197 198 185 136 135 227 256 280 270 253 242
228 230 236 235 218 218 232 229 230 227 223 224 209 218 218 221 240 247 234 209 205 204 207 207 201 189 184 191 187 190 193 194 177 142 132 136 140 144 277 256 242 240 244
233 213 225 231 234 228 219 215 216 217 220 222 228 233 241 246 221 206 205 203 206 205 193 186 189 188 184 193 191 195 200 130 211 137 136 140 205 264 239 237 239 254 373
257 238 236 236 245 236 241 236 236 235 237 239 245 216 205 206 204 204 202 194 186 189 189 184 187 196 186 193 199 203 139 145 134 249 144 252 235 240 236 237 306 344 409
233 226 244 253 253 255 255 254 215 207 204 204 205 204 203 203 193 187 188 185 184 186 184 191 190 193 200 197 202 149 126 135 132 145 229 171 231 230 257 323 450 409 379
204 203 204 206 203 204 204 203 203 202 202 199 192 190 173 176 179 183 187 184 182 187 189 195 197 201 205 127 184 135 261 139 167 227 225 215 246 282 344 446 406 377 353
206 210 211 210 209 206 206 204 202 191 181 172 174 178 182 187 185 178 180 186 189 199 195 205 207 207 219 148 230 189 148 223 225 213 239 290 323 490 443 401 372 350 331

GFSMW_2pvu_pres_057.txt.gz
Presure
203 203 209 205 196 211 225 217 233 224 225 215 215 223 204 203 211 201 197 179 98 103 106 91 102 97 104 103 101 102 102 102 107 245 120 101 97 98 198 220 206 195 109
202 192 207 211 211 215 212 213 220 224 225 215 216 125 163 215 216 123 102 192 140 180 175 205 135 101 143 123 206 83 189 197 107 110 124 92 104 243 222 224 130 94 107
204 205 203 206 206 210 205 205 208 216 225 227 219 213 166 160 209 190 194 203 193 205 199 191 167 220 244 149 228 223 199 95 126 217 156 159 169 231 253 238 91 221 109
208 221 214 202 202 209 207 203 210 205 215 221 233 224 229 218 210 230 236 187 229 249 188 192 186 202 213 238 234 233 231 219 210 209 198 229 231 94 202 107 105 105 213
213 215 223 219 203 202 203 202 204 211 210 216 215 231 220 216 220 198 190 189 195 200 185 184 217 195 227 228 239 245 227 226 227 192 92 246 195 228 217 170 228 226 105
218 219 218 216 216 207 206 195 201 207 214 218 209 205 216 219 215 174 203 200 210 212 216 183 211 198 231 225 228 230 236 235 225 263 205 106 200 154 127 229 224 224 224
214 214 214 231 230 230 225 211 203 209 216 213 215 204 202 220 214 133 189 208 223 205 209 198 161 243 227 231 221 219 156 204 103 203 254 249 241 238 169 229 197 219 220
215 75 228 228 231 230 233 234 234 234 237 240 231 222 199 208 228 218 221 228 226 222 180 226 227 236 235 219 226 230 209 227 228 273 264 100 244 238 234 228 225 222 220
230 227 226 226 231 234 231 229 225 228 233 229 243 247 229 122 237 230 220 212 221 210 224 226 225 236 225 186 92 228 221 222 207 275 139 253 242 240 234 228 223 223 221
231 242 246 239 238 233 232 248 246 275 267 266 264 256 249 253 244 238 233 162 140 157 160 228 220 225 227 224 222 239 227 204 222 270 264 253 241 233 233 228 222 220 217
228 231 233 261 267 219 259 258 255 254 251 242 245 250 221 248 239 242 239 215 204 203 207 214 219 225 226 224 222 235 222 227 224 236 255 251 239 230 226 221 218 218 218
265 252 142 246 239 177 236 117 160 275 273 303 297 298 247 248 247 248 238 229 222 220 216 216 218 228 226 197 220 145 218 221 222 257 252 243 232 227 221 217 216 216 220
225 247 142 290 98 241 281 287 299 296 245 265 227 273 303 274 251 238 245 239 232 223 223 224 224 225 228 222 221 213 214 215 234 253 242 235 227 221 216 216 217 217 215
189 89 178 269 277 312 181 93 356 285 337 288 273 272 256 141 260 258 241 229 231 228 229 228 229 227 229 224 222 225 215 222 266 243 236 226 220 216 216 213 217 217 220
265 260 291 375 352 336 277 375 397 259 346 334 288 94 134 260 283 215 241 242 233 229 193 226 225 228 221 217 222 212 220 257 244 233 226 219 215 214 217 214 217 209 200
248 281 394 329 325 338 338 356 347 325 305 314 293 187 295 281 284 252 235 239 238 233 228 228 225 217 221 226 210 217 249 246 230 221 215 213 215 213 215 202 195 199 200
267 326 340 311 264 344 315 310 303 303 307 308 314 278 280 272 263 235 235 239 241 240 227 225 222 230 227 203 220 256 239 224 214 211 213 211 212 198 192 194 194 202 189
259 301 311 321 261 270 295 287 288 287 274 282 280 265 258 240 231 249 250 248 237 227 224 225 230 216 211 227 262 228 214 208 211 206 202 190 190 190 196 199 167 141 189
246 250 274 314 317 300 290 283 283 273 264 255 254 254 220 219 217 229 239 236 233 234 237 219 212 219 249 235 215 207 210 203 201 187 187 187 200 196 191 136 210 160 135
238 233 233 238 239 237 235 233 233 228 227 225 227 246 239 236 233 233 234 234 228 221 207 217 246 239 212 206 209 200 190 180 186 197 195 196 207 136 133 227 141 134 275
228 231 230 229 227 226 234 235 235 241 238 234 232 232 233 231 226 223 224 214 212 228 248 230 208 206 201 193 171 183 180 195 193 200 203 211 154 124 142 129 250 233 230
215 232 229 224 223 223 233 225 226 221 226 225 223 228 223 219 220 216 227 245 231 209 204 203 191 185 181 177 184 191 194 199 200 207 220 210 139 219 214 184 228 228 256
240 241 229 239 231 226 238 223 222 222 220 220 217 227 232 243 240 220 208 204 201 194 183 177 183 181 184 189 196 199 201 209 218 228 243 190 185 219 227 221 242 262 464
240 242 243 238 237 237 235 235 244 236 235 230 222 214 208 205 202 193 183 180 183 188 181 183 188 190 197 200 202 210 221 252 230 131 230 180 229 177 236 266 343 471 431
210 210 211 209 209 205 205 205 204 203 203 202 198 198 181 180 179 185 189 182 182 185 188 190 198 200 205 213 243 278 274 235 150 220 138 219 196 254 314 389 462 426 391
206 210 212 214 213 211 209 208 203 198 192 181 179 177 188 189 183 181 182 184 190 191 200 199 208 210 239 244 226 188 208 166 179 191 227 255 315 327 503 456 419 384 354

GFSMW_2pvu_pres_060.txt.gz
Presure
199 199 198 201 198 200 191 202 223 215 222 211 209 206 211 211 216 220 222 192 215 215 104 102 200 97 207 168 109 107 103 98 107 102 102 101 101 101 218 107 93 96 97
199 202 201 203 99 206 213 198 206 211 208 203 215 213 216 210 204 203 206 197 172 217 126 124 215 218 204 175 128 204 104 104 104 103 112 167 220 114 166 93 217 178 155
191 196 202 207 202 213 220 218 207 206 206 207 222 213 212 209 211 198 196 106 204 215 213 176 160 192 102 103 163 203 110 153 198 191 159 175 233 163 236 220 216 211 216
204 210 201 206 220 213 215 211 202 207 207 207 206 205 216 206 202 197 212 202 198 201 128 186 211 204 222 201 90 192 218 117 192 193 201 237 255 247 231 253 222 94 181
190 195 212 221 214 219 214 208 204 210 220 216 212 206 213 213 210 206 200 216 227 204 203 203 225 214 226 212 163 194 199 167 155 216 129 229 231 230 144 272 255 261 258
209 220 223 219 219 218 213 211 216 214 220 219 219 212 204 207 200 207 206 214 203 209 216 208 213 206 214 214 212 213 212 228 214 237 220 237 226 221 225 264 276 259 256
229 219 219 217 220 215 219 215 214 221 215 221 217 221 215 205 201 205 214 213 218 198 205 205 206 206 215 213 221 223 219 220 217 102 230 194 231 227 214 216 223 252 264
222 218 213 213 227 220 218 226 223 218 216 221 231 231 223 218 222 222 216 216 216 219 195 219 198 213 172 222 185 219 217 223 227 238 230 234 228 229 234 214 211 219 263
229 226 226 231 225 224 226 222 222 227 235 232 234 234 238 233 230 224 226 222 226 224 220 208 193 219 214 191 206 214 214 214 224 224 228 226 141 229 226 229 203 225 261
236 233 211 230 223 225 234 233 237 234 234 239 245 246 246 244 242 233 225 224 225 223 234 229 223 225 226 224 217 216 206 223 219 223 231 230 219 237 228 228 231 264 258
234 232 229 232 233 234 233 235 242 240 240 237 233 228 246 255 276 278 275 262 260 256 251 243 238 228 224 223 216 215 203 213 215 222 223 234 226 230 231 235 229 261 252
231 230 133 229 237 161 233 243 273 277 275 270 267 263 259 253 251 252 253 219 250 249 244 244 242 237 231 225 216 217 219 218 222 224 228 237 230 218 217 222 283 251 243
231 236 222 230 222 167 261 119 116 207 122 245 250 247 243 245 245 234 229 232 230 234 235 239 229 228 228 224 223 223 220 219 220 226 221 190 235 223 220 266 251 241 234
249 259 194 174 234 228 162 190 289 290 292 289 282 279 281 280 276 275 268 278 203 248 237 227 234 234 228 226 223 223 220 223 227 228 233 237 223 222 254 250 236 229 223
271 229 257 272 242 281 318 357 360 358 149 115 330 292 282 276 269 270 272 126 137 278 252 182 221 218 218 220 222 221 222 225 228 235 238 218 215 255 242 229 219 215 219
266 256 266 322 389 323 356 328 373 385 405 377 357 337 335 343 274 267 116 264 274 281 251 238 235 224 237 231 227 223 226 229 234 234 211 226 258 231 217 215 210 205 198
250 276 297 354 262 307 290 299 312 323 330 332 335 337 329 313 310 280 268 277 265 264 230 226 224 227 227 231 235 232 230 231 228 215 236 261 219 212 212 198 193 190 197
243 247 257 305 319 306 272 285 287 305 299 293 292 292 291 289 270 268 257 252 246 240 225 222 238 238 240 240 236 234 234 216 228 241 220 207 198 192 192 189 193 204 216
226 236 236 251 262 263 265 272 279 283 267 256 263 252 245 214 239 244 225 218 220 215 240 241 241 244 241 239 236 216 226 236 219 197 187 184 189 186 195 205 218 232 207
217 226 236 225 240 238 238 236 237 240 240 239 238 224 226 227 224 237 215 226 225 235 247 240 238 231 216 222 230 237 207 187 181 185 188 186 201 208 220 237 254 260 169
223 238 227 239 238 238 245 232 230 238 240 234 227 227 220 219 230 233 232 232 238 229 217 217 223 231 238 218 191 182 183 185 188 195 203 210 223 243 274 255 229 230 228
241 232 239 224 221 232 236 233 233 230 242 237 232 235 225 223 226 225 217 217 221 224 229 238 213 197 185 182 179 182 189 195 201 207 219 256 246 227 223 236 227 226 225
250 237 236 231 227 235 246 237 225 224 220 216 218 221 220 223 222 227 229 232 208 198 190 184 181 179 180 188 190 197 204 214 213 242 160 224 214 231 219 185 232 270 318
237 245 243 238 239 236 239 255 253 239 241 237 236 226 210 205 201 201 194 186 182 175 173 185 184 186 193 202 208 214 215 237 235 227 204 226 217 222 232 251 319 331 353
205 202 212 232 234 214 213 214 213 211 208 206 202 202 197 183 182 184 180 184 181 184 191 193 198 205 212 210 206 237 232 225 203 219 221 218 229 256 319 325 341 406 428
206 201 203 204 204 203 203 206 208 209 208 203 185 187 186 183 194 182 186 195 193 198 204 211 214 206 205 238 231 221 196 215 217 214 225 254 291 330 334 344 455 418 386

GFSMW_2pvu_pres_063.txt.gz
Presure
199 199 192 202 181 66 170 174 184 177 178 83 198 199 213 203 219 200 215 205 140 195 220 214 212 129 221 214 214 216 216 215 176 108 105 103 102 98 99 97 102 109 110
209 206 201 203 208 216 207 173 200 196 202 199 197 203 208 212 213 204 203 203 206 216 117 211 164 120 128 158 205 103 101 179 216 225 140 169 131 105 176 115 177 188 178
199 202 207 208 197 197 194 198 206 203 198 200 204 208 207 218 216 149 201 205 215 211 212 212 212 216 213 209 203 215 222 224 222 209 187 123 147 182 199 160 141 189 190
198 199 201 200 185 183 207 211 204 195 196 209 200 225 214 213 213 207 200 204 197 197 197 201 198 206 208 205 204 204 207 212 209 226 228 213 142 213 221 225 198 200 220
202 202 198 198 202 200 205 197 202 207 207 199 203 218 218 214 212 206 202 233 213 202 202 201 196 195 200 199 211 223 227 229 225 215 218 212 214 214 231 232 202 192 239
192 196 197 198 197 195 202 207 201 194 201 211 221 221 216 215 215 216 219 204 213 210 203 204 203 195 195 200 208 209 213 220 215 205 212 219 184 222 217 222 224 234 232
193 197 196 200 197 198 197 200 207 206 205 228 222 217 219 219 220 223 218 211 211 219 215 221 208 201 201 201 211 220 209 221 207 217 204 195 224 217 204 212 223 219 229
199 200 196 200 199 199 207 200 199 201 221 227 215 220 228 231 221 225 217 216 214 214 224 227 147 223 196 209 207 215 210 215 209 201 191 213 222 210 208 212 222 216 227
207 204 202 86 208 210 211 218 224 231 226 218 221 218 235 231 224 221 218 217 218 224 226 221 219 218 220 218 216 214 217 217 218 214 194 221 220 217 217 210 213 213 226
216 218 221 226 234 231 229 231 239 240 243 250 242 236 225 219 225 233 232 233 230 224 223 228 237 230 227 223 218 216 215 213 212 218 223 178 222 218 215 202 219 225 232
232 235 235 238 243 240 238 236 237 236 242 238 234 236 238 238 238 240 240 244 243 243 241 239 233 232 231 225 217 212 229 237 235 231 227 224 220 217 217 217 223 230 229
248 254 246 244 240 244 234 236 252 244 241 238 237 237 240 245 236 236 235 236 239 257 272 262 273 270 261 261 253 259 245 238 236 231 227 225 226 223 221 223 224 225 231
239 235 239 238 228 244 81 119 177 243 247 250 117 98 149 256 272 273 238 262 253 260 245 240 241 238 238 242 249 149 234 228 226 224 223 220 223 224 226 228 230 231 236
263 260 258 246 233 162 181 257 248 228 269 247 273 274 280 286 283 279 278 268 265 264 257 187 202 193 172 213 217 215 222 236 229 232 226 229 229 228 226 230 232 238 227
231 233 234 240 255 261 251 283 295 290 129 298 323 324 293 264 229 274 267 264 269 270 266 272 264 123 132 158 212 228 226 221 219 217 221 224 228 230 231 238 231 220 237
262 268 247 271 272 378 305 310 317 342 336 266 329 390 356 341 318 279 269 263 262 256 259 257 254 119 254 273 265 229 150 232 228 225 227 238 237 242 244 221 232 245 211
272 242 248 263 269 348 316 289 305 306 327 331 347 370 337 331 334 331 330 289 264 256 251 248 258 266 261 253 251 232 231 234 230 245 241 247 238 224 233 232 207 201 195
252 240 249 241 248 275 292 273 298 292 299 301 301 319 348 338 335 339 326 309 305 240 245 254 248 237 242 236 216 247 243 245 237 240 230 225 232 219 204 194 191 199 198
243 229 241 224 243 212 260 257 260 269 263 264 264 268 277 219 275 268 259 248 254 240 234 233 249 239 239 233 234 241 241 237 223 227 229 205 199 189 188 197 200 210 215
237 240 236 222 224 247 250 249 248 262 246 254 251 256 243 248 246 236 238 228 240 233 230 223 229 230 238 238 229 222 226 232 204 202 192 186 188 197 202 206 218 243 240
243 241 216 216 236 213 247 241 228 250 244 234 248 247 246 244 238 226 234 239 227 230 234 235 227 222 223 225 221 203 201 193 185 189 192 196 203 211 247 245 236 214 211
227 235 250 226 236 235 233 238 236 223 231 237 232 225 227 224 225 229 226 220 221 222 224 224 216 207 198 194 191 185 185 184 195 196 209 217 244 239 227 208 218 223 194
228 237 242 238 229 238 237 221 217 215 221 226 224 226 227 229 231 235 233 230 206 202 198 193 186 188 183 183 186 191 196 205 215 215 240 234 221 206 225 218 226 241 284
233 241 239 243 257 249 240 246 243 231 245 222 221 228 207 202 199 193 192 189 188 186 185 184 183 186 185 195 211 216 213 224 239 230 218 206 223 221 222 239 282 302 327
200 194 223 235 244 218 216 205 207 207 205 195 194 193 192 191 187 187 183 188 194 185 181 199 201 212 216 210 205 233 235 228 215 208 217 224 219 231 257 300 311 351 437
199 218 201 204 203 203 201 200 201 202 200 198 196 195 199 205 208 193 198 192 205 217 217 216 210 201 212 233 231 228 219 209 213 216 215 228 243 284 307 329 369 475 410

GFSMW_2pvu_pres_066.txt.gz
Presure
167 168 170 171 177 163 64 172 163 162 165 167 171 164 163 168 163 184 174 172 180 201 205 221 222 218 220 204 210 209 217 212 212 215 217 222 227 230 103 103 101 102 103
168 170 177 178 184 95 178 102 170 175 185 176 179 172 189 220 206 210 194 183 206 181 206 221 218 213 212 148 217 213 210 211 211 215 203 219 212 206 103 104 184 207 227
184 180 180 181 185 191 194 189 183 190 202 206 207 204 212 211 199 194 200 204 199 207 204 221 215 211 213 166 175 202 204 199 212 207 202 213 221 221 234 234 231 215 164
201 200 199 191 189 190 191 209 210 205 205 199 203 211 203 200 197 212 207 197 213 202 219 226 136 212 203 200 205 209 208 208 206 207 211 204 209 214 216 148 138 216 209
210 207 211 212 212 213 207 203 208 201 201 205 205 201 184 200 199 201 207 206 196 211 227 219 217 217 225 216 225 220 216 213 205 209 208 201 206 209 222 207 220 212 213
218 217 210 206 202 204 205 205 195 202 204 207 205 205 198 200 201 198 201 213 211 202 211 215 210 207 210 207 210 207 208 197 211 201 214 213 203 210 212 200 219 203 222
211 210 203 198 199 206 207 201 195 193 194 204 199 194 200 202 195 206 201 204 206 219 225 218 218 216 218 209 215 209 212 205 220 214 211 217 215 214 213 221 224 219 223
202 207 209 206 201 196 194 194 194 199 200 202 200 200 210 203 209 210 209 212 216 228 219 222 214 220 225 207 210 214 210 225 216 215 213 206 213 216 216 213 214 218 210
205 198 197 201 205 204 203 203 200 199 198 197 213 207 207 209 210 209 228 231 233 234 234 237 221 219 211 207 209 212 222 221 215 214 222 218 218 218 211 212 209 205 236
204 203 207 207 203 202 203 202 207 208 206 212 211 214 218 222 236 228 230 236 236 231 239 233 227 216 215 223 222 218 214 215 219 226 226 225 223 221 215 207 237 238 235
210 210 203 205 205 204 207 211 214 211 213 217 219 230 239 250 247 242 234 238 232 236 233 227 226 225 223 220 223 231 225 219 219 216 213 212 218 235 243 239 238 236 234
218 217 216 218 215 212 211 209 211 214 233 241 238 259 249 78 153 98 239 260 249 244 237 232 228 230 233 224 229 228 243 249 246 264 258 256 251 246 235 241 231 231 229
256 260 247 239 238 242 243 240 242 232 250 252 222 248 242 245 255 260 250 129 248 250 250 247 245 253 253 253 254 249 242 236 235 214 230 211 225 168 224 236 232 232 234
242 248 249 243 240 245 250 80 263 131 182 274 266 264 258 245 258 237 271 275 267 245 235 255 188 214 214 205 205 223 224 172 162 175 198 190 207 218 222 227 224 224 226
250 252 250 268 274 266 253 249 252 265 295 306 310 304 298 293 292 289 290 292 283 277 275 272 266 266 263 265 211 190 125 121 126 258 199 153 235 221 223 226 228 225 231
265 254 244 237 235 246 270 285 321 359 327 321 308 301 305 325 331 332 335 338 315 295 278 257 261 253 249 254 246 245 248 236 243 253 258 251 246 246 244 239 238 249 252
233 235 245 265 251 263 257 252 290 339 308 311 326 337 337 363 385 355 356 340 347 330 310 296 249 261 250 248 251 250 255 240 250 255 248 252 237 230 251 250 242 233 226
253 259 263 254 249 252 241 247 268 273 274 268 288 304 347 326 302 309 319 322 327 324 295 290 253 238 240 251 235 240 254 248 246 239 236 245 247 247 232 229 214 206 197
252 253 249 240 246 238 243 230 252 220 255 277 270 267 270 279 278 281 294 297 296 293 282 276 241 239 238 243 243 241 239 238 239 243 233 231 223 216 205 199 188 185 208
246 237 226 250 244 236 233 234 233 247 249 276 251 261 263 265 272 264 262 266 264 261 261 257 229 231 235 237 238 236 230 224 223 216 211 205 200 194 188 185 210 215 224
233 233 239 252 234 230 232 223 235 230 226 246 241 235 238 245 240 237 248 253 244 246 236 225 224 230 233 223 222 216 210 204 200 194 190 186 188 205 213 220 233 242 233
239 234 231 236 256 243 251 246 233 225 226 236 224 224 232 223 230 231 234 236 233 231 227 221 217 211 205 203 201 196 190 183 183 190 209 212 217 229 242 237 224 215 219
219 234 232 247 249 239 238 223 228 227 231 228 233 214 215 215 213 208 205 203 201 200 197 196 197 197 190 183 190 191 202 208 215 209 203 237 237 229 219 219 165 228 227
230 233 240 239 239 248 242 250 253 213 206 207 204 203 202 202 201 197 196 194 194 191 192 192 191 207 211 213 216 213 208 204 236 236 231 227 217 215 186 224 226 237 258
243 231 226 223 242 238 232 208 203 201 208 204 202 202 199 195 200 200 208 209 204 204 211 218 216 212 210 205 206 230 236 237 237 231 218 214 222 221 226 236 261 318 451
227 201 210 216 204 201 204 202 200 199 205 205 206 208 211 206 202 202 208 215 217 218 212 202 199 213 228 235 240 240 238 231 213 211 219 216 224 229 253 314 563 482 444

GFSMW_2pvu_pres_069.txt.gz
Presure
182 176 185 186 175 180 97 71 172 170 183 179 179 177 163 164 182 175 167 84 170 173 190 174 201 200 213 207 195 204 209 232 229 226 224 214 205 220 216 200 211 103 200
182 182 180 176 171 183 159 182 182 182 173 171 117 167 167 169 174 176 181 181 184 192 216 207 208 204 199 204 208 213 206 230 159 208 220 218 216 221 217 217 213 209 210
178 179 176 171 177 177 169 164 166 168 170 163 163 171 177 180 183 188 153 192 215 212 205 212 202 195 191 207 204 213 209 219 214 214 101 219 201 212 225 224 211 199 214
185 174 182 185 188 167 163 165 171 175 186 172 179 177 182 189 191 190 197 216 212 207 208 203 198 207 206 202 216 205 203 211 223 223 217 214 210 212 208 207 213 225 226
196 193 172 178 187 189 192 188 184 192 182 186 201 196 190 192 204 214 212 211 208 206 207 206 207 204 197 205 205 211 216 217 225 206 217 210 210 211 207 215 210 222 222
225 211 208 206 209 209 200 195 192 192 201 203 206 208 204 208 210 203 206 205 195 202 210 204 196 211 208 205 206 213 204 228 215 212 202 223 212 214 209 211 213 214 216
222 222 212 197 209 213 213 217 211 206 211 212 209 212 210 197 202 206 206 203 203 207 193 207 210 204 205 200 207 204 233 229 221 214 219 224 212 206 204 208 215 216 215
215 210 215 212 206 213 200 209 209 204 216 213 212 206 202 208 196 205 205 204 191 190 210 207 203 203 213 208 211 218 222 229 226 234 222 219 206 210 215 220 216 220 223
213 211 210 207 206 204 211 209 206 214 213 210 206 203 204 204 204 200 199 200 214 211 199 203 211 203 216 222 220 230 225 224 220 220 218 207 214 221 217 215 219 212 221
211 211 209 211 213 210 208 205 206 204 203 203 201 200 198 206 212 207 211 206 205 212 203 208 207 218 227 244 234 228 227 222 228 223 218 218 218 215 222 216 209 214 226
212 212 211 210 210 213 214 213 213 210 211 212 213 206 206 210 211 212 213 214 208 219 224 214 231 240 245 238 229 233 222 234 227 220 216 213 215 219 227 199 269 197 240
211 211 212 210 210 216 218 216 217 220 220 220 217 217 217 220 217 222 224 223 213 251 262 258 247 239 237 237 238 223 239 223 220 221 223 228 242 248 233 224 138 216 142
219 219 218 216 215 138 201 208 208 211 215 218 110 225 221 230 250 259 222 264 261 258 256 256 249 249 246 242 240 227 226 231 243 242 248 235 144 207 176 135 142 150 220
216 214 214 215 214 214 217 225 232 241 248 165 259 132 255 269 275 273 268 269 267 266 259 253 248 243 241 240 234 248 248 220 224 223 240 213 243 221 133 167 176 265 272
267 251 243 246 263 243 256 255 262 270 278 262 261 261 330 337 337 322 310 306 316 306 280 278 276 267 266 259 255 253 252 255 254 256 251 251 253 236 242 235 234 252 251
250 254 258 259 251 250 258 264 251 251 249 276 298 286 256 376 359 334 324 314 311 319 315 295 295 299 282 279 271 254 235 253 249 241 257 253 258 245 233 246 266 267 245
246 251 257 256 262 248 240 241 252 266 275 261 256 265 305 323 307 319 266 330 333 365 376 343 334 304 284 290 295 262 245 249 244 250 256 254 255 254 253 247 240 240 243
266 260 252 240 234 235 247 262 260 254 251 252 269 248 232 257 286 293 308 314 315 320 321 325 333 329 324 293 268 248 245 246 257 246 251 254 250 246 241 231 228 227 221
239 234 234 246 250 261 255 250 250 244 244 244 247 230 252 246 251 277 277 283 291 299 301 299 303 298 284 254 241 231 250 272 265 239 241 230 224 218 215 212 205 195 193
239 248 258 248 249 232 238 252 232 240 247 235 239 232 238 238 238 244 248 252 258 253 282 273 269 274 258 257 252 244 234 230 226 223 216 214 206 199 192 190 219 218 217
244 252 247 244 243 238 261 250 239 249 239 222 227 236 223 235 237 231 232 231 224 226 235 230 231 229 228 225 221 215 214 210 201 199 191 187 188 212 211 208 216 225 238
254 251 248 251 247 236 241 249 250 235 229 234 249 247 231 212 216 216 216 215 214 212 212 210 210 207 202 197 193 193 188 186 188 198 215 212 207 207 228 238 241 241 232
239 241 238 225 230 239 250 241 241 241 236 233 208 207 206 194 201 204 198 197 200 208 206 205 208 203 221 222 220 212 213 210 206 205 222 230 236 239 240 238 220 217 225
237 227 223 234 235 238 241 268 250 244 243 205 212 211 208 212 210 206 206 206 215 214 220 223 222 215 210 203 200 202 223 227 229 235 239 237 231 227 215 215 219 227 234
227 234 244 247 238 229 212 247 245 206 208 208 203 204 208 208 210 212 200 213 216 218 226 215 204 199 201 213 222 227 230 233 233 233 230 227 218 223 223 230 231 251 425
231 227 246 246 218 209 225 205 207 208 204 204 211 210 210 214 210 207 213 221 225 219 207 198 204 205 222 227 230 229 229 229 230 232 228 225 227 230 238 320 361 407 366

GFSMW_2pvu_pres_072.txt.gz
Presure
171 177 171 162 167 171 165 161 160 161 159 157 158 161 159 153 160 162 159 164 167 181 183 178 163 170 182 187 197 198 214 214 213 204 181 204 204 215 207 217 232 223 213
181 178 174 178 168 165 167 166 163 169 166 165 161 134 164 167 169 167 176 186 189 181 169 166 177 177 190 197 205 218 214 207 205 206 204 205 202 222 211 219 200 215 217
175 180 180 175 181 180 176 167 168 170 166 170 175 187 182 178 176 182 184 169 169 173 188 190 188 206 198 209 224 211 204 199 208 199 206 211 218 200 215 234 227 219 206
188 183 171 176 177 180 185 186 183 185 187 186 185 181 183 177 178 177 169 169 172 178 187 196 202 210 205 217 207 216 208 202 197 209 207 201 203 213 191 213 229 221 210
190 193 188 176 180 172 172 182 176 181 173 180 181 183 183 188 187 174 187 214 191 215 188 204 213 213 217 196 209 211 201 202 196 207 199 208 207 206 223 218 225 222 233
188 188 192 190 188 178 174 176 178 179 181 187 180 180 182 183 182 193 196 203 199 205 207 215 211 213 206 208 207 195 193 201 210 200 200 205 209 214 221 225 222 220 225
216 204 202 201 192 192 191 188 180 184 186 181 185 188 199 202 207 201 207 214 209 209 213 214 213 206 203 195 194 201 210 202 194 205 202 211 207 218 217 228 219 217 219
237 238 233 230 228 220 210 181 181 185 183 183 202 208 204 216 201 213 210 205 212 205 213 207 204 203 209 211 211 200 195 206 202 197 210 206 208 220 231 227 219 219 225
204 209 224 227 236 242 235 236 226 223 216 218 219 214 210 205 210 205 208 211 209 209 204 194 196 212 210 199 203 205 204 202 197 210 203 207 220 235 228 219 223 218 232
219 218 225 231 233 230 232 231 220 218 217 212 207 207 210 211 208 205 206 212 214 212 208 207 204 209 202 201 212 207 207 212 203 206 215 227 233 221 226 224 219 230 221
218 216 223 226 224 225 221 223 217 217 212 213 212 211 212 215 216 214 206 203 204 204 207 219 218 137 213 213 216 213 213 214 225 231 228 243 204 227 224 221 229 218 214
222 223 219 221 216 217 216 215 214 215 214 214 215 214 211 203 214 223 220 219 215 216 217 190 220 225 228 220 235 239 244 250 240 221 220 229 224 221 230 233 199 223 245
221 220 218 212 215 219 217 215 214 214 216 212 217 225 223 219 212 213 219 221 224 227 229 239 266 245 240 252 251 247 265 258 248 243 239 240 237 230 223 229 248 237 251
219 218 214 212 212 212 213 214 216 220 223 223 220 213 212 220 224 227 248 266 278 302 291 296 291 287 283 270 276 263 267 256 248 236 232 231 235 243 243 246 248 260 245
221 216 215 216 218 218 213 215 217 215 217 219 219 219 232 266 264 254 281 270 411 382 358 340 327 326 346 309 318 289 295 267 260 253 254 250 246 243 245 256 253 244 251
217 236 225 216 214 214 220 220 221 221 223 235 266 269 248 265 288 278 282 313 344 334 325 342 441 324 331 321 292 297 291 289 279 281 258 252 251 252 238 250 241 253 252
264 265 267 267 244 241 245 259 252 262 268 259 257 251 268 280 266 250 259 272 274 314 324 336 389 326 303 301 295 282 300 286 286 276 271 266 250 251 255 251 258 265 249
252 253 257 257 256 260 262 248 257 261 250 250 279 259 246 269 253 249 256 255 253 260 310 310 329 317 295 303 269 269 297 296 279 260 253 254 255 256 246 245 231 226 219
248 242 258 267 261 272 260 251 246 242 260 259 256 250 240 252 248 261 243 232 240 243 249 264 302 329 323 299 293 285 267 265 259 251 252 257 233 227 219 215 205 197 196
272 259 261 262 251 242 239 243 251 248 246 243 257 241 244 235 218 238 222 224 228 225 225 228 231 238 241 242 242 238 234 231 221 216 213 211 203 193 192 194 194 219 220
257 249 240 237 244 250 256 249 250 240 251 267 236 256 229 225 232 218 216 214 205 203 196 204 207 210 213 211 208 202 199 196 200 198 199 211 211 216 220 222 229 234 237
235 236 246 243 256 244 247 250 244 238 242 253 253 251 236 251 218 201 197 198 201 196 213 218 220 225 219 218 213 212 212 211 212 216 220 225 225 227 230 234 236 236 235
239 243 220 267 231 255 250 228 234 242 254 251 236 237 249 204 205 207 200 210 209 220 214 226 229 224 214 211 207 206 219 220 225 227 227 228 228 230 230 235 237 233 232
250 239 234 238 244 237 229 234 237 241 253 250 245 242 205 211 207 206 210 212 218 215 217 226 223 215 209 203 210 211 209 207 218 218 222 228 230 233 233 230 221 223 270
244 230 231 236 229 230 243 238 235 242 242 258 209 207 210 205 215 214 212 214 208 215 226 227 216 202 202 203 207 208 210 215 217 214 221 232 233 234 215 229 305 290 373
229 238 231 233 226 234 250 229 232 211 232 208 208 206 208 216 211 211 218 208 214 220 230 222 203 206 210 207 206 207 207 214 215 219 221 229 219 218 335 279 281 397 375

GFSMW_2pvu_pres_075.txt.gz
Presure
169 169 132 151 133 102 164 75 154 159 159 154 157 157 157 155 157 160 155 162 162 162 160 160 161 155 167 172 175 187 191 174 174 195 202 219 218 210 217 206 204 194 205
176 168 173 172 171 163 154 134 164 151 166 164 159 160 160 156 154 156 159 157 161 159 161 168 167 171 193 186 177 184 176 189 202 208 214 219 219 216 210 210 197 212 203
169 170 176 167 169 173 170 170 156 165 164 146 159 160 161 161 163 164 164 165 161 166 171 170 182 187 187 171 179 189 194 199 203 210 215 211 212 199 193 206 212 202 206
184 179 161 163 167 171 170 173 176 173 170 170 171 126 171 168 163 168 169 171 170 170 187 185 187 186 190 192 191 206 206 210 214 211 212 214 200 202 211 204 202 201 206
189 184 181 178 177 164 168 176 172 172 178 190 167 171 172 173 177 186 187 187 189 178 181 186 187 185 192 182 211 210 202 219 210 206 214 204 203 210 201 199 201 208 201
191 191 186 181 181 183 177 176 158 159 184 186 181 181 181 177 181 179 187 184 180 174 177 190 188 187 188 201 208 213 213 209 214 209 209 195 211 200 197 196 204 201 196
207 194 192 193 191 185 188 188 185 185 176 175 177 181 176 181 181 187 177 179 186 186 190 189 170 212 212 213 207 209 213 203 209 215 209 202 192 209 192 205 199 203 208
210 209 205 201 198 195 189 183 188 188 189 190 193 192 194 193 196 193 196 193 183 218 226 210 220 218 218 213 213 207 213 211 208 200 205 200 210 211 206 197 207 211 203
208 206 209 205 202 208 206 194 194 193 192 188 189 191 194 195 207 220 224 225 230 220 220 218 211 216 210 216 219 216 210 198 202 206 212 211 205 208 212 204 199 206 219
251 235 217 210 213 216 214 200 207 224 226 220 210 221 233 241 231 228 219 217 214 210 212 216 216 214 216 207 202 220 215 213 212 212 214 208 210 210 208 202 225 222 216
250 247 244 242 237 239 235 241 246 241 239 236 208 233 236 223 223 218 215 213 213 121 214 216 208 202 223 222 214 131 214 216 218 220 222 220 212 212 229 229 208 217 215
233 234 244 242 245 244 236 232 226 216 234 212 225 234 226 221 212 219 223 217 221 214 214 224 89 217 221 87 225 231 234 237 238 251 251 245 239 237 238 232 236 228 229
229 225 227 228 226 225 223 223 220 228 221 216 219 220 218 217 222 222 219 216 223 223 112 188 223 228 242 255 296 293 300 287 281 271 262 256 248 257 246 242 238 248 237
228 222 219 217 215 218 217 214 216 217 217 224 222 220 216 216 215 220 223 226 215 218 222 227 250 281 377 364 363 287 269 261 252 276 264 254 252 249 248 245 245 241 239
238 226 221 218 214 216 219 221 225 218 219 221 219 215 222 223 223 222 220 223 219 234 272 274 289 332 365 346 338 337 350 322 312 293 298 315 311 292 292 273 280 273 264
243 232 230 225 228 226 220 222 218 219 218 217 214 218 224 219 223 224 217 238 271 285 289 280 265 298 368 322 464 366 338 306 318 309 303 278 287 287 281 277 268 268 259
256 250 236 234 223 222 221 220 221 222 222 223 223 220 223 222 223 236 258 272 272 262 262 240 244 250 336 355 306 322 284 277 273 290 288 280 293 288 277 275 276 268 261
256 257 260 254 241 233 226 228 226 224 226 231 237 256 252 275 260 254 261 271 264 266 237 235 230 228 231 257 295 332 291 284 280 284 293 293 275 264 255 249 239 232 219
258 259 261 260 264 265 265 261 261 261 266 269 274 270 265 255 273 261 248 251 248 220 222 218 210 200 209 213 226 229 233 229 228 221 222 218 216 209 204 201 207 213 222
257 250 247 247 244 248 251 246 255 266 271 263 251 249 250 258 278 259 249 249 234 229 215 211 200 195 230 227 222 224 223 220 219 215 215 220 228 232 232 233 232 231 233
238 236 240 239 242 257 277 267 266 255 248 244 253 255 252 253 262 247 267 227 215 218 202 201 219 225 236 232 226 221 217 208 216 218 216 215 221 221 217 215 218 225 227
238 237 242 259 267 263 257 248 241 245 256 251 262 244 243 251 256 256 236 260 217 204 202 205 217 220 231 230 222 214 202 209 214 213 213 212 215 217 213 216 217 222 224
250 258 262 258 245 237 243 243 240 257 250 253 238 239 245 250 254 237 260 211 209 206 200 217 212 219 229 234 217 208 212 209 206 212 216 216 217 210 216 222 222 231 209
262 246 235 235 243 241 237 242 234 241 239 230 238 237 240 257 261 245 208 211 208 210 217 215 213 216 226 234 211 208 215 212 205 213 217 218 214 220 228 224 228 227 273
231 241 239 249 236 235 237 242 237 240 231 240 233 238 248 259 262 206 209 202 217 213 217 207 214 218 230 230 214 205 211 212 207 208 215 225 229 235 243 226 235 350 274
237 240 228 236 232 226 228 234 228 239 239 247 237 242 238 220 207 212 209 218 210 216 204 206 214 234 235 229 206 205 215 209 216 220 226 233 244 258 227 245 320 277 252

GFSMW_2pvu_pres_078.txt.gz
Presure
175 168 167 69 85 132 159 161 137 152 153 152 151 149 151 150 145 145 151 151 150 153 157 158 160 157 164 161 162 167 160 174 170 167 192 180 188 193 208 205 213 205 212
162 180 173 164 171 166 166 160 156 158 152 152 156 155 154 157 155 157 156 155 157 161 162 161 166 163 164 163 162 170 172 166 181 190 181 193 188 190 208 213 205 212 145
184 178 179 176 157 166 166 167 167 156 134 157 127 144 151 156 160 160 76 118 161 156 160 167 169 170 170 173 178 178 187 190 182 180 182 210 183 213 207 205 209 209 200
65 173 181 176 171 168 168 173 169 170 168 162 92 164 163 158 162 164 167 153 168 168 168 169 166 170 169 183 172 182 189 179 179 187 194 198 214 208 208 209 206 209 209
169 184 188 186 183 171 171 172 169 166 162 170 159 155 169 169 166 167 168 169 171 172 162 170 192 182 190 188 181 186 185 198 196 197 220 216 214 215 210 205 212 206 198
161 141 177 170 186 189 185 176 169 164 163 168 170 171 165 167 166 163 147 163 170 180 183 187 182 176 189 196 195 194 200 214 215 220 223 221 211 212 212 211 200 206 202
199 198 202 190 181 185 189 188 184 180 176 177 177 171 173 168 171 175 170 166 172 175 185 177 184 196 191 197 200 197 224 226 224 219 214 216 220 213 205 204 209 210 206
201 203 201 208 207 201 190 188 189 190 187 180 181 185 186 183 181 182 184 190 190 189 187 190 194 206 196 232 236 232 230 225 220 214 215 216 205 196 212 215 209 204 203
211 204 205 208 190 198 196 188 189 189 188 189 189 191 188 189 189 192 188 185 194 197 185 203 226 206 241 230 231 226 225 223 223 224 220 222 218 214 212 213 210 212 213
210 207 213 213 208 191 195 199 199 188 186 189 185 192 194 198 199 201 200 198 205 210 242 239 240 236 231 232 227 224 225 224 230 227 222 223 226 226 227 224 225 225 223
273 238 209 217 213 208 204 202 203 204 206 206 209 211 207 207 211 204 211 209 238 238 230 227 227 233 227 224 224 224 228 222 225 235 244 246 250 258 272 265 264 253 256
287 276 265 214 214 211 204 201 198 200 202 202 203 205 201 201 222 225 226 229 224 236 233 230 229 114 222 221 230 221 221 232 249 293 292 272 275 270 284 266 254 256 251
288 271 267 267 264 241 203 200 202 204 202 210 204 228 233 238 251 237 239 229 236 224 227 224 219 215 223 226 218 222 238 293 269 352 339 327 333 350 301 272 257 250 248
281 273 261 261 266 262 257 229 250 245 222 242 243 249 248 246 238 232 222 224 222 231 221 218 219 223 223 220 229 283 266 245 392 385 357 343 341 318 308 312 293 299 264
265 270 252 250 250 250 248 248 242 241 235 235 234 242 230 224 227 219 230 232 221 229 221 218 221 222 225 233 281 256 240 228 323 308 299 305 299 293 290 280 283 287 292
266 261 254 244 235 234 233 233 233 234 232 229 225 227 225 217 215 217 218 217 232 217 218 222 227 235 284 281 250 232 253 197 267 292 294 282 295 295 290 283 284 297 291
253 255 256 254 243 236 233 231 228 224 223 222 219 229 220 215 227 215 225 221 220 220 224 236 277 283 274 256 231 228 198 242 242 199 228 232 233 235 238 234 227 224 221
252 256 259 254 245 247 241 227 224 222 221 221 220 219 219 226 227 222 221 225 226 229 262 264 277 265 252 230 226 209 198 235 236 225 222 226 227 227 229 230 231 231 228
245 247 245 252 259 262 242 238 234 230 228 228 224 225 226 227 228 235 249 283 267 257 262 282 268 253 239 239 213 201 223 237 232 228 206 215 219 220 218 219 222 224 218
243 250 253 243 242 245 249 259 260 253 251 254 252 255 258 266 269 276 271 253 261 277 279 264 254 237 231 220 205 229 217 242 237 217 219 217 216 219 222 225 225 220 224
248 246 247 249 253 262 262 256 255 257 255 254 252 254 266 271 267 253 255 257 254 249 266 266 243 232 215 209 206 225 222 235 241 216 216 219 213 208 216 218 223 226 230
246 245 246 244 254 251 247 245 243 243 243 247 266 270 259 248 257 263 255 242 260 264 248 239 251 215 212 207 223 217 218 232 235 230 210 221 217 212 220 219 223 227 232
252 253 250 241 237 236 234 233 236 254 273 256 244 243 265 247 249 245 242 244 259 256 245 239 213 206 210 218 218 215 218 236 242 234 205 219 214 220 222 226 234 249 265
245 245 237 233 236 241 239 260 260 243 239 245 257 244 255 253 240 233 241 249 254 255 235 210 203 211 215 220 209 211 235 223 236 229 214 218 219 224 229 249 265 227 235
246 246 246 245 246 258 256 239 239 243 237 242 248 248 243 241 243 239 242 245 251 243 209 209 209 220 217 213 213 215 236 229 238 224 222 222 221 226 246 230 227 235 251
277 279 283 267 247 236 235 247 238 236 234 229 245 238 240 243 248 238 243 241 204 204 207 216 216 216 209 208 209 240 221 236 227 227 224 222 222 234 226 227 240 248 256

GFSMW_2pvu_pres_081.txt.gz
Presure
180 165 162 165 161 161 125 67 157 161 154 152 154 152 151 151 150 148 149 148 148 152 149 150 156 156 156 156 159 158 166 165 169 167 175 175 184 194 180 171 202 202 211
182 186 175 165 161 164 162 157 144 143 153 156 159 153 78 148 147 150 153 152 151 152 153 153 154 156 157 120 161 162 170 165 173 164 177 178 189 191 202 203 206 206 223
187 181 186 184 171 157 153 156 157 114 148 156 139 148 150 150 150 154 155 146 150 152 142 136 136 161 159 162 165 166 164 168 171 177 180 171 181 199 199 223 203 224 217
157 186 166 177 186 174 171 167 162 159 162 160 116 158 156 156 155 155 158 154 158 162 161 161 164 168 168 165 165 158 162 169 163 185 189 196 200 199 209 210 225 218 216
191 181 186 176 145 184 179 172 174 173 171 163 159 160 162 165 166 165 164 162 164 167 170 169 168 165 168 177 169 178 182 172 182 193 196 196 205 242 235 210 225 212 216
200 171 179 76 79 175 159 175 183 182 177 173 170 169 167 161 162 145 166 167 165 164 162 149 164 162 166 164 176 178 184 184 190 187 202 248 243 236 215 231 221 220 214
205 195 189 179 140 191 170 187 169 173 183 180 179 175 173 173 168 167 168 165 163 169 169 170 176 179 183 179 180 180 188 186 196 204 244 239 229 232 228 223 223 223 217
226 226 201 192 181 189 184 182 190 190 180 178 183 187 183 180 178 179 179 177 170 182 183 181 177 184 190 189 192 194 191 198 252 238 242 235 236 228 229 228 220 220 227
230 221 225 204 197 192 206 172 189 192 185 175 172 181 187 187 183 184 183 183 180 181 181 188 183 186 188 195 203 216 236 249 238 248 243 233 221 235 229 231 242 251 266
345 257 219 219 218 199 191 194 205 189 185 190 191 189 178 176 181 184 187 186 188 189 178 187 185 193 202 203 202 249 249 250 239 239 228 232 231 233 245 257 291 266 245
343 333 299 216 219 216 205 209 214 207 205 207 200 196 193 191 195 199 202 192 190 195 191 202 207 213 203 208 254 247 195 236 234 229 226 227 238 253 294 233 262 315 343
284 329 320 299 261 213 215 219 220 222 223 220 197 197 196 193 191 189 200 185 191 204 206 207 209 210 255 241 232 237 238 236 226 224 228 237 285 270 229 227 336 329 335
332 308 317 308 290 282 253 222 221 222 220 218 215 215 218 216 221 216 209 207 207 204 200 204 259 250 235 228 237 230 238 230 225 226 232 274 256 234 269 219 348 327 317
320 310 304 307 295 285 278 269 240 216 219 222 217 206 206 206 207 203 203 203 200 215 251 250 246 225 232 224 225 236 226 223 224 237 270 250 236 211 228 243 257 307 296
308 301 302 294 293 279 275 274 272 263 255 252 250 249 247 242 216 228 211 233 249 244 238 227 234 230 224 223 226 225 225 221 247 269 253 233 214 233 232 218 258 234 220
291 285 291 290 286 281 270 269 265 262 254 255 268 260 248 250 252 253 252 235 240 234 226 225 237 225 227 221 223 232 222 274 277 252 232 219 226 243 228 212 237 226 222
283 278 278 283 283 288 264 252 246 253 258 260 256 254 253 244 235 236 241 228 227 227 231 229 226 220 223 226 235 274 249 272 260 240 228 205 237 254 229 220 219 224 226
280 275 270 268 264 266 275 254 251 247 243 238 238 235 233 230 228 227 226 226 229 227 226 218 222 225 234 236 257 286 284 262 241 223 207 212 226 251 239 222 227 225 217
267 265 265 262 259 266 259 260 251 240 233 233 233 228 228 228 227 226 224 225 223 219 222 231 230 231 267 255 278 277 257 242 230 216 206 227 227 244 244 230 214 226 221
267 263 255 252 248 247 258 258 258 257 246 239 236 234 232 229 228 226 227 232 235 229 230 268 267 251 262 265 272 271 251 236 218 213 225 222 224 246 242 237 213 225 228
277 252 254 248 246 251 250 249 252 251 250 248 240 237 237 238 238 238 245 249 258 262 269 254 260 253 259 269 252 249 248 216 214 218 224 215 219 227 241 238 227 232 231
262 263 261 249 243 239 243 237 241 242 240 242 253 264 263 256 253 249 247 251 273 256 249 252 258 254 248 260 246 242 215 211 213 223 217 214 237 245 240 233 231 232 234
255 252 254 253 252 255 246 245 244 252 258 257 251 248 241 242 241 268 258 250 249 253 241 251 242 250 257 257 241 212 210 218 220 219 211 225 245 238 230 235 230 240 226
248 250 248 247 243 241 240 242 254 253 239 239 233 235 241 267 251 243 244 240 260 251 244 239 244 251 260 230 211 211 217 223 221 208 210 244 234 231 233 239 243 228 232
238 242 246 244 245 248 247 240 236 235 231 237 254 253 242 243 242 243 255 251 243 244 243 244 243 243 224 205 212 217 224 217 212 212 246 234 233 238 242 231 249 238 228
239 241 247 242 244 240 242 239 237 239 249 253 238 238 236 242 244 249 239 240 242 250 240 240 234 207 206 206 220 223 214 205 215 245 229 229 244 233 243 250 220 228 261

GFSMW_2pvu_pres_084.txt.gz
Presure
180 179 168 161 160 157 158 151 152 160 161 156 152 149 150 155 156 151 151 154 154 152 157 152 152 159 149 153 150 152 150 142 138 154 159 168 169 162 179 162 175 181 188
175 184 178 155 162 161 162 156 156 153 150 144 141 146 151 148 151 152 152 154 155 146 153 153 154 154 147 147 148 152 156 157 161 165 167 168 170 175 159 182 186 178 193
177 188 169 181 172 167 161 156 159 161 157 157 154 153 130 133 118 141 141 144 146 148 145 145 147 147 138 150 156 157 161 162 166 165 169 173 167 180 185 186 185 192 198
190 174 182 168 180 172 165 137 159 161 156 149 153 156 156 154 155 156 155 152 155 158 155 155 158 158 157 159 162 163 167 166 166 167 176 172 181 180 185 191 183 201 235
81 192 182 176 174 178 168 168 169 165 162 160 154 152 151 151 150 152 151 147 154 153 150 153 153 156 160 162 161 162 163 168 167 177 177 183 188 193 187 194 199 237 235
153 188 193 192 179 181 170 174 175 177 174 170 163 154 149 149 150 151 152 154 154 150 138 158 162 161 151 160 163 164 170 171 177 181 184 188 191 185 194 253 240 240 238
199 200 165 195 190 175 185 159 75 151 189 176 171 169 167 161 160 160 160 162 165 166 167 168 167 167 169 171 171 168 177 183 183 182 189 187 186 197 256 252 230 239 235
224 213 192 204 198 195 184 77 176 173 173 176 166 157 183 180 174 171 170 168 170 171 172 171 173 175 173 177 180 180 181 180 189 187 181 196 194 207 245 239 238 235 234
263 242 237 208 191 197 197 83 193 185 191 180 179 179 162 164 168 176 178 171 162 168 180 181 178 182 188 186 177 179 188 195 201 191 194 209 229 248 240 241 228 238 242
286 326 246 237 218 209 214 200 198 196 190 184 181 173 176 174 174 178 182 185 185 169 162 173 185 181 161 191 188 191 190 196 194 194 225 237 238 241 234 227 237 234 270
304 318 328 246 241 242 236 238 235 215 203 196 191 188 182 170 169 182 176 168 172 182 181 179 179 178 189 188 179 192 185 197 192 208 237 239 236 237 228 237 232 267 266
339 338 337 377 350 243 235 236 236 235 238 241 201 194 190 189 189 187 186 199 204 199 200 192 188 199 202 195 193 223 217 215 209 260 236 246 232 229 230 228 261 260 246
329 328 330 371 352 338 330 236 233 233 234 234 236 234 231 208 198 192 186 188 183 189 214 222 222 222 223 212 209 235 236 217 234 236 242 229 228 233 230 272 260 247 230
340 325 321 359 346 333 327 322 294 263 236 231 229 231 232 231 229 227 225 223 224 221 225 224 223 221 209 234 241 237 252 245 235 237 231 228 231 236 264 270 252 239 216
356 359 364 347 334 328 317 307 293 278 276 272 238 228 226 226 224 224 221 220 228 222 214 218 240 249 256 242 256 245 233 238 234 223 228 235 239 278 267 255 241 220 211
350 340 333 336 323 317 314 313 303 289 277 271 267 267 269 263 263 259 260 265 250 253 248 257 251 241 252 245 240 227 236 228 224 232 234 237 294 280 263 240 224 207 223
330 324 328 323 312 311 309 309 297 290 282 274 275 266 261 258 255 249 259 255 247 250 253 250 250 233 244 234 229 230 219 224 234 227 251 252 273 266 244 229 209 211 218
313 305 302 309 299 295 291 292 294 285 280 282 273 268 268 257 256 252 259 258 255 252 240 237 234 232 236 229 223 223 225 231 233 269 266 283 268 248 231 214 211 220 213
289 302 285 282 275 275 280 284 281 275 270 258 265 262 253 260 259 258 246 239 242 237 228 230 230 225 227 226 225 234 227 249 255 251 277 260 258 238 206 213 219 216 220
293 287 288 279 279 271 268 268 275 276 280 258 250 242 241 245 241 236 232 228 243 226 226 228 224 226 229 230 225 225 259 255 264 273 258 248 247 208 213 210 221 217 225
286 275 272 273 270 271 261 260 257 262 254 253 262 258 248 238 235 234 232 228 226 231 234 238 237 231 245 254 263 255 249 254 253 264 253 242 211 212 213 221 207 212 247
271 280 277 259 262 251 256 257 258 252 250 251 250 248 246 246 246 243 244 238 243 244 247 253 249 247 263 260 246 247 252 245 259 259 243 211 211 214 220 217 215 246 234
255 264 271 274 255 264 257 253 251 250 238 241 240 244 242 244 250 241 241 255 257 249 246 244 268 260 247 240 260 247 239 247 258 241 211 211 213 223 214 213 238 234 228
258 256 254 260 260 261 259 251 258 251 242 237 236 241 248 249 257 250 240 238 241 244 267 251 246 250 259 247 242 240 241 243 234 206 211 211 223 215 210 234 235 220 235
258 252 250 251 250 249 251 244 246 255 244 241 241 241 250 246 241 236 240 263 252 248 242 242 251 245 240 237 244 240 238 231 206 203 207 215 213 227 237 229 226 231 227
243 247 240 240 247 249 248 246 246 246 250 247 245 235 235 237 239 256 246 241 235 246 252 242 243 237 239 250 233 233 226 212 207 215 210 222 238 231 228 226 226 234 257

GFSMW_2pvu_pres_087.txt.gz
Presure
191 177 168 162 160 153 156 157 157 152 153 152 155 156 167 145 152 159 160 160 162 159 155 150 158 155 153 155 150 146 149 149 148 151 153 158 155 160 163 163 165 173 175
178 181 177 173 162 166 151 157 160 156 156 154 162 148 156 161 167 148 147 147 147 149 156 158 152 129 145 144 138 150 156 142 157 148 158 155 159 160 166 166 175 180 186
177 179 182 179 174 164 163 161 157 147 156 156 154 140 159 155 152 166 157 148 144 146 146 136 146 145 149 150 159 150 154 146 151 152 156 160 159 166 172 179 179 184 159
201 153 174 182 178 177 168 167 162 160 157 153 158 160 148 149 150 154 152 152 152 153 152 152 155 157 161 148 146 150 150 159 156 158 163 167 169 169 173 180 182 185 189
208 205 193 179 180 179 177 172 166 166 168 156 158 161 158 155 153 166 149 144 147 150 151 157 152 144 149 149 151 157 160 157 162 164 168 171 171 179 180 171 172 187 193
215 214 201 179 179 177 180 182 174 165 167 169 138 156 158 159 158 156 154 156 159 156 151 148 150 154 152 155 159 155 161 160 165 171 174 176 178 177 166 182 189 182 192
224 217 206 185 124 185 171 181 186 170 170 171 171 158 156 158 160 160 159 159 159 159 157 156 155 156 162 160 159 159 160 171 176 174 169 153 177 177 189 187 187 196 188
252 250 213 199 185 166 155 178 173 179 183 176 96 163 166 167 167 163 159 158 161 162 163 162 162 160 159 160 168 171 177 171 166 179 162 181 181 168 186 194 202 193 258
336 264 256 212 194 179 175 170 184 184 177 178 174 91 163 163 167 164 155 152 156 164 168 167 161 168 171 171 169 166 155 173 172 163 180 177 188 194 188 192 248 266 237
284 284 273 256 213 198 193 152 168 172 180 185 186 176 171 174 176 158 168 166 165 166 176 173 169 162 163 167 168 172 179 169 178 185 187 188 177 224 227 248 241 246 249
275 289 290 267 290 284 251 197 189 181 185 189 189 190 189 182 171 172 177 179 174 168 172 172 175 175 172 169 155 174 164 188 182 181 184 209 225 249 245 254 246 246 234
279 280 281 324 264 284 265 262 260 202 198 192 190 192 198 199 193 189 187 184 177 179 180 174 177 173 181 184 183 182 181 189 188 194 186 227 257 247 254 241 243 234 232
315 324 326 281 270 268 301 264 260 261 261 217 198 195 198 193 192 193 194 194 193 192 192 185 187 188 187 183 185 188 188 200 200 226 232 248 254 259 248 240 232 231 237
302 349 356 331 326 272 312 277 345 263 259 254 252 255 233 202 201 201 200 197 208 247 245 234 233 229 214 224 212 225 223 227 227 250 245 247 246 244 239 229 228 236 269
281 317 367 331 327 332 330 327 353 344 325 263 256 252 248 245 246 245 244 244 238 238 239 236 236 229 244 228 222 242 268 252 250 251 249 247 242 234 232 229 236 267 262
323 343 351 348 328 329 326 317 331 344 340 326 321 309 302 246 243 242 237 233 232 235 234 227 224 223 218 259 261 250 254 244 242 251 239 234 233 226 231 240 269 257 268
319 328 322 336 367 364 366 317 317 338 327 318 314 306 290 286 278 286 287 274 270 266 258 261 264 265 257 249 253 243 246 253 238 234 229 226 227 231 241 265 274 267 256
312 321 329 342 314 336 321 331 334 311 317 314 303 303 283 274 273 274 267 264 260 262 254 256 255 246 249 242 247 257 241 229 229 231 225 228 234 253 234 251 250 259 246
293 312 315 325 318 336 315 335 319 316 301 312 303 286 299 272 262 258 249 252 267 251 251 247 251 269 255 251 240 234 230 228 225 225 225 241 261 255 252 248 269 252 238
285 300 298 301 299 317 306 298 290 289 298 303 304 294 289 274 281 277 262 262 259 270 265 261 258 238 240 229 239 237 224 224 231 234 253 259 246 246 244 259 256 239 207
280 278 288 301 289 291 293 287 281 279 281 281 276 273 281 278 259 253 256 254 247 246 244 239 238 229 231 228 226 226 231 239 254 245 264 242 254 244 243 258 233 206 212
263 283 273 289 291 272 272 269 269 269 268 269 275 278 276 271 247 242 238 235 239 243 239 233 229 229 230 232 242 246 254 244 257 247 241 252 241 238 242 235 208 207 212
270 274 284 264 268 278 284 264 256 251 252 252 250 254 257 243 250 251 249 238 237 238 238 238 236 239 237 254 246 244 255 245 245 253 241 239 242 239 236 207 206 202 209
271 262 259 273 275 266 251 267 259 273 260 258 250 250 246 241 241 241 238 232 234 234 247 256 250 243 241 257 251 246 243 250 248 241 238 241 238 232 217 210 209 215 226
263 272 257 257 261 273 256 248 245 246 243 243 246 244 239 241 240 239 244 242 246 248 244 239 238 259 245 241 244 250 242 242 233 231 247 232 229 221 211 206 207 234 229
254 253 253 260 254 258 260 267 262 257 258 255 250 237 247 251 240 237 242 240 237 237 237 257 244 239 252 250 253 264 265 250 241 243 230 221 215 215 212 234 229 228 227

GFSMW_2pvu_pres_090.txt.gz
Presure
180 173 182 180 167 159 163 157 162 163 163 161 148 151 150 150 174 151 147 153 165 157 154 151 147 148 168 143 136 159 147 145 141 148 142 156 142 150 152 160 162 160 166
183 181 191 188 150 166 171 159 162 164 167 154 160 150 151 155 157 154 151 159 162 167 147 159 162 175 158 163 152 149 150 148 143 151 156 144 147 152 163 162 158 168 173
194 125 181 179 180 177 171 170 167 169 158 160 160 156 160 156 150 154 156 152 148 157 152 153 150 149 150 158 157 155 143 145 159 147 150 151 151 159 165 160 168 171 174
189 196 194 182 171 158 139 169 177 163 163 161 159 162 151 162 161 158 152 152 151 152 148 163 156 154 167 166 140 151 161 149 151 150 159 152 146 161 159 166 177 170 170
203 188 201 191 185 178 156 145 173 178 166 161 159 157 159 158 151 161 159 154 155 153 157 159 149 143 145 161 166 148 130 147 156 157 160 161 162 161 165 174 165 164 178
207 202 190 212 195 188 177 181 165 169 166 171 162 160 159 162 132 166 147 150 159 159 157 156 158 156 160 149 159 160 157 161 160 164 167 163 164 162 172 169 156 175 174
218 214 203 193 146 199 194 182 182 176 184 178 168 168 166 165 163 157 160 161 163 161 162 160 159 159 159 156 159 159 156 155 156 148 166 160 178 168 171 170 163 175 171
224 220 222 204 196 217 196 195 189 182 177 168 178 179 173 173 173 166 166 166 157 156 165 163 161 158 159 166 159 161 157 154 160 165 160 169 169 174 170 174 162 182 183
248 240 230 224 213 234 210 199 193 194 189 179 178 176 181 181 177 174 173 164 164 161 159 166 165 161 145 157 163 165 167 165 160 170 157 163 174 174 165 177 184 184 187
295 300 258 256 257 243 274 213 200 196 196 194 189 183 173 175 177 179 181 179 177 171 168 169 170 168 170 170 170 162 163 170 172 165 171 163 176 172 175 182 187 177 249
282 303 304 263 264 264 273 279 245 204 197 194 194 186 175 149 153 162 165 169 171 175 173 171 167 165 164 161 168 166 164 165 169 156 171 173 178 181 184 192 215 230 253
308 292 294 316 294 263 260 268 272 274 216 204 200 192 182 168 166 163 176 169 171 172 172 173 176 175 175 169 171 164 171 176 182 186 185 185 196 190 236 228 238 248 232
293 299 308 284 302 306 269 334 279 270 266 263 216 210 200 191 180 178 158 166 167 172 174 180 187 184 185 185 189 187 185 185 189 192 191 228 238 215 228 207 248 227 247
264 289 292 305 337 281 294 280 330 267 266 264 263 270 241 206 196 185 184 184 182 179 179 180 178 175 174 182 188 192 188 211 196 197 235 228 224 227 246 250 236 254 240
277 290 315 286 323 329 333 330 294 283 288 336 297 285 277 291 263 210 204 198 194 191 192 189 187 192 195 197 195 218 219 188 230 231 216 232 233 245 242 237 251 240 231
276 326 322 323 333 313 333 410 328 327 293 291 279 308 271 338 288 269 265 266 261 259 251 251 250 240 237 236 238 226 229 221 223 220 256 233 250 240 237 254 240 230 225
278 298 299 305 315 310 354 350 344 319 319 321 316 278 277 275 267 266 264 263 261 250 246 235 236 236 230 226 218 155 231 246 247 244 254 247 243 259 240 238 229 226 227
285 292 306 284 320 328 327 334 345 318 318 320 312 306 319 309 330 315 345 310 297 290 275 278 305 287 277 271 262 254 254 254 254 244 239 257 243 241 237 228 227 236 247
278 275 281 298 316 324 336 360 319 312 328 321 304 302 349 333 337 304 300 327 269 289 277 289 271 265 268 272 260 257 246 247 240 271 242 238 233 229 227 228 253 240 255
276 283 286 292 313 306 332 316 340 357 339 348 316 317 304 319 307 304 295 285 305 274 266 262 267 249 252 245 239 241 265 264 242 236 241 228 228 230 234 254 241 250 259
263 276 275 282 298 304 306 307 333 316 334 331 303 317 320 300 310 313 288 271 275 280 281 263 252 257 264 256 254 253 240 240 233 228 229 234 232 256 245 252 243 250 241
259 270 276 285 287 285 302 286 312 302 302 299 297 293 289 291 270 286 267 283 263 267 265 261 244 249 250 240 240 239 237 235 236 236 236 254 243 260 248 239 250 239 238
263 260 281 261 275 280 282 274 280 288 288 285 277 279 277 275 266 271 272 263 281 256 245 263 246 235 234 244 236 234 237 235 250 250 245 260 246 243 240 241 237 236 239
251 262 266 267 280 271 281 269 258 269 263 271 266 268 256 276 267 263 260 253 255 257 252 243 245 237 233 235 236 235 252 246 240 253 245 251 260 295 267 246 241 237 228
266 260 259 270 272 276 260 264 271 274 268 253 255 253 248 253 259 250 244 247 241 236 236 237 234 233 236 246 249 239 245 249 246 258 254 262 256 248 240 239 234 233 237
273 272 260 254 267 251 278 268 264 254 260 249 261 255 252 246 245 243 237 237 236 235 233 236 241 242 242 237 250 244 245 255 243 245 245 247 247 249 257 259 248 239 233

GFSMW_2pvu_pres_093.txt.gz
Presure
191 177 168 197 180 166 163 162 166 162 158 149 150 155 165 165 160 150 147 150 152 153 178 171 134 152 148 157 159 149 157 150 160 155 164 152 165 158 157 142 155 155 159
199 171 165 169 196 177 165 157 169 168 161 166 166 158 159 156 147 143 163 158 153 157 152 150 150 146 152 146 160 153 156 162 154 163 142 153 162 147 163 155 158 162 157
212 197 188 177 169 174 167 163 169 142 161 163 150 163 162 159 167 166 169 161 156 150 141 142 158 150 159 151 156 153 154 144 154 140 154 150 152 159 158 163 152 157 154
174 192 192 190 178 176 167 184 180 176 162 150 158 162 157 161 156 159 162 164 163 162 163 147 157 152 153 152 149 142 156 156 150 151 145 147 156 151 155 160 161 160 171
188 183 185 196 188 171 175 178 181 187 173 173 171 171 148 166 165 165 147 162 156 159 138 152 160 157 157 159 159 163 154 146 158 159 153 158 147 157 155 166 153 166 167
195 187 201 181 187 193 177 169 173 170 185 166 175 160 152 163 172 163 170 160 163 164 161 160 159 158 156 145 163 164 160 161 154 157 162 162 157 156 155 162 168 166 174
201 200 189 182 194 182 193 190 179 175 179 176 172 185 138 151 164 161 158 171 168 160 157 163 167 164 163 160 163 149 162 159 161 158 163 150 151 158 169 171 164 173 167
204 202 200 194 181 190 193 193 169 189 179 176 176 180 184 155 176 172 168 165 171 173 171 164 170 166 154 164 169 161 160 161 149 146 157 165 170 169 163 170 162 167 172
219 213 206 203 195 193 190 216 181 188 182 188 189 176 178 179 165 181 178 165 167 154 166 168 165 169 169 167 169 165 161 169 160 170 169 173 174 165 173 170 178 178 181
243 234 223 217 214 207 182 201 204 215 181 180 186 184 182 183 186 183 179 181 180 177 147 177 174 168 172 172 172 174 174 172 168 163 169 169 173 172 175 176 181 186 183
256 254 248 238 231 225 222 212 202 200 199 192 190 197 191 190 189 188 189 190 188 163 167 161 174 164 169 172 159 159 160 160 167 168 171 172 172 179 178 178 179 181 187
264 256 256 251 254 251 241 235 229 228 206 201 199 192 194 210 202 193 191 193 194 192 190 183 179 145 174 162 161 179 174 165 165 173 168 178 177 175 175 175 173 189 183
306 283 255 274 264 258 255 252 261 252 244 232 215 201 196 194 204 213 204 196 189 189 191 191 190 193 186 167 159 176 153 165 162 166 164 170 177 171 176 177 193 188 204
280 287 301 284 308 306 269 258 263 260 284 285 268 249 228 203 200 219 211 211 202 194 191 184 185 185 179 174 170 165 165 170 174 178 176 175 188 176 180 190 192 225 233
272 271 266 271 286 297 299 303 288 262 270 306 278 274 274 278 289 284 278 276 220 202 200 201 200 196 194 195 184 181 179 178 180 181 184 187 179 190 226 216 230 240 246
268 271 270 293 260 270 274 311 303 310 346 303 329 312 291 285 285 280 277 278 284 281 273 263 213 203 199 198 195 193 192 190 189 191 195 234 237 222 227 244 259 239 241
268 274 265 269 290 301 295 265 306 315 310 293 359 341 314 298 286 337 286 329 338 280 264 265 270 271 262 276 275 267 259 252 245 237 233 212 155 253 253 250 248 254 238
286 285 288 299 287 278 303 303 296 320 305 334 254 362 344 331 322 313 294 287 282 341 326 334 289 260 312 296 262 249 250 250 270 243 264 223 251 248 256 249 235 259 243
284 297 299 283 275 281 307 309 326 335 331 335 343 346 352 322 317 315 309 307 341 285 270 277 286 311 282 302 292 295 292 282 264 244 246 253 250 246 240 239 246 239 236
274 281 251 265 283 290 294 293 315 312 337 355 348 354 336 329 318 311 312 295 294 289 299 279 268 285 304 256 257 252 265 272 252 247 249 243 247 255 255 237 236 234 234
259 267 265 265 275 277 300 292 303 326 301 331 363 327 356 309 308 304 320 309 292 314 304 297 297 281 266 263 271 260 246 249 234 237 248 254 243 240 237 233 235 237 255
274 252 261 262 261 273 282 285 295 300 305 329 322 328 319 334 312 318 293 305 307 316 294 279 264 274 261 270 271 274 265 265 258 251 243 239 239 233 234 236 254 243 256
261 262 266 262 256 263 278 290 282 287 287 312 304 314 313 306 305 279 303 295 283 270 288 272 267 267 249 264 255 248 254 248 242 230 239 233 234 234 252 244 254 260 271
264 265 262 276 280 255 270 274 277 277 275 290 289 286 288 288 290 287 277 278 269 271 286 286 268 274 262 248 251 237 241 243 237 235 234 241 250 242 254 253 251 253 246
255 249 259 255 255 258 263 275 273 281 271 263 264 267 266 272 264 272 274 261 261 272 266 266 261 253 244 244 241 238 234 234 233 243 246 243 250 257 252 245 245 260 252
251 263 272 277 267 261 260 265 273 262 273 260 252 249 273 270 270 266 261 249 246 250 248 239 242 239 240 229 233 235 234 244 241 238 256 262 253 268 263 251 245 190 243

GFSMW_2pvu_pres_096.txt.gz
Presure
233 226 203 182 173 172 155 159 164 167 167 162 160 158 157 157 160 160 157 143 154 153 152 151 148 144 145 147 146 175 131 144 141 148 148 150 153 147 156 148 158 157 135
218 247 197 205 178 142 178 164 156 160 161 162 154 160 160 155 144 153 158 166 161 160 175 150 155 159 155 163 148 149 151 158 154 151 156 155 140 158 151 153 158 160 154
172 206 185 206 175 177 186 180 173 159 164 162 164 168 163 163 166 164 144 153 157 159 160 158 163 163 158 155 146 140 140 143 142 150 152 160 160 150 161 161 155 154 153
172 223 235 223 203 163 170 190 184 156 168 159 156 134 166 167 165 164 164 161 172 169 162 161 162 171 162 146 162 159 160 159 157 150 158 144 153 168 159 156 161 158 165
175 170 242 254 219 202 180 155 175 188 181 177 171 159 162 166 168 173 166 172 168 172 160 155 166 162 165 160 154 152 150 150 152 155 168 146 159 146 164 155 157 160 165
194 173 210 252 231 163 153 183 177 159 153 170 178 174 171 170 167 166 164 172 143 169 170 177 179 169 176 156 164 161 178 161 161 159 165 152 161 163 165 159 148 166 171
182 190 176 169 208 223 188 187 181 174 174 155 171 181 178 163 170 169 173 175 172 154 152 179 159 172 191 165 163 170 165 168 156 171 149 167 143 168 153 172 169 174 161
206 197 183 178 173 171 187 208 195 138 177 169 160 162 168 166 167 183 161 165 179 177 167 167 170 185 160 180 178 161 166 169 164 172 171 174 166 144 173 173 163 158 167
213 209 197 191 186 177 172 175 206 199 190 178 178 166 155 166 166 160 163 171 170 175 181 181 175 172 178 180 176 155 154 166 169 171 171 172 167 164 162 176 161 174 175
219 213 206 151 186 183 183 182 180 204 200 199 191 182 173 175 173 175 177 179 178 177 175 177 173 171 171 168 163 165 141 179 157 172 165 153 168 177 158 173 165 164 164
227 220 214 212 197 192 187 186 185 182 119 174 172 178 182 184 185 185 165 170 171 176 180 182 174 182 188 183 181 179 174 179 176 175 183 179 168 166 176 153 161 157 171
249 237 223 221 214 210 195 188 182 184 185 184 181 189 179 177 177 179 181 184 185 190 190 184 179 180 183 177 174 182 180 181 182 182 185 182 183 185 153 171 184 172 168
261 248 248 241 225 219 215 214 201 194 193 191 193 193 191 191 196 192 190 190 189 187 188 184 179 176 182 189 187 188 187 185 187 185 185 182 158 181 184 167 170 180 182
260 276 264 253 246 246 238 228 225 223 219 207 201 198 194 195 196 193 194 219 207 203 204 203 198 189 175 194 192 197 201 201 200 196 189 182 183 186 190 189 190 189 191
268 270 264 260 264 282 264 256 250 249 250 250 248 240 225 213 211 210 208 204 201 204 205 196 191 187 183 185 183 183 194 195 195 194 198 195 194 194 192 194 159 197 177
246 253 256 268 277 260 283 260 261 261 266 267 267 267 276 273 274 268 264 247 225 208 205 204 203 202 202 204 202 199 200 223 271 251 210 209 204 205 247 233 251 249 236
267 270 267 261 268 273 276 284 287 292 272 260 312 322 335 344 326 328 299 298 292 281 268 308 293 279 239 210 228 221 264 274 290 267 254 248 265 243 286 261 243 252 260
277 278 273 268 277 287 267 280 278 291 281 281 285 295 293 297 321 328 354 348 340 325 318 341 339 309 336 357 337 352 362 347 304 302 314 291 274 289 246 269 266 252 241
268 269 268 270 271 295 277 281 289 290 291 314 312 282 289 336 343 303 308 313 329 352 335 320 294 279 272 279 285 278 272 303 324 269 309 287 258 233 267 257 255 255 251
266 275 266 301 264 265 279 280 279 306 305 277 268 325 326 348 360 349 347 394 326 298 335 329 319 310 307 306 329 327 277 303 261 263 285 255 264 266 248 251 247 235 237
294 291 282 285 279 272 285 287 290 288 286 285 293 335 328 328 325 348 350 333 327 326 320 316 336 296 298 300 290 290 271 272 270 275 259 257 266 257 248 235 238 242 243
280 278 272 264 277 262 258 273 278 279 281 281 308 305 307 335 352 366 331 320 308 303 300 301 300 300 308 298 283 266 298 269 278 252 270 248 250 249 252 253 249 230 233
273 282 283 268 259 270 263 257 264 276 279 286 295 292 317 312 321 333 305 299 289 280 317 283 299 314 298 279 276 267 254 256 269 269 263 253 258 249 239 235 233 237 237
272 268 266 267 256 263 272 269 254 267 274 266 284 276 290 288 311 321 285 286 306 299 290 299 281 296 286 271 280 273 254 254 248 243 241 241 229 238 234 235 235 250 255
263 262 262 267 266 260 259 264 268 260 269 271 276 276 282 275 278 272 263 288 296 293 288 282 286 301 269 281 265 252 262 251 249 247 239 236 235 234 233 242 244 258 239
258 259 252 251 256 249 274 274 260 258 262 277 276 273 262 268 271 277 250 251 264 261 266 266 277 252 255 268 251 259 258 252 237 239 235 232 231 239 239 243 249 238 242

GFSMW_2pvu_pres_099.txt.gz
Presure
74 210 215 208 198 185 187 176 173 177 169 167 167 163 184 161 157 146 139 147 146 156 151 153 155 156 155 149 152 154 155 151 148 152 158 144 193 153 152 146 166 145 146
199 215 211 197 140 164 190 189 181 173 168 144 154 137 161 145 155 156 159 161 155 154 155 157 152 167 150 155 152 161 177 155 158 160 150 167 143 139 166 155 154 152 149
167 193 222 215 209 206 172 193 173 181 172 168 167 160 173 166 161 159 157 159 158 154 162 162 167 166 162 168 175 165 183 157 143 161 169 155 159 157 151 147 146 152 151
178 180 199 222 196 222 208 204 191 153 168 171 164 151 147 181 170 170 165 168 158 160 165 160 167 165 142 160 146 175 157 177 152 159 155 154 158 173 168 162 174 161 172
175 207 184 210 227 197 221 212 195 183 169 169 177 177 167 163 167 176 162 159 166 170 165 171 187 166 173 164 177 164 195 157 162 167 179 161 178 161 163 169 148 171 139
178 178 178 194 229 175 185 222 212 191 181 168 158 168 176 178 163 173 176 170 171 148 171 154 147 179 173 183 175 185 174 172 185 154 155 156 171 174 170 152 172 170 176
204 180 178 188 211 197 175 192 227 209 171 189 174 169 170 171 179 177 179 154 173 167 179 180 179 148 175 169 159 158 147 161 169 171 191 151 175 168 169 160 171 171 153
196 193 188 214 192 231 180 170 152 227 211 200 187 168 169 156 164 169 164 161 175 177 185 158 190 178 175 173 189 172 192 181 173 181 173 169 170 160 158 180 165 174 156
217 211 195 186 209 197 174 175 172 164 228 212 195 187 179 148 161 149 157 174 170 168 160 166 167 173 160 157 179 176 140 182 172 172 170 179 152 180 181 136 182 179 178
225 206 202 189 189 199 177 178 171 168 210 225 193 201 192 185 164 169 172 170 169 168 180 188 175 173 167 167 161 177 178 176 168 174 179 168 182 176 177 177 178 181 184
232 231 211 195 200 208 235 239 181 177 168 168 198 217 205 195 176 168 161 176 168 141 170 169 153 170 179 154 171 172 177 177 181 172 179 184 173 175 177 180 180 183 188
257 245 245 216 221 213 221 214 228 172 175 170 164 199 216 205 192 186 183 178 177 181 179 179 183 184 179 182 181 181 183 175 183 178 175 185 179 166 172 181 181 182 197
262 264 256 236 223 223 221 221 205 235 191 188 175 172 168 170 164 186 197 193 191 187 184 180 174 172 179 180 177 180 181 189 187 173 173 177 185 198 197 186 184 181 180
258 261 258 249 239 226 220 219 216 218 195 184 184 181 182 182 180 180 180 177 176 178 182 191 190 175 183 185 185 184 188 193 191 195 192 190 185 182 191 185 187 191 190
264 257 253 250 247 241 224 222 219 219 214 203 197 193 192 191 203 194 184 181 185 183 186 191 196 197 191 187 187 193 190 183 187 189 197 195 195 193 189 199 191 193 195
263 262 266 262 254 247 247 243 224 223 221 221 215 222 203 203 202 202 199 195 212 195 193 193 193 191 190 191 201 192 208 193 199 197 200 219 200 197 195 199 206 205 226
244 260 260 262 268 262 266 267 254 249 244 238 236 234 231 223 214 212 211 207 206 207 210 208 209 205 204 202 201 200 200 202 205 205 211 214 213 212 206 229 223 252 260
243 242 253 254 261 268 269 269 267 266 268 273 272 269 270 268 208 264 263 262 262 259 263 268 269 281 320 331 266 270 278 274 282 277 265 328 369 371 341 262 251 296 268
248 249 251 250 249 249 248 251 259 267 264 264 262 263 264 265 268 275 275 278 278 277 278 278 276 290 336 327 331 364 339 333 318 320 297 280 271 284 248 262 291 266 274
270 268 253 249 250 253 266 253 251 250 250 246 259 268 300 298 303 302 302 297 303 308 310 313 317 373 402 336 339 334 334 320 258 316 310 331 263 269 293 273 255 251 263
266 264 265 272 279 284 273 277 293 286 287 282 290 297 296 297 308 315 319 316 319 329 332 349 360 395 375 344 326 300 315 332 321 319 301 313 292 274 269 272 251 251 251
264 265 263 270 273 287 294 301 290 297 288 279 291 295 299 296 303 313 313 315 338 355 370 366 396 325 344 338 318 309 334 298 314 290 299 283 280 265 266 260 240 246 246
266 268 268 296 297 300 252 273 275 283 265 277 271 275 278 294 301 303 312 331 328 342 350 342 333 321 325 333 297 294 301 286 290 280 267 285 267 255 243 249 259 253 241
280 285 278 288 286 290 286 266 267 274 259 266 276 268 274 285 286 286 295 303 317 323 313 313 337 341 308 294 301 289 298 287 273 258 262 266 274 254 263 265 244 238 231
273 281 296 262 279 278 280 263 263 270 260 269 271 276 264 275 279 275 283 287 286 311 305 301 297 299 301 296 290 294 282 271 273 254 268 253 249 247 246 240 245 233 234
284 272 263 273 274 266 261 262 261 263 265 259 269 276 264 274 279 272 274 278 270 269 267 278 297 294 290 283 285 282 259 262 246 262 252 243 257 233 249 240 233 229 228

GFSMW_2pvu_pres_102.txt.gz
Presure
89 197 136 186 188 202 195 191 181 141 103 175 211 190 167 165 191 158 157 141 151 140 152 158 161 158 154 160 162 158 155 156 149 127 161 164 149 168 166 151 145 154 149
193 189 190 187 194 189 208 198 184 186 169 177 167 162 164 171 156 159 162 157 161 155 154 158 161 152 143 150 149 158 159 154 156 168 168 165 157 155 158 151 149 166 167
222 185 190 186 177 192 199 212 195 128 186 171 170 174 154 165 169 154 148 170 164 165 168 170 166 162 162 154 169 151 159 153 167 128 147 152 142 173 164 163 162 163 166
213 205 195 191 188 189 191 191 207 116 167 188 169 166 167 166 167 158 160 169 143 145 151 162 157 167 167 165 166 161 161 167 162 169 170 161 166 165 184 176 161 174 166
205 224 231 193 192 193 193 190 194 205 200 186 180 177 174 168 167 171 173 165 158 175 143 152 173 177 175 167 166 173 176 175 188 164 197 166 163 176 151 166 186 183 175
195 200 223 213 168 168 193 183 198 195 202 203 181 159 169 180 175 171 165 162 149 172 171 169 175 159 169 180 178 181 172 171 147 175 167 180 171 179 186 166 169 175 144
185 196 250 184 172 159 153 202 173 198 206 198 192 197 187 169 173 148 177 171 173 176 179 181 177 173 179 173 161 167 191 185 168 203 162 177 156 178 153 143 204 166 175
195 181 206 250 163 165 172 187 199 178 200 203 163 207 188 188 181 179 175 177 180 137 172 154 174 166 170 184 162 161 145 173 159 172 190 170 170 126 177 132 187 180 169
250 200 188 216 203 183 168 168 170 214 180 199 206 166 205 198 183 150 184 184 172 150 170 171 149 165 171 151 161 165 171 180 164 150 159 177 169 167 191 184 184 179 194
252 244 223 212 219 198 170 171 173 179 206 180 199 210 172 195 194 199 190 184 169 186 153 176 174 170 171 180 180 168 176 175 166 159 164 178 171 182 187 176 178 175 181
257 250 234 237 213 201 195 182 171 170 185 179 197 213 170 171 169 203 173 191 195 181 186 177 180 180 185 178 177 175 184 167 182 181 179 177 188 173 171 176 179 179 178
255 253 249 240 230 213 191 214 191 179 176 178 176 182 229 173 168 166 210 211 210 199 190 182 180 181 183 156 185 187 184 183 180 174 192 184 179 171 180 181 181 181 196
252 250 253 247 238 223 217 197 215 191 186 177 180 204 177 239 161 170 169 189 164 219 209 201 197 194 193 187 186 187 174 189 185 189 193 192 180 185 183 196 196 181 188
260 255 249 250 249 247 231 211 206 210 204 187 177 184 188 188 245 195 176 176 172 171 163 186 168 199 182 196 183 175 199 189 181 174 177 187 183 188 188 191 194 209 203
269 260 255 252 250 249 243 235 212 215 207 203 199 197 198 199 246 232 172 175 180 176 197 174 167 168 202 198 179 182 183 180 180 194 187 186 182 181 193 201 196 201 193
269 266 262 257 251 251 252 251 243 227 226 215 213 212 215 218 214 231 231 215 182 181 183 182 181 175 176 180 181 178 182 186 182 208 182 187 188 201 201 200 199 221 204
266 265 262 260 262 265 257 251 260 258 247 237 244 228 225 225 223 222 222 231 238 219 195 189 197 205 223 223 219 162 194 202 185 190 196 198 195 196 199 205 211 214 217
271 260 258 261 266 274 271 270 265 260 257 251 240 241 240 240 236 231 226 224 218 213 210 205 203 203 221 224 235 203 171 204 203 201 202 206 211 215 221 250 276 331 283
245 249 262 260 259 262 270 272 268 266 268 269 256 247 243 242 242 243 240 239 237 235 235 231 228 227 225 227 227 229 230 225 229 268 268 265 266 331 339 269 323 269 311
248 249 246 246 249 250 250 249 253 261 269 265 266 270 269 270 272 271 271 270 271 273 273 273 275 273 276 282 284 285 284 324 321 322 353 322 272 273 319 323 306 342 304
252 252 244 243 248 243 242 245 251 254 254 257 267 253 258 255 253 253 260 259 261 264 263 263 266 275 295 337 343 367 381 360 349 399 351 296 333 309 290 321 327 295 292
259 256 251 253 252 252 250 249 261 260 269 254 250 251 255 254 313 258 288 314 311 309 312 319 327 327 330 378 384 380 394 374 361 345 329 322 312 305 304 279 288 280 276
255 252 251 250 251 256 254 267 263 266 268 268 289 270 288 289 290 284 291 291 289 298 302 307 313 331 343 359 352 314 326 324 331 321 301 310 293 301 290 279 290 255 261
269 261 262 263 266 268 262 263 265 273 288 309 295 294 287 251 270 281 275 288 283 291 289 289 287 324 309 325 348 299 305 307 317 295 284 282 294 276 273 263 254 276 255
267 269 272 258 270 265 260 268 279 279 293 291 284 277 269 266 267 272 277 282 281 271 286 288 291 307 310 301 300 307 306 297 291 290 296 283 267 278 258 259 265 261 273
265 264 284 265 264 280 282 281 296 267 277 278 269 263 262 268 266 265 265 266 279 272 287 282 283 281 281 284 297 290 282 285 292 295 281 275 275 262 264 246 265 248 252

GFSMW_2pvu_pres_105.txt.gz
Presure
199 191 187 181 178 126 176 168 154 175 171 167 145 120 203 169 180 190 143 149 166 158 151 153 143 156 129 180 161 160 169 157 138 171 172 157 145 159 153 164 181 144 142
169 196 190 193 188 178 162 152 220 184 178 176 204 189 104 176 123 149 171 172 160 174 154 152 161 159 154 150 150 152 150 160 166 165 175 158 159 148 156 147 130 170 161
240 198 190 187 189 196 172 174 177 177 190 193 186 175 171 172 168 153 191 172 190 179 179 157 158 162 162 164 160 162 163 145 170 172 160 179 168 160 180 174 167 172 168
165 236 196 183 180 151 195 178 177 184 190 213 196 192 175 182 176 176 167 162 211 156 171 163 172 159 149 137 163 177 168 162 170 180 183 190 174 192 184 179 159 160 173
231 263 239 226 155 187 181 178 171 176 177 185 179 196 189 178 177 165 163 166 167 164 170 162 164 161 167 214 146 155 171 144 153 167 175 184 189 203 182 158 184 159 180
232 281 231 210 188 187 183 211 191 179 183 186 190 179 187 118 175 178 173 175 174 176 169 171 162 140 175 176 171 180 177 156 188 189 160 153 195 165 172 155 169 175 159
269 267 273 216 176 200 180 187 201 193 172 185 180 179 186 198 184 177 174 172 179 172 171 169 173 155 174 178 167 163 185 184 179 173 174 189 182 138 142 184 157 156 154
267 268 272 251 210 164 186 182 219 186 188 180 182 177 179 183 184 200 181 161 156 152 177 134 162 164 144 174 175 170 169 165 172 152 169 159 163 177 166 186 153 174 190
268 262 268 183 208 208 205 208 231 220 192 191 190 189 177 181 181 183 194 200 190 180 177 177 178 172 162 178 172 181 150 167 178 153 183 182 192 185 184 170 195 188 176
260 268 266 247 254 241 204 150 203 195 196 179 182 185 180 176 183 190 191 187 186 189 190 142 187 189 191 185 166 161 185 172 166 185 191 180 186 189 182 195 186 188 196
143 269 266 254 209 247 197 192 194 196 170 212 196 204 193 193 183 174 188 192 192 194 149 164 197 190 184 178 175 190 162 189 190 188 181 171 186 167 198 172 167 198 185
276 273 262 249 258 251 257 190 191 199 198 173 164 165 188 180 207 178 178 177 192 196 199 195 197 172 201 199 180 189 175 193 160 196 196 201 193 196 155 193 175 174 173
274 269 258 251 255 260 262 256 186 182 198 202 193 163 165 166 188 190 203 166 164 182 195 203 195 185 163 162 152 186 192 152 193 165 202 184 163 201 193 176 204 201 183
279 273 260 253 249 253 251 249 247 224 184 191 207 202 215 171 163 168 172 185 198 177 173 185 196 190 211 163 198 160 161 194 170 175 180 188 172 205 190 197 181 195 208
275 263 256 255 252 249 247 247 248 244 239 229 192 208 201 190 181 171 169 169 170 187 229 229 186 202 194 212 219 211 169 164 168 165 175 184 173 170 203 206 208 200 204
277 265 260 257 255 253 248 243 247 248 250 248 246 230 210 194 202 203 204 180 181 174 173 172 174 161 182 180 237 239 229 173 172 173 174 189 214 181 213 176 184 215 218
285 277 270 267 266 262 254 249 248 247 249 248 250 249 240 212 210 195 194 193 208 203 187 183 186 188 197 210 244 238 232 222 189 146 205 201 192 233 231 226 221 220 221
286 284 218 283 281 282 267 260 255 251 251 252 255 252 249 247 240 233 225 215 210 206 214 211 211 209 208 211 210 213 217 218 231 245 199 218 211 201 204 241 238 227 227
272 277 253 269 265 255 238 269 269 265 266 265 255 253 252 253 253 253 255 241 242 235 234 237 235 233 230 228 230 229 221 218 217 219 222 221 225 230 233 231 234 269 271
277 271 151 257 261 204 250 262 265 269 271 275 275 275 278 275 272 265 261 257 255 257 254 252 249 247 243 244 245 246 251 259 270 272 280 281 305 280 327 277 409 312 317
263 264 241 264 260 258 258 253 254 256 257 260 260 261 262 263 267 269 267 264 268 286 266 263 263 263 267 271 276 271 287 282 252 346 368 302 354 377 387 364 368 342 319
263 265 253 254 251 247 259 253 249 249 251 252 251 252 249 247 246 238 236 239 255 250 254 254 259 253 254 228 241 255 292 319 353 376 383 394 369 373 363 328 305 294 308
258 279 279 268 269 262 256 251 260 255 252 254 254 251 253 265 270 270 286 274 278 296 273 301 306 304 293 301 301 309 307 318 357 353 341 331 332 315 306 308 300 298 303
273 276 267 258 259 260 257 257 244 246 253 262 262 263 262 271 264 286 280 304 300 290 287 285 288 259 291 282 284 295 297 324 328 306 318 294 297 301 298 292 300 292 288
257 248 254 255 254 255 256 256 248 248 261 260 260 255 268 266 275 279 269 284 279 278 277 277 293 287 280 284 283 296 283 308 292 309 301 286 286 283 294 302 281 283 272
258 260 263 250 247 246 247 251 265 257 258 254 270 269 271 278 283 287 277 275 270 266 271 279 277 272 281 286 283 281 269 274 293 284 286 276 283 302 288 278 276 268 271

GFSMW_2pvu_pres_108.txt.gz
Presure
173 194 108 189 177 169 193 185 199 155 76 181 153 139 100 197 198 185 195 192 125 192 137 134 135 153 192 159 160 163 150 146 150 150 150 175 153 153 146 164 156 155 143
233 156 167 142 194 179 168 161 171 141 153 175 166 139 175 180 122 153 161 164 167 169 167 167 168 165 141 149 153 161 164 163 172 164 161 159 161 154 170 157 160 175 164
225 164 219 210 179 194 122 173 179 145 160 157 171 168 152 144 159 184 162 151 114 101 118 160 177 178 175 168 168 170 182 189 192 149 162 164 162 181 167 170 162 150 180
163 223 187 217 216 180 111 223 176 169 156 165 149 313 159 169 146 169 171 191 174 181 185 184 197 154 162 135 188 182 179 175 171 175 181 145 162 136 169 147 156 171 172
248 229 132 171 204 180 179 178 131 163 162 178 167 144 199 187 165 177 177 181 193 163 168 169 170 169 174 173 173 169 169 171 168 176 146 172 133 188 144 158 179 136 180
247 280 178 215 185 205 140 186 171 184 160 172 163 172 177 161 166 172 184 187 187 181 217 208 181 204 176 179 169 173 176 136 158 170 180 182 174 178 183 175 179 193 181
148 261 232 202 188 177 191 201 171 180 162 186 179 181 172 175 149 198 166 166 186 208 186 181 171 183 182 187 176 155 148 177 180 185 171 167 174 175 148 178 134 159 179
268 289 203 158 201 207 237 180 180 170 149 174 196 148 151 155 165 161 106 175 172 177 194 179 180 181 173 157 162 162 175 150 168 178 172 175 163 149 135 182 169 187 194
248 286 264 290 150 204 200 255 212 192 180 155 176 167 177 171 170 176 172 173 173 166 175 184 185 184 180 187 153 181 172 172 179 174 174 168 185 143 187 167 181 196 184
253 213 254 249 244 258 232 213 197 230 188 171 171 174 169 169 196 172 171 170 169 169 169 174 179 182 182 183 196 172 189 183 157 190 190 192 177 185 167 187 161 194 187
272 259 237 253 246 269 270 273 252 266 239 193 198 181 182 197 195 188 173 167 175 165 169 175 176 175 176 159 149 141 166 178 188 188 187 195 171 153 168 179 162 188 178
285 244 257 265 260 265 268 283 162 272 255 200 182 183 198 182 198 199 182 182 171 179 168 185 185 175 182 183 188 189 191 191 153 155 151 177 159 152 189 164 153 170 153
260 258 261 263 257 255 261 274 283 185 270 256 234 195 156 172 222 161 193 198 197 184 188 185 180 170 176 176 168 178 179 186 187 189 186 167 160 196 154 179 200 201 163
270 266 269 264 266 270 258 257 253 252 255 252 233 206 195 198 195 200 192 147 161 166 178 183 187 187 177 179 179 182 180 197 186 196 179 146 173 173 174 186 161 205 204
281 281 275 265 265 265 269 269 260 256 252 254 247 256 264 253 192 191 198 184 179 176 167 161 161 170 171 177 173 168 172 172 173 194 207 208 200 181 183 178 197 216 215
312 318 294 283 279 277 277 275 271 269 269 261 254 254 260 248 171 175 188 192 184 173 171 169 187 168 169 171 172 173 169 162 172 174 173 172 177 179 180 183 206 239 236
300 292 289 292 281 271 269 264 268 271 265 257 249 249 249 252 213 200 181 176 179 185 212 206 202 186 173 179 178 178 184 177 173 181 181 180 181 189 191 200 202 208 222
301 272 297 291 305 284 270 267 271 267 260 255 251 249 251 251 251 254 255 250 250 247 239 236 219 217 205 218 211 202 190 186 192 202 203 194 199 204 214 232 218 220 225
316 290 286 287 281 271 267 268 241 209 260 257 255 252 252 247 246 247 249 249 251 250 250 250 249 247 246 235 232 225 225 223 218 224 223 223 231 240 235 233 239 245 242
295 272 297 297 283 297 267 266 265 262 259 260 261 137 248 254 251 250 251 250 254 255 254 154 253 254 253 254 257 257 259 249 251 245 255 258 256 258 262 267 287 298 286
274 290 292 283 282 282 278 276 276 275 269 270 276 274 271 269 268 262 265 261 264 269 273 275 274 275 274 276 269 268 273 275 273 287 269 278 280 283 276 271 312 396 379
279 279 273 279 279 268 269 261 261 261 259 258 256 260 264 268 264 270 266 261 259 265 268 264 257 259 254 229 257 259 260 242 237 254 257 255 262 299 342 375 371 365 366
280 275 267 272 268 277 275 262 264 265 274 273 252 252 254 256 261 265 256 252 250 247 250 247 250 300 250 305 287 296 299 299 300 297 247 285 307 339 349 332 336 288 316
288 275 290 278 274 269 262 269 264 254 254 264 253 259 257 257 265 268 260 249 250 273 274 269 283 303 262 293 270 282 295 302 294 296 291 299 302 335 313 295 286 290 304
294 285 270 273 268 258 257 254 255 252 261 260 258 265 252 250 256 256 263 267 263 264 277 276 293 297 285 285 290 287 293 282 283 286 288 291 278 303 300 296 297 277 289
267 272 267 284 266 269 273 261 263 266 256 255 255 245 259 258 255 255 255 271 277 261 274 289 289 279 279 280 283 277 280 277 273 280 280 273 273 276 294 286 274 277 278

GFSMW_2pvu_pres_111.txt.gz
Presure
223 182 191 229 149 116 167 158 163 151 153 150 200 175 140 194 162 188 154 168 161 157 154 156 154 161 161 168 136 168 154 136 145 189 184 149 158 154 143 171 162 153 149
239 150 145 165 137 173 103 173 149 172 178 147 189 169 111 177 159 170 164 153 152 164 154 156 155 181 185 182 196 186 197 148 162 143 172 158 174 180 188 150 162 171 145
203 200 180 195 187 185 133 143 145 170 166 128 132 159 156 151 192 189 163 185 198 182 158 156 139 209 211 176 125 156 182 145 175 177 185 174 164 167 152 164 160 172 157
244 223 164 193 157 165 104 146 185 192 169 155 115 140 160 165 158 167 185 95 131 187 158 190 174 197 209 180 136 188 165 169 183 196 166 172 184 175 162 172 173 180 167
269 233 194 203 226 148 154 151 127 165 151 207 164 163 176 181 160 188 121 167 142 147 127 190 170 169 167 169 175 183 193 203 167 173 159 199 157 161 170 174 187 178 170
267 203 178 200 193 141 170 168 222 148 190 172 145 136 187 168 167 157 148 134 155 165 151 135 184 149 183 191 185 167 180 179 184 164 160 173 124 158 175 168 175 177 178
262 164 135 187 202 199 190 180 140 161 175 173 168 175 178 155 150 166 164 153 167 157 169 162 176 198 190 191 177 174 193 199 197 205 145 168 136 181 164 179 185 184 151
273 230 194 206 202 220 162 189 196 172 191 164 173 168 166 159 165 166 190 204 158 151 170 187 195 196 169 175 213 224 176 170 154 201 176 138 186 188 165 187 160 192 197
245 292 162 188 208 210 199 129 126 157 175 213 172 177 159 175 176 175 198 177 163 218 191 177 198 164 152 169 169 178 170 166 157 175 189 176 171 183 168 197 191 164 172
259 262 204 232 235 212 171 165 163 155 188 171 152 167 168 194 184 137 160 195 212 161 170 174 173 172 170 171 175 155 171 175 173 150 160 176 187 149 178 178 184 179 193
256 238 268 274 236 190 205 211 204 193 174 197 189 189 175 170 172 174 183 172 177 138 168 174 165 168 172 175 177 175 169 170 165 167 171 173 180 201 176 186 177 189 170
253 249 249 268 265 130 223 231 199 195 145 206 164 183 157 177 190 170 172 161 167 171 172 173 187 171 165 180 186 174 186 166 179 170 168 162 151 160 165 155 183 169 189
248 257 267 254 235 206 246 234 219 221 214 181 194 204 164 181 178 182 177 179 170 169 172 145 179 196 175 185 160 176 140 165 178 150 169 178 157 168 171 179 183 156 194
254 262 256 266 268 258 237 193 227 248 241 245 224 208 204 203 185 175 175 170 149 168 166 179 158 173 158 187 199 179 192 169 192 177 166 159 180 187 170 165 178 169 169
256 254 255 262 275 258 252 241 226 231 280 248 223 222 142 194 195 138 192 206 201 182 189 171 176 164 162 168 189 185 190 201 172 175 172 176 167 170 163 162 169 173 173
273 259 258 262 254 261 259 254 260 247 220 252 238 225 236 246 251 255 206 248 153 233 229 220 154 192 190 184 189 191 185 196 187 189 211 227 228 239 178 179 193 176 170
262 260 263 260 257 256 261 260 268 260 257 263 264 259 265 242 257 240 245 251 252 204 262 218 216 195 195 191 182 186 192 183 185 189 191 198 202 202 189 203 191 192 203
267 268 270 271 267 273 266 264 270 268 269 267 265 242 237 268 267 234 275 263 269 264 267 255 233 187 242 267 225 214 180 182 200 182 184 186 189 241 212 210 176 193 206
266 270 275 273 272 268 268 268 258 257 272 276 275 273 267 273 273 273 274 274 272 269 254 257 254 250 251 230 257 257 252 252 246 254 254 249 247 224 252 257 242 239 239
336 349 350 299 286 286 185 279 276 271 293 294 286 280 292 302 269 265 265 264 257 255 251 253 253 256 251 250 249 254 133 260 264 261 263 201 260 268 266 267 267 274 271
304 297 313 349 310 307 301 321 309 307 304 295 288 278 266 265 260 260 257 254 252 252 250 249 248 253 254 257 260 268 267 263 271 285 282 282 275 275 283 269 258 259 273
291 287 305 284 331 306 286 286 289 281 277 278 272 266 264 257 254 252 251 250 251 252 256 261 267 269 267 279 273 261 260 269 267 261 262 175 213 259 223 265 291 305 310
284 288 286 283 293 295 282 299 300 290 287 287 284 287 282 254 269 268 261 263 271 271 261 261 257 274 261 261 209 243 241 250 253 318 302 300 304 284 292 301 297 301 320
286 290 283 280 276 277 275 282 283 277 286 281 271 262 261 267 270 271 267 257 255 258 269 264 262 262 270 263 266 254 283 273 304 304 287 295 293 290 263 290 290 294 297
285 273 265 264 272 275 271 271 275 276 263 261 258 256 255 259 258 261 275 272 268 253 257 255 250 252 261 270 281 318 313 299 299 286 288 284 282 280 280 280 287 277 277
307 302 283 278 285 276 270 274 264 264 262 258 259 263 262 256 264 251 254 252 261 259 265 258 261 250 264 280 262 296 291 287 285 275 281 277 275 278 267 269 275 278 281

GFSMW_2pvu_pres_114.txt.gz
Presure
262 226 204 161 175 106 111 170 203 143 133 225 151 149 142 136 141 134 122 126 133 175 181 172 175 159 152 161 152 134 177 164 176 109 170 172 172 179 202 167 180 161 158
253 233 142 189 196 138 91 183 163 153 212 167 189 158 158 202 137 141 141 161 114 160 169 128 121 169 142 139 160 162 160 134 178 161 189 189 184 131 134 166 173 154 164
250 240 208 187 138 139 116 147 127 122 147 145 144 197 174 167 159 158 168 130 150 169 159 153 158 171 188 178 177 169 170 171 152 169 193 174 172 189 177 171 162 172 165
263 234 204 134 150 126 129 133 152 142 139 169 190 136 151 153 169 174 189 136 185 197 155 181 160 116 96 167 161 168 207 188 202 188 195 185 181 166 170 170 168 171 193
255 234 208 125 127 129 135 139 126 132 92 204 127 170 124 126 151 121 180 137 189 85 175 152 142 92 144 126 198 193 176 188 140 177 142 184 142 172 183 180 139 132 168
271 158 220 203 132 134 182 145 171 168 147 120 131 130 171 180 167 191 175 152 159 151 154 191 175 138 164 149 140 141 176 149 147 202 180 168 184 171 176 153 171 170 180
281 250 239 200 141 147 182 182 195 175 170 181 173 150 148 137 178 145 154 191 129 195 155 173 128 157 180 204 86 173 139 201 165 167 188 172 170 165 180 160 171 176 148
272 159 143 204 187 181 185 173 150 195 173 189 128 175 155 157 151 130 185 159 159 163 156 170 169 190 178 147 176 177 166 156 161 180 173 170 208 163 174 174 180 171 172
290 266 254 207 198 187 202 193 179 172 179 175 169 143 129 161 180 181 160 173 170 148 164 165 179 179 165 164 193 207 180 188 211 178 178 211 177 176 173 173 164 165 175
262 273 260 230 209 195 183 208 187 209 175 173 152 163 178 138 144 124 154 172 178 172 166 173 166 148 170 181 173 144 182 178 167 200 140 181 188 171 187 156 170 184 163
275 268 266 214 203 163 186 176 197 138 181 187 154 160 199 131 163 174 183 168 165 167 201 173 142 192 159 170 178 174 177 173 162 170 174 169 176 176 155 162 172 175 176
252 282 266 239 211 193 193 187 181 198 211 205 212 119 172 190 138 130 172 163 144 172 191 146 187 155 158 180 186 176 173 178 162 168 172 165 175 177 178 160 181 174 163
283 289 289 268 234 203 196 200 185 130 185 176 172 176 199 187 206 187 181 176 171 192 183 156 185 174 171 170 174 143 146 155 168 160 138 176 182 189 175 164 184 152 167
251 257 245 278 238 206 209 202 200 188 183 189 201 167 159 160 196 187 180 182 173 190 183 180 183 177 171 191 178 179 156 180 181 181 190 168 167 193 174 172 187 175 178
246 254 249 256 231 263 212 196 199 199 198 219 188 187 215 191 193 183 153 181 182 169 168 166 178 156 180 164 172 162 192 162 149 183 208 145 192 143 153 191 180 200 188
250 250 256 277 266 273 251 233 203 201 184 188 186 199 200 191 189 191 188 178 180 179 168 176 189 170 198 193 186 182 161 194 188 195 199 180 209 226 182 213 190 198 177
261 274 269 262 260 264 256 241 240 204 193 191 193 190 191 193 171 191 190 185 185 179 185 184 173 176 172 167 187 185 186 188 195 203 203 176 163 231 216 214 209 228 267
262 251 260 261 269 264 259 264 270 232 206 252 200 204 201 202 204 206 201 200 197 197 195 193 194 191 193 184 196 195 191 207 202 222 220 254 273 271 266 253 253 242 263
260 260 259 259 264 268 273 264 269 265 280 269 266 256 237 212 212 212 209 211 206 205 211 214 222 231 194 225 208 205 242 251 244 245 274 260 187 247 256 263 223 258 235
271 259 260 260 260 260 260 252 267 272 279 267 217 265 231 232 251 237 283 264 287 302 252 255 274 283 211 248 234 229 245 271 268 262 265 145 262 260 262 260 285 292 267
267 264 264 265 268 259 251 251 257 270 270 257 266 227 270 234 269 241 223 266 255 274 273 275 234 275 259 258 276 273 231 212 262 263 259 262 266 292 287 290 277 296 252
346 318 290 301 282 273 272 262 270 264 265 265 259 263 267 272 260 249 265 226 271 221 280 295 264 327 280 240 267 258 260 256 253 265 265 269 278 278 271 264 251 294 272
321 324 330 326 285 275 266 266 268 272 261 261 260 267 273 275 265 271 273 275 269 286 303 293 262 265 260 257 254 250 241 259 267 270 261 266 283 245 251 255 310 297 297
317 312 305 304 311 314 327 339 338 346 311 298 335 342 323 306 338 309 300 306 286 283 262 269 260 263 258 256 258 246 258 260 270 271 271 264 279 309 313 247 260 290 282
314 300 290 296 292 294 294 298 284 300 296 302 286 286 311 300 276 285 276 268 263 261 260 256 253 257 259 267 265 258 260 266 264 248 263 279 292 266 301 293 283 281 283
317 303 314 326 288 282 284 286 278 286 288 296 289 288 299 281 283 293 292 287 279 272 264 263 260 255 254 253 269 255 249 262 264 270 269 312 299 290 290 291 279 279 274

GFSMW_2pvu_pres_117.txt.gz
Presure
118 123 125 124 132 128 166 157 141 169 154 147 134 132 162 134 135 150 153 155 191 157 150 161 178 186 136 166 192 120 131 180 166 103 174 174 139 165 188 173 181 221 183
123 140 127 141 118 139 139 169 149 127 196 186 154 130 185 156 147 135 125 140 176 184 127 134 193 138 145 154 150 131 159 158 157 193 179 144 170 139 182 205 221 162 180
123 211 145 181 147 138 147 106 123 154 199 178 214 179 178 151 134 137 153 143 176 165 153 158 154 153 145 148 157 184 164 186 178 193 181 187 191 181 196 219 169 196 181
290 145 201 196 144 143 186 154 141 157 165 136 132 188 100 107 192 157 132 145 188 189 137 164 177 169 168 158 190 120 170 139 168 150 152 143 173 198 214 184 200 194 165
266 220 170 194 148 180 147 153 142 160 173 120 192 201 151 154 142 124 207 134 146 159 137 150 144 162 136 121 145 193 97 173 197 214 144 157 148 144 152 163 168 168 166
250 214 201 207 189 190 158 149 178 177 152 126 93 137 127 159 118 124 182 183 154 117 144 143 178 188 166 184 183 189 131 149 150 158 169 184 174 169 154 178 187 168 166
241 213 200 193 187 193 203 217 179 189 125 175 163 145 134 148 159 112 116 184 148 167 198 155 184 176 121 127 201 177 142 157 193 173 177 215 150 164 167 169 154 173 169
219 210 203 196 186 206 172 194 189 142 189 132 134 132 120 129 151 152 188 181 178 171 125 183 175 157 136 168 179 201 202 205 182 147 177 129 168 162 196 182 167 150 178
258 209 203 197 193 197 194 215 176 177 144 197 168 138 138 158 173 181 149 184 130 186 196 198 200 200 197 198 213 146 192 183 158 191 152 170 191 148 185 167 145 186 176
242 210 189 126 185 191 186 183 162 184 179 190 174 139 147 177 169 167 152 162 166 149 136 143 151 154 176 197 183 149 166 141 198 189 174 178 176 188 190 158 169 165 206
242 219 209 215 143 146 188 191 192 200 184 168 133 169 169 170 178 178 171 179 164 140 154 167 141 183 193 173 153 177 191 187 153 194 191 163 189 186 153 186 192 154 192
244 234 219 208 200 193 213 202 208 201 207 182 202 163 195 156 176 164 160 159 142 160 155 158 185 193 146 180 180 172 190 170 157 192 184 174 140 186 201 186 179 192 169
259 246 238 222 206 192 191 191 182 177 183 202 198 192 177 191 175 148 185 188 171 141 191 143 132 152 161 185 189 178 172 165 177 176 146 157 200 198 179 184 190 190 187
263 262 247 234 203 204 190 206 180 194 204 187 178 172 192 189 157 140 167 141 165 185 163 186 190 178 171 176 181 195 191 189 173 179 172 181 194 172 183 161 189 200 185
256 266 239 231 209 201 199 188 192 189 180 185 187 185 189 213 187 192 148 147 147 183 178 202 198 187 177 177 166 183 163 187 177 180 183 173 191 205 180 172 192 201 183
247 265 271 270 235 212 201 202 201 190 191 177 185 183 179 201 157 167 194 192 196 193 180 137 179 176 173 169 181 183 189 188 184 186 182 188 205 178 171 183 186 187 215
258 278 284 262 265 252 220 214 205 202 196 188 190 185 180 181 186 174 176 170 191 176 196 179 187 190 166 192 182 187 196 183 187 195 179 179 190 191 191 201 176 182 193
245 265 264 268 298 259 257 231 231 193 195 198 190 193 201 205 188 182 182 206 182 195 173 174 181 187 178 177 181 187 181 183 184 175 182 164 209 185 190 184 196 206 217
246 255 268 254 284 286 261 244 248 221 203 197 197 199 191 190 187 193 191 214 184 193 182 181 194 185 187 187 194 198 178 182 192 188 201 198 179 174 194 201 204 206 220
262 273 264 262 243 280 281 253 250 235 215 204 196 198 193 195 192 190 181 177 177 175 182 158 188 194 186 193 202 197 196 191 202 200 189 200 200 197 168 222 216 206 235
266 261 266 270 271 267 270 272 257 255 296 214 207 194 194 200 202 195 190 191 206 191 200 163 194 185 213 181 188 204 194 186 202 216 210 205 205 214 235 240 275 194 263
278 280 270 273 265 264 266 267 273 281 265 306 251 226 210 204 221 190 193 200 202 197 197 204 189 197 198 186 204 200 207 208 199 200 192 214 236 234 244 254 249 276 268
299 288 288 286 279 282 278 276 275 266 277 263 267 272 249 217 223 209 205 202 203 202 201 194 200 201 203 204 207 211 209 252 218 217 225 199 214 224 213 251 276 264 277
360 353 379 290 275 283 281 279 266 276 269 256 262 259 254 275 261 236 236 262 225 223 214 219 221 204 206 257 253 283 288 245 243 231 241 257 262 277 266 268 268 278 277
268 339 373 346 340 344 337 339 326 271 274 266 263 262 268 271 273 271 260 275 256 240 247 249 280 255 264 293 323 210 250 215 286 286 282 268 259 272 265 269 268 254 280
277 248 267 315 356 340 333 330 319 317 320 326 316 311 316 316 283 283 282 274 274 304 316 320 320 318 325 283 283 285 265 269 268 260 260 272 265 260 255 264 265 245 317